     2              OBSERVATION DATA    GPS                 RINEX VERSION / TYPE
teqc 2000Feb29 20020409 20:37:30UTC                         PGM / RUN BY / DATE
                                                            COMMENT
L2: 1 -> 1; 150 -> 5; 250 -> 9                              COMMENT
L2: 1 -> 1; 150 -> 5; 250 -> 9                              COMMENT
L2: 1 -> 1; 150 -> 5; 250 -> 9                              COMMENT
L2: 1 -> 1; 150 -> 5; 250 -> 9                              COMMENT
L2: 1 -> 1; 150 -> 5; 250 -> 9                              COMMENT
Original Marker Name: GAIR                                  COMMENT
Campaign Name: Northern Baja                                COMMENT
4-Character Station Name: GAIR                              COMMENT
6-Character Antenna Code: DMRCHT                            COMMENT
Vertical Measurement Point: BCR                             COMMENT
Vertical Offset to Rinex Ref. Point: 0.0348                 COMMENT
Radial Measurement Point: ECF                               COMMENT
Radial Offset to Rinex Ref. Point: 0.1897                   COMMENT
Antenna Height from Field Measurement: 1.2436 m             COMMENT
Additional Antenna Identification Info.:                    COMMENT
Turborogue and Ashtech Choke Ring                           COMMENT
Original XYZ: -2366186.9681 -4903474.2870 3313178.0354      COMMENT
New XYZ position is based on association with SCEC monument COMMENT
D5S7I5Q6+0011. Position of that monument is believed to be  COMMENT
valid to within 1 m horizontally; vertical accuracy         COMMENT
should be no worse than 3-times this value.                 COMMENT
                                                            COMMENT
Revised Rinex header created by UCSD GPS archive for        COMMENT
GSAC on 27-Jun-2003 (2003:178) 15:34:15 GMT                 COMMENT
For assistance contact dagnew@ucsd.edu                      COMMENT
or anderson@python.ucsd.edu                                 COMMENT
                                                            COMMENT
GUADALUPE AIRPORT                                           MARKER NAME
JGG CICESE (ENSENADA)                                       OBSERVER / AGENCY
317 ASHTECH Z-XII3 CC00                                     REC # / TYPE / VERS
16408 DORNE-MARGOL. TYPE T                                  ANT # / TYPE
 -2643725.2366 -4916174.7912  3076679.3670                  APPROX POSITION XYZ
        1.1942        0.0000        0.0000                  ANTENNA: DELTA H/E/N
     1     1     0                                          WAVELENGTH FACT L1/2
     7    C1    L1    L2    P1    P2    S1    S2            # / TYPES OF OBSERV
     0                                                      INTERVAL
  2002     3    20    20    45    0.000000                  TIME OF FIRST OBS
  2002     3    20    23    59   30.000000                  TIME OF LAST OBS
                                                            END OF HEADER
 02  3 20 20 45  0.0000000  0  5G30G24G 5G 6G10
  20426379.806     -119766.94949    -79669.16748  20426379.901    20426392.763
       245.000         214.000
  22679757.962      180345.18549    127809.45746  22679757.411    22679775.047
       229.000         179.000
  20498529.811       58901.68949     42329.51548  20498529.124    20498542.680
       246.000         216.000
  22591458.398     -204584.97049   -148513.61746  22591457.799    22591475.465
       226.000         180.000
  20947032.687     -120123.74149    -88965.49547  20947031.592    20947047.101
       242.000         206.000
 02  3 20 20 45 30.0000000  0  6G30G24G 5G 6G 9G10
  20418732.602     -159951.12149   -110981.46648  20418733.155    20418746.032
       246.000         214.000
  22692418.094      246875.02749    179650.77246  22692417.376    22692435.692
       227.000         179.000
  20502344.943       78949.79149     57951.37448  20502344.043    20502357.754
       247.000         216.000
  22577942.899     -275602.28949   -203851.64946  22577944.324    22577961.366
       229.000         181.000
                    232407.82549    168620.20744                  24912596.888
       206.000         117.000
  20939735.616     -158470.47749   -118845.98147  20939734.493    20939749.529
       242.000         206.000
 02  3 20 20 46  0.0000000  0  8G30G24G23G 5G 6G 9G10G17
  20356156.440     -488792.14849   -367221.18448  20356156.666    20356169.588
       246.000         214.000
  22650058.310       24272.68849      6194.29546  22650058.141    22650075.626
       228.000         178.000
  22848239.708     -593073.01449   -449891.85546  22848237.804    22848261.173
       218.000         163.000
  20451227.745     -189672.70549   -151364.89448  20451226.970    20451240.703
       247.000         216.000
  22509400.791     -635797.78549   -484523.32146  22509401.216    22509417.801
       227.000         181.000
  24870896.160       13404.27949     -2032.03745  24870898.695    24870925.726
       214.000         138.000
  20877519.871     -485415.90549   -373608.56847  20877518.864    20877533.836
       242.000         206.000
                   -506215.88649   -385449.33543
       208.000          74.000
 02  3 20 20 46 30.0000000  0  8G30G24G23G 5G 6G 9G10G17
  20350981.259     -515988.37649   -388413.01348  20350981.349    20350994.262
       246.000         214.000
  22665008.327      102835.12149     67411.66546  22665007.682    22665025.068
       228.000         178.000
  22830083.716     -688484.48549   -524238.03746  22830082.313    22830105.293
       217.000         165.000
  20457508.577     -156667.09349   -125646.28348  20457507.832    20457521.581
       247.000         216.000
  22498160.018     -694870.35949   -530553.76346  22498159.958    22498176.337
       227.000         181.000
  24886491.132       95352.17849     61823.20245  24886490.781    24886522.297
       204.000         143.000
  20872716.309     -510658.58449   -393278.10847  20872714.990    20872730.396
       243.000         206.000
                   -584256.07849   -231134.90043
       208.000          74.000
 02  3 20 20 47  0.0000000  0  8G30G24G23G 5G 6G 9G10G17
  20345910.675     -542634.77049   -409176.38748  20345910.779    20345923.461
       246.000         214.000
  22679971.237      181465.15849    128681.71646  22679971.642    22679989.102
       228.000         178.000
  22811963.200     -783704.77749   -598435.24846  22811961.298    22811984.877
       220.000         167.000
  20463890.502     -123130.08049    -99513.58448  20463889.844    20463903.433
       247.000         216.000
  22486924.127     -753916.00849   -576563.22246  22486923.617    22486940.192
       227.000         181.000
  24902057.242      177153.62649    125564.19445  24902057.744    24902086.379
       213.000         141.000
  20868028.417     -535293.52649   -412474.07347  20868027.285    20868042.684
       242.000         206.000
                   -662091.50149   -291786.04143
       209.000          74.000
 02  3 20 20 47 30.0000000  0  8G30G24G23G 5G 6G 9G10G17
  20340943.513     -568737.41349   -429516.07148  20340943.368    20340956.399
       246.000         214.000
  22694945.261      260153.54149    189997.21846  22694945.166    22694963.600
       229.000         179.000
  22793878.757     -878738.38449   -672486.97846  22793877.007    22793899.799
       219.000         167.000
  20470372.008      -89069.80049    -72973.15648  20470371.267    20470385.033
       247.000         216.000
  22475692.022     -812941.38149   -622556.89946  22475691.742    22475708.273
       228.000         182.000
  24917594.284      258798.70649    189183.59245  24917595.208    24917621.085
       203.000         139.000
  20863454.986     -559326.79749   -431201.21947  20863453.801    20863468.885
       242.000         206.000
                   -739728.85349   -352283.07543
       209.000          74.000
 02  3 20 20 48  0.0000000  0  8G30G24G23G 5G 6G 9G10G17
  20336080.220     -594294.22749   -449430.43448  20336080.225    20336092.905
       246.000         214.000
  22709930.114      338898.90549    251357.11846  22709930.172    22709947.209
       228.000         178.000
  22775830.362     -973581.82549   -746390.53246  22775829.981    22775852.001
       220.000         167.000
  20476953.069      -54486.30149    -46025.01748  20476952.401    20476965.909
       247.000         216.000
  22464463.946     -871945.30149   -668533.84446  22464463.585    22464480.025
       229.000         182.000
  24933101.036      340285.83449    252679.90145  24933100.504    24933130.746
       203.000         137.000
  20858996.385     -582756.66449   -449458.18047  20858995.168    20859010.219
       242.000         206.000
                   -817167.07649   -200544.96743
       209.000          74.000
 02  3 20 20 48 30.0000000  0  8G30G24G23G 5G 6G 9G10G17
  20331321.130     -619303.00449   -468917.75048  20331321.409    20331334.062
       245.000         214.000
  22724925.536      417700.18949    312760.59346  22724925.521    22724942.618
       227.000         178.000
  22757818.925    -1068231.20349   -820142.85946  22757817.641    22757839.643
       220.000         167.000
  20483633.600      -19379.52049    -18669.12648  20483633.036    20483646.787
       246.000         216.000
  22453240.158     -930926.24549   -714492.88246  22453239.656    22453256.423
       228.000         182.000
  24948577.077      421613.71949    316051.90745  24948578.608    24948606.971
       207.000         139.000
  20854652.910     -605581.20449   -467243.44647  20854651.685    20854666.999
       242.000         205.000
                   -894404.47349   -260730.31443
       209.000          74.000
 02  3 20 20 49  0.0000000  0  7G30G24G 5G 6G 9G10G17
  20326666.435     -643763.88649   -487978.13648  20326666.532    20326679.351
       246.000         214.000
  22739931.256      496554.68249    374205.53146  22739930.823    22739948.419
       227.000         178.000
  20490413.437       16248.44649      9092.88048  20490412.782    20490426.582
       246.000         216.000
  22442020.729     -989885.13949   -760434.75646  22442020.463    22442036.834
       231.000         183.000
  24964022.642      502778.61249    379297.02845  24964023.616    24964052.270
       215.000         142.000
  20850424.696     -627800.50149   -484557.10847  20850423.622    20850438.896
       242.000         206.000
                   -971442.03449   -320759.16743
       210.000          74.000
 02  3 20 20 49 30.0000000  0  8G30G24G23G 5G 6G 9G10G17
  20322115.619     -667678.57849   -506612.92348  20322115.742    20322128.494
       245.000         214.000
  22754946.114      575457.66349    435688.24146  22754946.259    22754963.607
       228.000         177.000
                   -334084.91249   -237638.48743
       222.000          74.000
  20497291.672       52393.46749     37257.78348  20497291.071    20497304.702
       246.000         215.000
  22430805.096    -1048824.53849   -806361.42246  22430804.897    22430820.645
       230.000         183.000
  24979436.199      583775.04049    442410.96045  24979437.086    24979463.806
       206.000         139.000
  20846311.294     -649416.60049   -501400.73847  20846310.200    20846325.450
       243.000         206.000
                  -1048282.02449   -380634.06145                  23999830.444
       210.000         140.000
 02  3 20 20 50  0.0000000  0  8G30G24G23G 5G 6G 9G10G17
  20317670.221     -691039.50649   -524816.19748  20317670.210    20317683.031
       246.000         214.000
  22769971.043      654413.51249    497212.14646  22769970.987    22769988.186
       228.000         177.000
                   -428139.13249   -311072.46243
       222.000          74.000
  20504269.365       89061.17649     65829.97348  20504268.620    20504282.613
       246.000         215.000
  22419594.373    -1107737.44249   -852267.44946  22419593.738    22419610.166
       232.000         184.000
  24994818.152      664607.28949    505396.92745  24994815.060    24994847.396
       199.000         135.000
  20842314.034     -670422.28549   -517768.72547  20842312.887    20842328.204
       242.000         206.000
  23985222.295    -1124917.78849   -440349.89345  23985220.937    23985245.748
       208.000         147.000
 02  3 20 20 50 30.0000000  0  8G30G24G23G 5G 6G 9G10G17
  20313330.144     -713846.90149   -542588.15148  20313330.264    20313342.929
       245.000         214.000
  22785005.484      733418.96549    558774.71146  22785005.429    22785022.900
       228.000         176.000
                   -521987.51749   -384346.40743
       222.000          74.000
  20511346.087      126249.26449     94807.64948  20511345.551    20511359.387
       246.000         215.000
  22408388.503    -1166624.63349   -898153.45146  22408388.126    22408404.176
       230.000         184.000
  25010167.951      745271.64749    568251.93045  25010168.900    25010197.834
       210.000         135.000
  20838432.804     -690818.12749   -533661.51047  20838431.684    20838447.067
       242.000         206.000
  23970677.633    -1201349.88149   -499907.02045  23970676.506    23970701.068
       210.000         151.000
 02  3 20 20 51  0.0000000  0  8G30G24G23G 5G 6G 9G10G17
  20309095.955     -736097.74249   -559926.42948  20309095.935    20309108.754
       246.000         214.000
  22800049.342      812474.20749    620376.05246  22800048.745    22800066.113
       227.000         176.000
                   -615625.57649   -206782.00844                  22668353.756
       222.000         109.000
  20518522.012      163958.72749    124191.59048  20518521.353    20518535.303
       246.000         215.000
  22397187.849    -1225483.71349   -944017.54146  22397187.220    22397203.463
       231.000         184.000
  25025486.276      825767.53949    630975.77345  25025487.575    25025516.368
       214.000         144.000
  20834668.228     -710601.07449   -549076.72047  20834666.980    20834682.237
       242.000         206.000
  23956172.128    -1277576.16549   -559303.77145  23956170.868    23956194.775
       211.000         151.000
 02  3 20 20 51 30.0000000  0  8G30G24G23G 5G 6G 9G10G17
  20304967.745     -757791.70449   -576830.77248  20304967.733    20304980.378
       246.000         215.000
  22815102.225      891576.76949    682014.26846  22815101.924    22815120.239
       227.000         175.000
  22650552.843     -709051.13749   -279580.81346  22650551.300    22650573.569
       222.000         164.000
  20525796.830      202187.75849    153980.39148  20525796.327    20525810.314
       246.000         215.000
  22385992.577    -1284314.85149   -989859.85946  22385992.160    22386008.013
       231.000         184.000
  25040771.926      906091.86749    693565.93445  25040771.475    25040803.045
       206.000         140.000
  20831020.319     -729770.95549   -564014.21547  20831019.195    20831034.440
       243.000         206.000
  23941705.653    -1353596.80949   -618540.29145  23941704.173    23941728.571
       214.000         152.000
 02  3 20 20 52  0.0000000  0  8G30G24G23G 5G 6G 9G10G17
  20300945.547     -778928.56249   -593301.00948  20300945.538    20300958.183
       245.000         215.000
  22830163.537      970723.78349    743687.12446  22830164.486    22830180.650
       227.000         175.000
  22632815.073     -802262.50749   -352212.67346  22632813.329    22632835.134
       223.000         170.000
  20533170.089      240934.24249    184172.40348  20533169.513    20533183.664
       246.000         215.000
  22374802.578    -1343118.59649  -1035680.82946  22374801.657    22374818.382
       231.000         184.000
  25056023.727      986241.30849    756019.76844  25056024.735    25056048.468
       205.000         127.000
  20827488.917     -748328.35949   -578474.44647  20827487.730    20827502.901
       242.000         206.000
  23927278.260    -1429412.38049   -677617.03445  23927276.091    23927300.933
       212.000         151.000
 02  3 20 20 52 30.0000000  0  7G30G24G23G 5G 6G10G17
  20297030.498     -799502.13149   -609332.32148  20297030.428    20297043.189
       246.000         214.000
  22845234.039     1049919.07549    805397.60246  22845233.734    22845251.716
       226.000         175.000
  22615119.673     -895251.39449   -424671.17646  22615118.409    22615139.443
       223.000         171.000
  20540642.655      280202.58649    214771.05748  20540642.169    20540655.987
       246.000         215.000
  22363618.946    -1401888.83049  -1081475.70046  22363618.559    22363634.743
       231.000         184.000
  20824075.389     -766266.42249   -592452.08147  20824074.173    20824089.599
       243.000         206.000
  23912890.968    -1505016.99849   -736529.38645  23912889.231    23912913.592
       212.000         153.000
 02  3 20 20 53  0.0000000  0  7G30G24G23G 5G 6G10G17
  20293221.625     -819517.77349   -624928.87948  20293221.505    20293234.385
       245.000         214.000
  22860312.032     1129153.84749    867138.84546  22860311.496    22860328.976
       226.000         174.000
  22597465.830     -988021.96549   -496959.55946  22597464.261    22597485.677
       224.000         172.000
  20548213.070      319984.99349    245770.28448  20548212.618    20548226.421
       246.000         215.000
  22352440.431    -1460631.69549  -1127249.22046  22352439.448    22352456.007
       230.000         184.000
  20820778.537     -783591.22749   -605951.84747  20820777.476    20820792.527
       243.000         207.000
  23898542.552    -1580416.88549   -795282.23045  23898541.374    23898564.410
       215.000         152.000
 02  3 20 20 53 30.0000000  0  7G30G24G23G 5G 6G10G17
  20289518.759     -838976.49749   -640091.48248  20289518.679    20289531.362
       246.000         214.000
  22875396.857     1208424.71849    928908.21846  22875396.782    22875414.718
       225.000         174.000
  22579853.708    -1080573.37949   -569077.16446  22579852.114    22579873.456
       224.000         172.000
  20555880.737      360278.42849    277167.71348  20555880.110    20555893.807
       246.000         215.000
  22341266.839    -1519348.57049  -1173002.51746  22341266.483    22341282.682
       231.000         184.000
  20817598.204     -800303.94249   -618974.65947  20817596.918    20817611.757
       243.000         207.000
  23884232.907    -1655613.59149   -853876.74645  23884231.650    23884255.429
       212.000         155.000
 02  3 20 20 54  0.0000000  0  7G30G24G23G 5G 6G10G17
  20285922.259     -857876.20649   -654818.48848  20285922.278    20285934.743
       245.000         214.000
  22890488.554     1287731.29549    990705.41746  22890488.694    22890506.116
       226.000         174.000
  22562283.971    -1172901.53949   -641020.85246  22562282.957    22562303.491
       224.000         172.000
  20563645.675      401082.99749    308963.42748  20563645.125    20563658.990
       247.000         215.000
  22330098.667    -1578037.63049  -1218734.12246  22330097.535    22330114.754
       232.000         185.000
  20814534.696     -816402.58249   -631518.98047  20814533.518    20814548.463
       242.000         206.000
  23869962.220    -1730605.46249   -912311.64845  23869960.750    23869984.111
       214.000         155.000
 02  3 20 20 54 30.0000000  0  7G30G24G23G 5G 6G10G17
  20282432.475     -876215.16249   -669108.54648  20282432.484    20282445.114
       245.000         214.000
  22905586.769     1367072.44449   1052529.54946  22905586.722    22905605.108
       226.000         174.000
  22544757.456    -1265002.93149   -712787.81146  22544755.560    22544776.564
       224.000         173.000
  20571507.812      442398.24049    341157.06348  20571507.272    20571521.074
       246.000         215.000
  22318935.956    -1636697.45049  -1264442.96146  22318935.003    22318950.897
       231.000         185.000
  20811588.295     -831885.81849   -643583.76447  20811587.128    20811602.176
       242.000         206.000
  23855730.694    -1805391.40249   -970586.08745  23855729.602    23855753.109
       213.000         155.000
 02  3 20 20 55  0.0000000  0  7G30G24G23G 5G 6G10G17
  20279049.696     -893991.86049   -682960.47948  20279049.596    20279062.311
       245.000         214.000
  22920691.409     1446446.66749   1114379.45946  22920691.465    22920708.604
       226.000         174.000
  22527274.677    -1356874.46849   -784375.67046  22527273.043    22527294.109
       224.000         173.000
  20579466.983      484223.52949    373748.14448  20579466.492    20579480.300
       246.000         215.000
  22307779.042    -1695327.07449  -1310128.24746  22307778.466    22307794.376
       231.000         185.000
  20808759.209     -846752.47549   -655168.09047  20808757.957    20808772.874
       243.000         207.000
  23841538.543    -1879970.49249  -1028699.35245  23841537.217    23841560.751
       215.000         156.000
 02  3 20 20 55 30.0000000  0  7G30G24G23G 5G 6G10G17
  20275774.099     -911205.16549   -696373.41448  20275774.154    20275786.786
       245.000         214.000
  22935802.058     1525852.66849   1176254.11046  22935801.665    22935819.938
       226.000         173.000
  22509836.156    -1448513.29649   -855782.21346  22509834.296    22509855.649
       224.000         173.000
  20587523.062      526558.01249    406735.99248  20587522.425    20587536.497
       247.000         215.000
  22296628.074    -1753925.56449  -1355789.30546  22296627.956    22296643.209
       231.000         185.000
  20806047.692     -861001.66349   -666271.28147  20806046.244    20806061.360
       243.000         207.000
  23827386.000    -1954342.13049  -1086650.97545  23827384.105    23827407.553
       217.000         156.000
 02  3 20 20 56  0.0000000  0  7G30G24G23G 5G 6G10G17
  20272605.979     -927853.61249   -709346.19848  20272605.917    20272618.757
       245.000         214.000
  22950918.389     1605288.84649   1238152.29046  22950918.190    22950935.715
       226.000         173.000
  22492442.519    -1539916.08249   -927004.81446  22492441.327    22492461.734
       225.000         174.000
  20595675.879      569400.89749    440120.00148  20595675.191    20595689.257
       246.000         215.000
  22285483.253    -1812491.94949  -1401425.30746  22285482.452    22285498.581
       232.000         185.000
  20803453.840     -874632.24549   -676892.43547  20803452.709    20803467.422
       242.000         207.000
  23813273.039    -2028505.35449  -1144440.19545  23813271.855    23813295.480
       214.000         156.000
 02  3 20 20 56 30.0000000  0  7G30G24G23G 5G 6G10G17
  20269545.502     -943936.36649   -721878.18648  20269545.456    20269558.263
       245.000         214.000
  22966040.210     1684753.95749   1300072.99346  22966039.602    22966057.677
       226.000         173.000
  22475094.378    -1631079.99549   -998041.29046  22475092.877    22475114.005
       224.000         174.000
  20603925.227      612751.08149    473899.30648  20603924.670    20603938.525
       247.000         215.000
  22274344.664    -1871025.31449  -1447035.59446  22274343.423    22274359.304
       231.000         185.000
  20800977.899     -887643.40449   -687030.91747  20800976.514    20800991.554
       242.000         207.000
  23799199.768    -2102459.65549  -1202066.59845  23799198.758    23799221.941
       212.000         156.000
 02  3 20 20 57  0.0000000  0  7G30G24G23G 5G 6G10G17
  20266592.966     -959452.11849   -733968.35748  20266592.860    20266605.528
       245.000         214.000
  22981167.243     1764246.50849   1362015.10046  22981167.729    22981185.615
       226.000         173.000
  22457792.255    -1722001.89749  -1068889.18646  22457790.865    22457811.434
       225.000         175.000
  20612270.908      656607.61649    508073.17248  20612270.262    20612284.126
       246.000         215.000
  22263212.604    -1929524.76449  -1492619.46346  22263211.799    22263226.902
       231.000         185.000
  20798619.971     -900034.20549   -696686.00447  20798618.556    20798633.717
       243.000         207.000
  23785166.400    -2176204.33149  -1259529.65745  23785164.423    23785188.269
       214.000         155.000
 02  3 20 20 57 30.0000000  0  7G30G24G23G 5G 6G10G17
  20263748.533     -974399.78049   -745615.86648  20263748.459    20263761.146
       246.000         214.000
  22996299.209     1843765.32349   1423977.66746  22996300.113    22996317.414
       227.000         173.000
  22440536.703    -1812678.94649  -1139546.28646  22440535.231    22440555.922
       225.000         175.000
  20620712.805      700969.75349    542641.00748  20620712.118    20620726.135
       246.000         215.000
  22252087.106    -1987989.35349  -1538176.17046  22252086.531    22252102.465
       231.000         186.000
  20796380.162     -911804.14449   -705857.30247  20796378.837    20796393.842
       243.000         207.000
  23771172.980    -2249738.72149  -1316828.86045  23771170.831    23771194.752
       216.000         156.000
 02  3 20 20 58  0.0000000  0  7G30G24G23G 5G 6G10G17
  20261012.314     -988778.78749   -756820.26448  20261012.163    20261024.697
       246.000         214.000
  23011435.927     1923308.28349   1485959.03546  23011435.735    23011453.043
       226.000         172.000
  22423328.259    -1903108.68749  -1210010.68546  22423326.484    22423347.142
       225.000         175.000
  20629250.594      745835.77849    577601.48048  20629249.937    20629263.856
       246.000         215.000
  22240968.285    -2046418.78249  -1583705.46846  22240967.409    22240982.999
       231.000         186.000
  20794258.602     -922952.82849   -714544.50347  20794257.295    20794272.277
       243.000         207.000
  23757219.649    -2323062.80049  -1373964.19745  23757218.100    23757241.320
       216.000         155.000
 02  3 20 20 58 30.0000000  0  7G30G24G23G 5G 6G10G17
  20258384.480    -1002588.24449   -767580.86048  20258384.392    20258396.962
       245.000         214.000
  23026576.919     2002873.87349   1547958.03546  23026577.502    23026594.734
       225.000         172.000
  22406167.457    -1993288.15049  -1280280.06246  22406165.674    22406186.104
       225.000         176.000
  20637884.060      791204.55349    612953.70748  20637883.301    20637897.365
       246.000         214.000
  22229856.306    -2104812.24349  -1629206.73446  22229854.792    22229871.126
       231.000         186.000
  20792255.364     -933479.65649   -722747.14447  20792253.812    20792268.612
       243.000         207.000
  23743306.431    -2396176.25849  -1430935.39945  23743304.702    23743327.856
       217.000         156.000
 02  3 20 20 59  0.0000000  0  7G30G24G23G 5G 6G10G17
  20255865.207    -1015827.11049   -777896.84248  20255865.236    20255877.739
       245.000         214.000
  23041721.913     2082460.54949   1609973.46846  23041721.398    23041740.466
       223.000         171.000
  22389054.832    -2083214.50649  -1350352.21746  22389053.371    22389073.186
       225.000         176.000
  20646612.958      837074.93949    648696.79648  20646612.118    20646626.286
       245.000         214.000
  22218751.324    -2163168.65249  -1674679.13046  22218750.359    22218766.164
       231.000         186.000
  20790370.571     -943384.05649   -730464.77447  20790369.347    20790384.071
       243.000         207.000
  23729433.439    -2469078.34949  -1487741.91345  23729431.746    23729454.523
       216.000         156.000
 02  3 20 20 59 30.0000000  0  7G30G24G23G 5G 6G10G17
  20253454.646    -1028494.77549   -787767.73048  20253454.485    20253467.143
       245.000         214.000
  23056870.604     2162066.91749   1672004.23946  23056869.671    23056888.304
       223.000         170.000
  22371990.827    -2172885.15449  -1420225.10846  22371989.064    22372009.567
       225.000         176.000
  20655437.010      883445.41949    684829.57048  20655436.089    20655450.290
       245.000         214.000
  22207653.498    -2221487.54849  -1720122.30346  22207652.702    22207668.411
       233.000         187.000
  20788604.283     -952665.75449   -737697.17947  20788603.000    20788617.701
       243.000         207.000
  23715600.646    -2541768.82149  -1544383.53545  23715599.352    23715622.365
       216.000         156.000
 02  3 20 21  0  0.0000000  0  7G30G24G23G 5G 6G10G17
  20251152.946    -1040590.24449   -797192.75748  20251153.068    20251165.284
       246.000         214.000
  23072022.668     2241691.49349   1734049.20846  23072023.041    23072040.416
       224.000         169.000
  22354976.023    -2262297.18149  -1489896.48746  22354974.403    22354994.604
       227.000         177.000
  20664356.084      930315.22149    721351.42448  20664355.305    20664369.418
       245.000         213.000
  22196563.094    -2279767.82749  -1765535.38746  22196562.000    22196577.916
       233.000         187.000
  20786956.632     -961323.95849   -744443.75247  20786955.370    20786969.887
       242.000         207.000
  23701808.223    -2614247.16249  -1600859.83945  23701806.321    23701830.073
       215.000         156.000
 02  3 20 21  0 30.0000000  0  7G30G24G23G 5G 6G10G17
  20248960.405    -1052112.38149   -806171.02848  20248960.147    20248972.910
       246.000         215.000
  23087178.067     2321333.03149   1796107.38146  23087177.819    23087195.867
       224.000         169.000
  22338011.040    -2351447.51749  -1559363.95246  22338009.688    22338029.911
       227.000         177.000
  20673369.988      977683.28449    758261.53248  20673369.284    20673383.410
       246.000         213.000
  22185480.157    -2338008.46449  -1810917.57246  22185479.182    22185495.338
       232.000         187.000
  20785427.798     -969357.85549   -750703.84747  20785426.639    20785441.052
       242.000         207.000
  23688056.364    -2686512.63349  -1657170.27145  23688053.702    23688077.583
       219.000         156.000
 02  3 20 21  1  0.0000000  0  7G30G24G23G 5G 6G10G17
  20246876.923    -1063061.07249   -814702.46248  20246876.799    20246889.384
       246.000         215.000
  23102336.306     2400989.41849   1858177.13646  23102336.046    23102353.410
       223.000         169.000
  22321096.258    -2440334.04849  -1628625.85046  22321094.618    22321114.741
       227.000         178.000
  20682478.324     1025547.51449    795558.26148  20682477.699    20682491.623
       246.000         213.000
  22174404.805    -2396209.31649  -1856268.76547  22174403.740    22174419.609
       232.000         188.000
  20784017.705     -976767.61049   -756477.59347  20784016.535    20784030.980
       243.000         207.000
  23674344.994    -2758565.59649  -1713315.14645  23674343.113    23674365.630
       214.000         155.000
 02  3 20 21  1 30.0000000  0  7G30G24G23G 5G 6G10G17
  20244902.736    -1073435.45249   -822786.37948  20244902.516    20244915.201
       245.000         215.000
  23117497.171     2480659.61349   1920257.64446  23117497.210    23117516.398
       224.000         169.000
  22304232.344    -2528953.46249  -1697679.60846  22304231.322    22304250.555
       227.000         178.000
  20691680.894     1073907.09049    833240.98048  20691680.008    20691694.292
       246.000         213.000
  22163337.350    -2454369.04849  -1901587.91747  22163336.721    22163352.078
       232.000         188.000
  20782726.514     -983552.53149   -761764.45947  20782725.089    20782739.797
       243.000         207.000
  23660674.144    -2830405.18449  -1769293.72845  23660671.378    23660694.930
       215.000         155.000
 02  3 20 21  2  0.0000000  0  7G30G24G23G 5G 6G10G17
  20243037.906    -1083235.17749   -830422.51748  20243037.837    20243050.391
       245.000         215.000
  23132660.262     2560341.10449   1982346.95446  23132659.963    23132678.548
       223.000         169.000
  22287419.575    -2617303.84849  -1766523.73346  22287417.762    22287437.598
       227.000         178.000
  20700977.331     1122759.79149    871307.94448  20700976.482    20700990.839
       247.000         213.000
  22152277.689    -2512487.68149  -1946875.04447  22152276.538    22152292.554
       232.000         188.000
  20781554.194     -989712.81549   -766564.59747  20781553.110    20781567.616
       243.000         207.000
  23647043.827    -2902031.76249  -1825106.34545  23647041.854    23647065.063
       217.000         156.000
 02  3 20 21  2 30.0000000  0  7G30G24G23G 5G 6G10G17
  20241282.664    -1092458.91449   -837609.83748  20241282.612    20241295.243
       245.000         215.000
  23147825.324     2640033.33749   2044444.62846  23147825.654    23147843.589
       224.000         170.000
  22270658.707    -2705381.74549  -1835155.53446  22270656.755    22270676.902
       227.000         179.000
  20710367.503     1172105.15249    909758.80348  20710366.881    20710380.949
       246.000         213.000
  22141226.098    -2570563.63449  -1992128.92647  22141225.379    22141240.754
       232.000         188.000
  20780500.960     -995247.61849   -770877.35247  20780499.759    20780514.117
       243.000         207.000
  23633454.281    -2973444.18549  -1880752.08645  23633452.591    23633474.882
       217.000         157.000
 02  3 20 21  3  0.0000000  0  7G30G24G23G 5G 6G10G17
  20239637.268    -1101105.56849   -844347.48448  20239637.261    20239649.770
       245.000         215.000
  23162992.242     2719735.39649   2106549.95146  23162992.064    23163010.561
       223.000         170.000
  22253950.271    -2793183.88949  -1903572.46146  22253948.992    22253968.792
       228.000         179.000
  20719851.249     1221942.12749    948592.73647  20719850.576    20719864.644
       246.000         212.000
  22130182.926    -2628595.56549  -2037348.50347  22130182.284    22130197.464
       233.000         188.000
  20779566.817    -1000156.48249   -774702.35947  20779565.456    20779580.064
       242.000         207.000
  23619905.563    -3044641.74549  -1936230.39845  23619903.831    23619925.569
       215.000         157.000
 02  3 20 21  3 30.0000000  0  7G30G24G23G 5G 6G10G17
  20238101.669    -1109175.17449   -850635.47948  20238101.724    20238114.195
       246.000         215.000
  23178160.768     2799445.36249   2168661.45846  23178160.453    23178179.318
       223.000         169.000
  22237294.697    -2880708.16749  -1971772.87146  22237292.912    22237312.597
       228.000         180.000
  20729428.163     1272268.90949    987808.34247  20729427.446    20729441.579
       245.000         212.000
  22119148.142    -2686583.37649  -2082533.70147  22119147.313    22119163.081
       232.000         189.000
  20778751.742    -1004439.33149   -778039.56947  20778750.440    20778764.923
       243.000         207.000
  23606397.658    -3115624.75649  -1991541.54745  23606396.052    23606418.237
       215.000         157.000
 02  3 20 21  4  0.0000000  0  7G30G24G23G 5G 6G10G17
  20236676.062    -1116667.10249   -856473.33448  20236675.911    20236688.460
       245.000         215.000
  23193330.314     2879161.04749   2230777.39846  23193329.352    23193347.220
       222.000         169.000
  22220692.554    -2967951.87649  -2039754.65346  22220690.526    22220710.386
       228.000         180.000
  20739097.980     1323083.90349   1027404.36547  20739097.342    20739111.406
       246.000         212.000
  22108121.925    -2744526.01749  -2127683.69947  22108121.126    22108136.637
       232.000         188.000
  20778055.872    -1008095.98949   -780888.83647  20778054.622    20778068.844
       242.000         207.000
  23592930.751    -3186392.65249  -2046685.07145  23592928.775    23592951.725
       214.000         157.000
 02  3 20 21  4 30.0000000  0  7G30G24G23G 5G 6G10G17
  20235360.476    -1123580.59249   -861860.46248  20235360.481    20235372.754
       246.000         214.000
  23208500.742     2958881.74349   2292897.25746  23208500.380    23208519.489
       224.000         169.000
  22204144.317    -3054912.19949  -2107515.61946  22204143.391    22204162.212
       229.000         181.000
  20748860.464     1374385.76549   1067379.76847  20748859.813    20748873.975
       246.000         212.000
  22097104.475    -2802422.52849  -2172797.74847  22097103.873    22097119.061
       233.000         189.000
  20777479.196    -1011126.27749   -783250.02847  20777477.642    20777492.250
       242.000         207.000
  23579504.875    -3256945.17849  -2101660.77645  23579503.320    23579525.280
       216.000         157.000
 02  3 20 21  5  0.0000000  0  7G30G24G23G 5G 6G10G17
  20234155.072    -1129915.01349   -866796.36148  20234155.046    20234167.510
       245.000         214.000
  23223671.898     3038605.99349   2355019.86346  23223671.677    23223690.585
       222.000         168.000
  22187650.488    -3141586.52349  -2175053.72846  22187648.810    22187668.280
       228.000         181.000
  20758715.326     1426172.88349   1107733.29047  20758714.681    20758728.988
       246.000         212.000
  22086096.052    -2860271.98749  -2217875.13247  22086094.655    22086110.692
       232.000         189.000
  20777021.695    -1013529.92849   -785122.93447  20777020.188    20777034.893
       242.000         207.000
  23566119.969    -3327282.11249  -2156468.50245  23566118.096    23566140.919
       213.000         157.000
 02  3 20 21  5 30.0000000  0  7G30G24G23G 5G 6G10G17
  20233059.898    -1135670.08449   -871280.82048  20233059.844    20233072.421
       245.000         214.000
  23238843.431     3118332.41049   2417144.19046  23238843.094    23238862.834
       222.000         167.000
  22171211.639    -3227971.97049  -2242366.74546  22171209.781    22171229.722
       228.000         182.000
  20768662.239     1478443.90049   1148463.87647  20768661.615    20768675.608
       246.000         212.000
  22075096.740    -2918073.50849  -2262915.16547  22075095.569    22075111.348
       233.000         189.000
  20776683.582    -1015306.53449   -786507.23447  20776682.322    20776696.856
       242.000         207.000
  23552776.192    -3397402.92849  -2211107.82345  23552774.424    23552796.888
       217.000         158.000
 02  3 20 21  6  0.0000000  0  7G30G24G23G 5G 6G10G17
  20232075.134    -1140845.21249   -875313.37948  20232075.026    20232087.457
       246.000         214.000
  23254015.029     3198058.91349   2479268.55746  23254014.481    23254032.562
       223.000         168.000
  22154828.225    -3314066.05449  -2309452.73246  22154826.783    22154845.343
       228.000         182.000
  20778700.938     1531197.23149   1189570.29047  20778700.285    20778714.449
       246.000         212.000
  22064106.637    -2975826.46849  -2307917.36347  22064105.927    22064120.852
       233.000         189.000
  20776464.748    -1016456.18249   -787403.00247  20776463.354    20776477.877
       242.000         207.000
  23539473.587    -3467307.65749  -2265578.76845  23539472.033    23539493.829
       215.000         159.000
 02  3 20 21  6 30.0000000  0  7G30G24G23G 5G 6G10G17
  20231200.839    -1145439.70849   -878893.49748  20231200.771    20231213.085
       245.000         214.000
  23269186.519     3277784.75149   2541392.41846  23269186.318    23269204.964
       223.000         167.000
  22138500.817    -3399865.84449  -2376309.38946  22138499.156    22138517.725
       229.000         183.000
  20788831.164     1584431.55549   1231051.50947  20788830.422    20788844.887
       246.000         212.000
  22053125.935    -3033529.64649  -2352880.77047  22053125.309    22053140.442
       233.000         189.000
  20776365.290    -1016978.65549   -787810.05947  20776364.032    20776378.397
       243.000         207.000
  23526212.212    -3536995.69649  -2319880.86145  23526210.983    23526232.689
       216.000         160.000
 02  3 20 21  7  0.0000000  0  7G30G24G23G 5G 6G10G17
  20230437.072    -1149453.30949   -882020.97348  20230436.900    20230449.360
       245.000         214.000
  23284357.549     3357508.15749   2603514.38846  23284356.565    23284377.081
       223.000         166.000
  22122229.929    -3485369.01849  -2442934.92646  22122228.070    22122247.141
       229.000         183.000
  20799052.584     1638145.13549   1272906.17147  20799051.846    20799066.289
       245.000         211.000
  22042154.981    -3091182.31549  -2397804.81047  22042154.044    22042169.493
       233.000         190.000
  20776385.092    -1016874.34249   -787728.71547  20776383.969    20776398.382
       242.000         207.000
  23512992.077    -3606466.97749  -2374014.05945  23512990.226    23513012.344
       217.000         160.000
 02  3 20 21  7 30.0000000  0  7G30G24G23G 5G 6G10G17
  20229783.933    -1152885.46649   -884695.37248  20229783.802    20229796.259
       245.000         214.000
  23299527.806     3437227.79949   2665633.42246  23299527.833    23299546.590
       223.000         166.000
  22106016.014    -3570572.67249  -2509327.06746  22106014.455    22106033.415
       230.000         183.000
  20809364.940     1692336.58549   1315133.20047  20809364.047    20809378.430
       245.000         211.000
  22031193.778    -3148783.53549  -2442688.75847  22031192.853    22031208.018
       235.000         190.000
  20776524.240    -1016142.95949   -787158.75047  20776522.863    20776537.257
       243.000         207.000
  23499813.224    -3675721.15649  -2427978.07345  23499812.488    23499833.873
       217.000         160.000
 02  3 20 21  8  0.0000000  0  7G30G24G23G 5G 6G10G17
  20229241.550    -1155735.67049   -886916.31048  20229241.478    20229253.691
       245.000         213.000
  23314697.387     3516943.12249   2727749.08446  23314696.761    23314716.553
       221.000         166.000
  22089859.585    -3655474.06749  -2575483.69846  22089857.860    22089876.398
       230.000         183.000
  20819767.968     1747004.54949   1357731.53447  20819767.295    20819781.515
       245.000         211.000
  22020242.585    -3206332.09549  -2487531.67947  22020241.614    22020256.808
       235.000         191.000
  20776782.765    -1014784.21649   -786099.93747  20776781.523    20776795.757
       242.000         207.000
  23486675.827    -3744757.84749  -2481772.61545  23486675.163    23486695.512
       218.000         160.000
 02  3 20 21  8 30.0000000  0  7G30G24G23G 5G 6G10G17
  20228809.924    -1158003.83149   -888683.70548  20228810.016    20228822.252
       245.000         213.000
  23329865.502     3596651.62549   2789859.43846  23329864.821    23329883.986
       221.000         165.000
  22073761.131    -3740070.71749  -2641402.85746  22073759.214    22073777.811
       229.000         184.000
  20830261.274     1802146.98049   1400699.58347  20830260.601    20830274.742
       245.000         210.000
  22009301.531    -3263827.26949  -2532332.99747  22009300.988    22009315.418
       233.000         191.000
  20777160.614    -1012798.50649   -784552.57847  20777159.442    20777173.653
       242.000         207.000
  23473579.752    -3813576.88549  -2535397.55345  23473578.700    23473599.500
       218.000         161.000
 02  3 20 21  9  0.0000000  0  7G30G24G23G 5G 6G10G17
  20228489.243    -1159689.07349   -889996.87948  20228489.148    20228501.581
       245.000         214.000
  23345032.169     3676352.71949   2851964.01846  23345032.820    23345050.570
       220.000         164.000
  22057721.252    -3824359.49949  -2707082.12546  22057719.329    22057738.685
       230.000         184.000
  20840844.633     1857762.54049   1444036.30347  20840843.994    20840858.050
       245.000         210.000
  21998370.821    -3321267.79249  -2577091.72447  21998369.985    21998385.036
       235.000         191.000
  20777657.789    -1010185.48449   -782516.40447  20777656.558    20777670.892
       242.000         207.000
  23460525.185    -3882177.85249  -2588852.56645  23460524.207    23460544.857
       216.000         161.000
 02  3 20 21  9 30.0000000  0  7G30G24G23G 5G 6G10G17
  20228279.605    -1160790.70449   -890855.28748  20228279.474    20228291.966
       245.000         214.000
  23360197.276     3756045.52149   2914062.15346  23360198.211    23360215.758
       222.000         164.000
  22041740.535    -3908337.43049  -2772519.17446  22041739.042    22041757.374
       230.000         184.000
  20851517.868     1913850.23349   1487740.91647  20851517.085    20851531.467
       245.000         210.000
  21987450.861    -3378652.34849  -2621806.84547  21987449.985    21987465.280
       233.000         191.000
  20778274.461    -1006944.77249   -779991.12147  20778273.231    20778287.540
       242.000         207.000
  23447512.231    -3950560.05249  -2642137.11145  23447511.266    23447531.914
       216.000         161.000
 02  3 20 21 10  0.0000000  0  7G30G24G23G 5G 6G10G17
  20228180.874    -1161309.56249   -891259.59648  20228180.932    20228193.255
       246.000         214.000
  23375360.482     3835727.56849   2976151.87946  23375360.245    23375379.288
       221.000         164.000
  22025819.304    -3992003.17949  -2837712.97146  22025818.083    22025836.462
       230.000         185.000
  20862280.332     1970407.06249   1531811.08747  20862279.814    20862294.055
       245.000         210.000
  21976541.446    -3435981.15649  -2666478.52847  21976540.598    21976555.864
       233.000         191.000
  20779010.312    -1003077.75949   -776977.81847  20779009.131    20779023.581
       243.000         207.000
  23434540.776    -4018724.37349  -2695251.88245  23434540.115    23434561.144
       216.000         161.000
 02  3 20 21 10 30.0000000  0  7G30G24G23G 5G 6G10G17
  20228193.177    -1161244.98749   -891209.27348  20228193.313    20228205.538
       246.000         214.000
  23390521.408     3915398.00949   3038232.59346  23390519.910    23390541.493
       219.000         164.000
  22009958.003    -4075353.69749  -2902661.12046  22009956.304    22009974.489
       230.000         185.000
  20873131.803     2027431.73449   1576245.81547  20873131.042    20873145.525
       245.000         210.000
  21965642.879    -3493252.77449  -2711105.64247  21965642.002    21965657.047
       235.000         191.000
  20779865.400     -998584.12249   -773476.23347  20779864.109    20779878.557
       242.000         207.000
  23421611.016    -4086670.29549  -2748196.46045  23421609.677    23421630.883
       218.000         162.000
 02  3 20 21 11  0.0000000  0  7G30G24G23G 5G 6G10G17
  20228316.654    -1160596.27049   -890703.77648  20228316.618    20228328.992
       245.000         214.000
  23405679.786     3995055.15949   3100302.94146  23405679.875    23405697.828
       222.000         164.000
  21994157.285    -4158385.77849  -2967361.15046  21994155.803    21994173.899
       230.000         185.000
  20884072.137     2084923.19849   1621044.27947  20884071.608    20884085.967
       244.000         209.000
  21954755.637    -3550465.67449  -2755687.01747  21954754.919    21954770.060
       234.000         192.000
  20780839.770     -993463.58049   -769486.15147  20780838.435    20780853.037
       242.000         207.000
  23408722.800    -4154397.19849  -2800970.38946  23408721.180    23408743.091
       218.000         163.000
 02  3 20 21 11 30.0000000  0  7G30G24G23G 5G 6G10G17
  20228551.312    -1159363.17249   -889742.92048  20228551.265    20228563.811
       246.000         214.000
  23420835.405     4074698.12949   3162362.22346  23420834.893    23420854.876
       221.000         165.000
  21978417.646    -4241096.91649  -3031811.09046  21978415.530    21978434.161
       230.000         185.000
  20895100.949     2142879.72449   1666205.12447  20895100.073    20895114.521
       244.000         209.000
  21943879.632    -3607618.96149  -2800221.93447  21943879.079    21943893.749
       235.000         192.000
  20781933.350     -987716.44649   -765007.81947  20781931.958    20781946.282
       242.000         207.000
  23395876.331    -4221904.76049  -2853573.39146  23395875.043    23395895.459
       218.000         163.000
 02  3 20 21 12  0.0000000  0  7G30G24G23G 5G 6G10G17
  20228897.199    -1157545.79149   -888326.78248  20228897.136    20228909.420
       246.000         214.000
  23435988.147     4154325.90249   3224409.67646  23435988.683    23436007.358
       220.000         163.000
  21962739.560    -4323484.75349  -3096009.11346  21962737.973    21962756.457
       230.000         186.000
  20906217.861     2201299.30749   1711726.79847  20906217.187    20906231.694
       244.000         209.000
  21933015.178    -3664711.89749  -2844709.82747  21933014.570    21933028.778
       235.000         192.000
  20783146.129     -981343.28349   -760041.67147  20783144.888    20783159.384
       243.000         207.000
  23383071.560    -4289193.23249  -2906005.67646  23383069.978    23383091.504
       218.000         164.000
 02  3 20 21 12 30.0000000  0  7G30G24G23G 5G 6G10G17
  20229354.238    -1155144.00349   -886455.25548  20229354.110    20229366.433
       245.000         214.000
  23451137.726     4233936.93549   3286444.07846  23451137.645    23451157.103
       220.000         163.000
  21947123.473    -4405546.81349  -3159953.28646  21947121.844    21947140.167
       230.000         186.000
  20917422.590     2260180.12649   1757607.87147  20917421.930    20917436.465
       245.000         209.000
  21922162.404    -3721743.58149  -2889149.99647  21922161.843    21922176.374
       235.000         193.000
  20784477.924     -974344.50449   -754588.03647  20784476.656    20784490.861
       242.000         207.000
  23370308.508    -4356262.38149  -2958267.08646  23370306.553    23370327.881
       219.000         164.000
 02  3 20 21 13  0.0000000  0  7G30G24G23G 5G 6G10G17
  20229922.616    -1152157.22149   -884127.89348  20229922.366    20229934.810
       246.000         214.000
  23466283.941     4313530.02149   3348464.48646  23466284.569    23466303.591
       222.000         163.000
  21931569.914    -4487280.25849  -3223641.40146  21931568.281    21931586.411
       232.000         187.000
  20928714.844     2319520.92849   1803847.37147  20928714.153    20928728.654
       244.000         209.000
  21911321.503    -3778712.62149  -2933541.34947  21911320.838    21911335.521
       236.000         193.000
  20785928.829     -966719.82849   -748646.69247  20785927.472    20785941.856
       242.000         207.000
  23357587.270    -4423111.87249  -3010357.32846  23357585.370    23357606.644
       218.000         165.000
 02  3 20 21 13 30.0000000  0  7G30G24G23G 5G 6G10G17
  20230602.187    -1148586.05649   -881345.16448  20230602.176    20230614.507
       246.000         214.000
  23481426.557     4393103.53549   3410469.65246  23481425.797    23481445.891
       219.000         163.000
  21916079.287    -4568682.93549  -3287071.76747  21916077.495    21916095.793
       232.000         188.000
  20940094.134     2379319.24149   1850443.37447  20940093.375    20940108.036
       244.000         208.000
  21900492.560    -3835618.67649  -2977883.62147  21900491.555    21900506.674
       235.000         193.000
  20787498.616     -958470.21949   -742218.38647  20787497.365    20787511.724
       242.000         207.000
  23344907.775    -4489741.87849  -3062276.54846  23344906.398    23344927.422
       217.000         164.000
 02  3 20 21 14  0.0000000  0  8G30G24G15G23G 5G 6G10G17
  20231391.519    -1144438.16349   -878113.04048  20231391.379    20231403.709
       246.000         214.000
  23496563.705     4472648.19149   3472452.35646  23496563.817    23496582.259
       219.000         163.000
  24744411.375    -4176199.63549  -3241832.23245  24744410.471    24744437.828
       205.000         137.000
  21900650.619    -4649760.04349  -3350248.45547  21900649.246    21900667.278
       232.000         188.000
  20951558.669     2439565.27349   1897388.24447  20951558.008    20951572.404
       244.000         208.000
  21889674.315    -3892468.48849  -3022182.07247  21889673.694    21889688.399
       236.000         193.000
  20789185.782     -949603.84149   -735309.48347  20789184.447    20789198.819
       242.000         207.000
  23332268.585    -4556160.34949  -3114030.95446  23332267.297    23332287.791
       219.000         164.000
 02  3 20 21 14 30.0000000  0  8G30G24G15G23G 5G 6G10G17
  20232290.974    -1139711.59449   -874430.01048  20232290.787    20232303.400
       245.000         214.000
  23511695.212     4552164.84149   3534413.18345  23511696.171    23511714.312
       221.000         162.000
  24728465.076    -4259997.34449  -3307128.94445  24728464.001    24728492.525
       207.000         140.000
  21885284.692    -4730507.53449  -3413168.30247  21885283.204    21885300.871
       232.000         189.000
  20963108.399     2500259.10649   1944682.04347  20963107.723    20963122.126
       244.000         208.000
  21878867.346    -3949259.20949  -3066434.47847  21878866.536    21878881.030
       235.000         193.000
  20790990.556     -940119.32349   -727918.92147  20790989.497    20791003.644
       242.000         207.000
  23319670.047    -4622365.34749  -3165619.02146  23319667.950    23319689.441
       219.000         164.000
 02  3 20 21 15  0.0000000  0  8G30G24G15G23G 5G 6G10G17
  20233303.012    -1134393.14749   -870285.77248  20233303.066    20233315.371
       246.000         213.000
  23526823.684     4631664.78349   3596361.01745  23526824.089    23526843.092
       219.000         160.000
  24712551.768    -4343621.15249  -3372290.15245  24712549.848    24712577.653
       205.000         137.000
  21869984.484    -4810909.47549  -3475818.88147  21869982.606    21870000.584
       232.000         189.000
  20974745.577     2561412.30249   1992333.79347  20974745.156    20974759.441
       243.000         208.000
  21868074.321    -4005976.53949  -3110629.69247  21868073.408    21868088.198
       236.000         193.000
  20792915.455     -930003.93649   -720036.76847  20792914.285    20792928.357
       242.000         207.000
  23307114.644    -4688343.37949  -3217030.20746  23307112.852    23307133.541
       219.000         164.000
 02  3 20 21 15 30.0000000  0  8G30G24G15G23G 5G 6G10G17
  20234427.274    -1128485.37249   -865682.31848  20234427.138    20234439.463
       245.000         213.000
  23541948.314     4711144.62549   3658293.18845  23541947.719    23541967.182
       218.000         160.000
  24696671.085    -4427073.17849  -3437317.46445  24696669.691    24696698.133
       208.000         137.000
  21854750.020    -4890965.97549  -3538200.29247  21854748.413    21854766.453
       233.000         189.000
  20986469.275     2623020.36549   2040339.97947  20986468.570    20986483.096
       244.000         208.000
  21857295.010    -4062621.91549  -3154768.84647  21857294.070    21857309.068
       236.000         194.000
  20794959.803     -919260.71349   -711665.39547  20794958.630    20794972.992
       242.000         207.000
  23294601.997    -4754096.96749  -3268266.53846  23294599.814    23294620.669
       218.000         164.000
 02  3 20 21 16  0.0000000  0  8G30G24G15G23G 5G 6G10G17
  20235663.172    -1121990.75749   -860621.59248  20235663.002    20235675.433
       245.000         213.000
  23557068.487     4790600.93849   3720207.04045  23557068.171    23557088.541
       218.000         161.000
  24680823.117    -4510355.12949  -3502212.32045  24680822.092    24680850.852
       209.000         141.000
  21839581.347    -4970676.95249  -3600312.46647  21839579.963    21839597.447
       233.000         190.000
  20998278.706     2685078.85249   2088697.14047  20998278.025    20998292.529
       243.000         207.000
  21846529.064    -4119196.83749  -3198853.10147  21846528.343    21846542.724
       236.000         194.000
  20797123.086     -907892.58249   -702807.08847  20797121.842    20797136.060
       243.000         207.000
  23282131.575    -4819628.52149  -3319329.86246  23282130.097    23282150.940
       218.000         164.000
 02  3 20 21 16 30.0000000  0  8G30G24G15G23G 5G 6G10G17
  20237010.652    -1114909.60549   -855103.82348  20237010.569    20237023.101
       245.000         213.000
  23572183.748     4870032.03249   3782101.18245  23572184.696    23572203.464
       220.000         160.000
  24665007.402    -4593466.68949  -3566974.33145  24665005.522    24665033.779
       207.000         141.000
  21824478.838    -5050040.14849  -3662153.64447  21824477.529    21824495.085
       233.000         190.000
  21010173.395     2747585.62649   2137403.62047  21010172.530    21010187.277
       243.000         207.000
  21835776.700    -4175700.43449  -3242881.76947  21835775.687    21835790.122
       235.000         194.000
  20799405.169     -895900.20049   -693462.35147  20799403.892    20799418.183
       242.000         207.000
  23269703.405    -4884938.14049  -3370220.24746  23269701.601    23269722.430
       218.000         164.000
 02  3 20 21 17  0.0000000  0  8G30G24G15G23G 5G 6G10G17
  20238469.561    -1107243.00449   -849129.85948  20238469.509    20238481.945
       245.000         213.000
  23587293.952     4949435.47749   3843973.82845  23587292.857    23587312.984
       216.000         159.000
  24649223.910    -4676408.67649  -3631604.26645  24649222.288    24649250.411
       208.000         140.000
  21809442.782    -5129054.15849  -3723722.73247  21809441.138    21809459.053
       233.000         191.000
  21022152.832     2810537.74049   2186457.11547  21022151.997    21022166.930
       243.000         207.000
  21825037.918    -4232132.59249  -3286854.77447  21825036.791    21825051.437
       236.000         194.000
  20801805.674     -883285.17149   -683632.43547  20801804.420    20801818.558
       242.000         207.000
  23257317.258    -4950026.83049  -3420938.49046  23257315.855    23257336.045
       218.000         165.000
 02  3 20 21 17 30.0000000  0  8G30G24G15G23G 5G 6G10G17
  20240039.933    -1098990.49749   -842699.34048  20240039.702    20240052.432
       244.000         213.000
  23602398.659     5028810.82549   3905824.59445  23602398.919    23602418.775
       218.000         160.000
  24633472.782    -4759180.03349  -3696101.24245  24633472.992    24633499.172
       209.000         140.000
  21794473.741    -5207716.04649  -3785017.44447  21794471.871    21794489.498
       234.000         191.000
  21034216.741     2873933.77349   2235856.52347  21034216.035    21034230.839
       242.000         207.000
  21814313.041    -4288491.85149  -3330770.97647  21814312.376    21814326.747
       235.000         194.000
  20804324.639     -870047.83449   -673317.60447  20804323.517    20804337.763
       242.000         207.000
  23244973.234    -5014894.03549  -3471484.13546  23244971.631    23244991.953
       219.000         165.000
 02  3 20 21 18  0.0000000  0  8G30G24G15G23G 5G 6G10G17
  20241721.673    -1090152.87549   -835812.89348  20241721.628    20241734.095
       244.000         213.000
  23617497.641     5108156.45049   3967652.14645  23617497.787    23617517.645
       220.000         159.000
  24617754.269    -4841780.84249  -3760465.28645  24617752.804    24617782.236
       208.000         142.000
  21779572.057    -5286023.91149  -3846036.29947  21779570.837    21779587.592
       234.000         191.000
  21046364.691     2937771.24549   2285599.90747  21046363.955    21046378.623
       242.000         207.000
  21803602.140    -4344777.54749  -3374629.86047  21803601.091    21803615.891
       236.000         194.000
  20806961.835     -856189.06449   -662518.54647  20806960.641    20806974.992
       242.000         207.000
  23232671.216    -5079540.29149  -3521857.63546  23232669.917    23232690.155
       218.000         165.000
 02  3 20 21 18 30.0000000  0  8G30G24G15G23G 5G 6G10G17
  20243514.690    -1080730.51449   -828470.81048  20243514.776    20243527.086
       245.000         213.000
  23632590.892     5187470.71849   4029455.29345  23632590.808    23632609.688
       216.000         157.000
  24602068.235    -4924210.70449  -3824696.13845  24602065.265    24602095.086
       207.000         139.000
  21764738.186    -5363975.54549  -3906777.57147  21764736.626    21764753.620
       234.000         191.000
  21058596.179     3002047.81849   2335685.44347  21058595.458    21058610.211
       242.000         206.000
  21792905.409    -4400988.89549  -3418430.81547  21792904.376    21792919.133
       236.000         195.000
  20809717.152     -841709.79549   -651235.98347  20809716.063    20809730.205
       242.000         207.000
  23220411.292    -5143965.85249  -3572059.16146  23220409.875    23220430.129
       219.000         166.000
 02  3 20 21 19  0.0000000  0  8G30G24G15G23G 5G 6G10G17
  20245419.036    -1070723.21249   -820672.92448  20245419.088    20245431.482
       245.000         213.000
  23647677.927     5266752.63449   4091233.23045  23647676.904    23647697.276
       217.000         159.000
  24586414.885    -5006468.72649  -3888793.06645  24586412.921    24586441.387
       208.000         139.000
  21749972.611    -5441568.25449  -3967239.16347  21749971.158    21749988.213
       234.000         192.000
  21070910.980     3066762.00149   2386111.97647  21070910.422    21070925.179
       242.000         206.000
  21782223.029    -4457124.58349  -3462172.80347  21782222.141    21782236.993
       237.000         195.000
  20812590.497     -826610.41849   -639470.21447  20812589.454    20812603.574
       242.000         207.000
  23208193.372    -5208170.31749  -3622088.40546  23208191.863    23208212.159
       219.000         166.000
 02  3 20 21 19 30.0000000  0  8G30G24G15G23G 5G 6G10G17
  20247434.670    -1060131.05949   -812419.31848  20247434.713    20247447.059
       245.000         213.000
  23662758.535     5346001.44149   4152985.36145  23662759.223    23662778.084
       219.000         158.000
  24570794.419    -5088554.53849  -3952755.84845  24570793.644    24570820.882
       205.000         138.000
  21735275.769    -5518799.54649  -4027419.14147  21735274.343    21735291.458
       234.000         192.000
  21083308.736     3131911.89249   2436878.01647  21083308.189    21083322.793
       242.000         206.000
  21771555.334    -4513183.27849  -3505854.80247  21771554.506    21771569.159
       236.000         195.000
  20815581.721     -810891.53349   -627221.71347  20815580.364    20815594.681
       242.000         207.000
  23196017.649    -5272153.41749  -3671945.17446  23196017.171    23196036.179
       220.000         166.000
 02  3 20 21 20  0.0000000  0  8G30G24G15G23G 5G 6G10G17
  20249561.572    -1048954.30049   -803710.17548  20249561.590    20249573.938
       245.000         213.000
  23677832.672     5425215.53249   4214710.44545  23677832.128    23677852.510
       218.000         157.000
  24555206.604    -5170467.82949  -4016584.12045  24555203.746    24555232.836
       205.000         137.000
  21720648.152    -5595666.98949  -4087315.59547  21720646.749    21720663.568
       234.000         192.000
  21095788.984     3197495.42149   2487981.95947  21095788.520    21095803.075
       243.000         206.000
  21760902.396    -4569164.14649  -3549476.17247  21760901.561    21760916.014
       236.000         195.000
  20818690.658     -794553.76849   -614490.97247  20818689.391    20818703.705
       242.000         207.000
  23183884.040    -5335915.43149  -3721629.65046  23183882.142    23183903.063
       220.000         166.000
 02  3 20 21 20 30.0000000  0  8G30G24G15G23G 5G 6G10G17
  20251799.659    -1037193.22649   -794545.72348  20251799.691    20251811.989
       245.000         213.000
  23692900.033     5504393.81549   4276407.63445  23692899.157    23692921.299
       216.000         157.000
  24539651.836    -5252207.88749  -4080277.43845  24539650.274    24539677.612
       205.000         138.000
  21706090.254    -5672168.06349  -4146926.56747  21706088.318    21706105.551
       234.000         192.000
  21108351.324     3263510.51749   2539422.18247  21108350.723    21108365.567
       242.000         206.000
  21750264.581    -4625065.84249  -3593035.84147  21750263.666    21750278.325
       236.000         195.000
  20821917.281     -777597.74549   -601278.47247  20821915.908    20821930.417
       242.000         207.000
  23171792.513    -5399456.03949  -3771141.61446  23171790.733    23171811.493
       219.000         166.000
 02  3 20 21 21  0.0000000  0  8G30G24G15G23G 5G 6G10G17
  20254148.857    -1024848.20149   -784926.24548  20254148.924    20254161.424
       245.000         213.000
  23707960.256     5583535.21449   4338076.06745  23707960.700    23707979.309
       219.000         157.000
  24524130.092    -5333774.31749  -4143835.45745  24524127.830    24524155.959
       205.000         137.000
  21691602.522    -5748300.46549  -4206250.27647  21691600.607    21691618.215
       234.000         192.000
  21120995.413     3329955.04149   2591197.02847  21120994.889    21121009.580
       242.000         206.000
  21739642.107    -4680887.14249  -3636532.86847  21739641.180    21739655.484
       236.000         195.000
  20825261.346     -760024.51949   -587585.03747  20825259.973    20825274.417
       242.000         207.000
  23159743.080    -5462775.38149  -3820481.16246  23159742.104    23159762.588
       219.000         166.000
 02  3 20 21 21 30.0000000  0  8G30G24G15G23G 5G 6G10G17
  20256609.222    -1011919.20049   -774851.71648  20256609.261    20256621.761
       245.000         213.000
  23723013.299     5662639.13849   4399715.30245  23723012.021    23723034.246
       216.000         157.000
  24508641.425    -5415166.52349  -4207257.66245  24508639.562    24508668.230
       204.000         136.000
  21677185.470    -5824061.56949  -4265284.65947  21677184.188    21677201.140
       234.000         192.000
  21133720.859     3396827.28449   2643305.16047  21133720.390    21133735.172
       242.000         206.000
  21729035.104    -4736626.61649  -3679966.13347  21729034.253    21729049.016
       235.000         195.000
  20828722.700     -741834.66449   -573411.11047  20828721.406    20828735.625
       242.000         207.000
  23147735.790    -5525873.28049  -3869648.14446  23147734.397    23147754.703
       219.000         167.000
 02  3 20 21 22  0.0000000  0  8G30G24G15G23G 5G 6G10G17
  20259180.605     -998406.52449   -764322.37948  20259180.581    20259193.043
       245.000         213.000
  23738059.072     5741704.64849   4461324.61545  23738059.174    23738079.329
       220.000         158.000
  24493185.997    -5496384.01849  -4270543.73745  24493184.871    24493211.846
       206.000         136.000
  21662839.485    -5899449.11949  -4324027.96047  21662837.650    21662855.029
       235.000         192.000
  21146527.309     3464125.39049   2695745.12947  21146526.684    21146541.653
       241.000         205.000
  21718443.947    -4792283.17049  -3723334.79547  21718443.155    21718457.907
       235.000         195.000
  20832301.270     -723029.02449   -558757.35447  20832300.179    20832314.390
       242.000         207.000
  23135770.642    -5588749.74949  -3918642.59846  23135768.930    23135789.434
       220.000         167.000
 02  3 20 21 22 30.0000000  0  8G30G24G15G23G 5G 6G10G17
  20261862.926     -984311.03349   -753338.90448  20261862.974    20261875.428
       245.000         213.000
  23753097.239     5820729.94649   4522902.58145  23753097.513    23753117.783
       219.000         158.000
  24477763.863    -5577426.80349  -4333693.69045  24477760.819    24477790.826
       200.000         135.000
  21648564.975    -5974461.19249  -4382478.69247  21648563.421    21648580.363
       234.000         193.000
  21159414.370     3531846.74149   2748514.89947  21159413.623    21159428.752
       242.000         205.000
  21707868.657    -4847856.10649  -3766638.29247  21707867.916    21707882.428
       236.000         195.000
  20835996.812     -703608.82549   -543624.72347  20835995.750    20836009.890
       242.000         207.000
  23123847.595    -5651405.27349  -3967464.88746  23123845.975    23123865.295
       220.000         168.000
 02  3 20 21 23  0.0000000  0  8G30G24G15G23G 5G 6G10G17
  20264656.116     -969632.80149   -741901.33648  20264655.991    20264668.500
       245.000         213.000
  23768127.536     5899714.04649   4584448.43645  23768125.809    23768147.313
       215.000         157.000
  24462375.088    -5658294.09949  -4396706.80645  24462373.911    24462401.422
       205.000         137.000
  21634362.403    -6049095.11249  -4440634.74647  21634360.964    21634377.854
       235.000         193.000
  21172381.527     3599989.31049   2801612.89447  21172380.846    21172395.744
       241.000         205.000
  21697309.599    -4903344.09549  -3809875.59747  21697308.776    21697323.100
       237.000         196.000
  20839809.157     -683574.80049   -528013.77947  20839807.881    20839822.258
       242.000         207.000
  23111966.632    -5713839.64149  -4016114.83646  23111964.870    23111984.452
       220.000         168.000
 02  3 20 21 23 30.0000000  0  8G30G24G15G23G 5G 6G10G17
  20267560.098     -954372.22849   -730010.00347  20267560.200    20267572.432
       245.000         212.000
  23783149.847     5978656.08149   4645961.58645  23783149.158    23783170.346
       216.000         155.000
  24447019.871    -5738985.59149  -4459582.98645  24447017.312    24447044.884
       211.000         139.000
  21620232.248    -6123348.57249  -4498494.35347  21620230.966    21620247.617
       235.000         193.000
  21185428.499     3668551.15449   2855037.58947  21185427.843    21185442.731
       241.000         204.000
  21686766.995    -4958745.70249  -3853045.59647  21686766.424    21686781.006
       237.000         196.000
  20843738.188     -662927.69149   -511925.11547  20843736.991    20843751.492
       242.000         207.000
  23100127.713    -5776052.83349  -4064592.44946  23100126.245    23100146.592
       220.000         168.000
 02  3 20 21 24  0.0000000  0  8G30G24G15G23G 5G 6G10G17
  20270574.906     -938529.32249   -717664.90347  20270575.003    20270587.352
       245.000         212.000
  23798163.770     6057555.09149   4707441.10245  23798165.613    23798184.438
       221.000         155.000
  24431698.164    -5819500.65349  -4522321.63645  24431697.858    24431722.745
       210.000         141.000
  21606175.052    -6197218.84149  -4556055.36647  21606173.877    21606190.453
       235.000         194.000
  21198554.939     3737530.41349   2908787.54447  21198554.316    21198569.518
       241.000         204.000
  21676241.093    -5014059.59849  -3896147.24747  21676240.111    21676254.604
       237.000         197.000
  20847783.785     -641668.14349   -495359.22047  20847782.570    20847796.617
       242.000         207.000
  23088330.888    -5838044.37549  -4112897.33846  23088329.652    23088349.265
       220.000         168.000
 02  3 20 21 24 30.0000000  0  8G30G24G15G23G 5G 6G10G17
  20273700.385     -922105.06349   -704866.80347  20273700.399    20273713.044
       244.000         212.000
  23813169.543     6136409.69849   4768886.08645  23813170.345    23813188.624
       217.000         153.000
  24416410.071    -5899839.12749  -4584922.71945  24416408.712    24416434.196
       212.000         141.000
  21592191.111    -6270704.04049  -4613316.33147  21592189.608    21592205.971
       234.000         194.000
  21211760.297     3806924.65249   2962860.85947  21211759.754    21211774.721
       241.000         204.000
  21665732.036    -5069284.77449  -3939179.77147  21665731.366    21665745.785
       237.000         197.000
  20851945.653     -619797.41349   -478317.08147  20851944.679    20851958.732
       242.000         207.000
  23076576.175    -5899814.91349  -4161030.03546  23076574.910    23076595.060
       219.000         168.000
 02  3 20 21 25  0.0000000  0  8G30G24G15G23G 5G 6G10G17
  20276936.529     -905099.25349   -691615.54447  20276936.539    20276948.838
       245.000         212.000
  23828166.763     6215219.33449   4830296.02845  23828167.343    23828186.980
       219.000         157.000
  24401155.828    -5979999.76649  -4647385.21445  24401155.032    24401181.092
       209.000         142.000
  21578281.017    -6343801.30249  -4670275.01147  21578279.598    21578296.128
       236.000         195.000
  21225044.355     3876732.35949   3017256.35147  21225043.948    21225058.824
       241.000         204.000
  21655240.206    -5124419.32149  -3982141.66647  21655239.500    21655253.991
       237.000         197.000
  20856223.693     -597316.03549   -460799.11047  20856222.687    20856236.571
       243.000         207.000
  23064863.631    -5961363.83949  -4208990.03346  23064862.438    23064881.868
       221.000         169.000
 02  3 20 21 25 30.0000000  0  8G30G24G15G23G 5G 6G10G17
  20280283.105     -887512.93749   -677911.94647  20280283.062    20280295.590
       245.000         212.000
  23843155.102     6293983.03049   4891670.14245  23843155.797    23843174.513
       216.000         155.000
  24385935.281    -6059983.03649  -4709709.47945  24385933.280    24385961.247
       210.000         143.000
  21564445.079    -6416508.81549  -4726929.99247  21564443.936    21564460.447
       236.000         195.000
  21238406.605     3946950.77049   3071971.87447  21238405.997    21238421.197
       242.000         204.000
  21644765.764    -5179462.72749  -4025032.55247  21644764.931    21644779.307
       237.000         197.000
  20860617.679     -574225.51449   -442806.48547  20860616.446    20860630.694
       242.000         207.000
  23053193.232    -6022691.70549  -4256777.77646  23053192.057    23053210.672
       222.000         169.000
 02  3 20 21 26  0.0000000  0  8G30G24G15G23G 5G 6G10G17
  20283740.116     -869346.34649   -663756.18747  20283739.999    20283752.456
       245.000         212.000
  23858134.529     6372699.66549   4953007.60945  23858134.028    23858155.790
       218.000         155.000
  24370748.615    -6139788.29749  -4771895.02445  24370747.443    24370773.536
       210.000         143.000
  21550683.809    -6488824.10449  -4783279.35147  21550682.383    21550699.135
       236.000         195.000
  21251846.640     4017578.00949   3127005.96347  21251846.113    21251861.189
       241.000         203.000
  21634308.908    -5234413.66649  -4067851.38947  21634308.170    21634322.133
       237.000         197.000
  20865127.390     -550526.80449   -424339.94847  20865126.314    20865140.260
       243.000         207.000
  23041564.843    -6083798.48349  -4304393.25046  23041563.857    23041582.732
       221.000         169.000
 02  3 20 21 26 30.0000000  0  8G30G24G15G23G 5G 6G10G17
  20287307.424     -850600.06249   -649148.72147  20287307.439    20287319.936
       245.000         212.000
  23873104.711     6451368.10249   5014307.50745  23873105.003    23873124.826
       218.000         154.000
  24355595.846    -6219415.34149  -4833941.69145  24355593.983    24355621.088
       210.000         144.000
  21536997.595    -6560744.82849  -4839321.25347  21536996.228    21537012.615
       236.000         196.000
  21265364.032     4088611.88649   3182356.90847  21265363.455    21265378.409
       240.000         203.000
  21623869.907    -5289270.64449  -4110597.00047  21623869.067    21623883.560
       238.000         197.000
  20869752.679     -526220.82949   -405400.21947  20869751.692    20869765.530
       242.000         206.000
  23029978.527    -6144684.28749  -4351836.53946  23029976.759    23029996.629
       222.000         169.000
 02  3 20 21 27  0.0000000  0  8G30G24G15G23G 5G 6G10G17
  20290984.940     -831274.64049   -634089.97447  20290985.053    20290997.367
       245.000         212.000
  23888065.580     6529987.52749   5075569.21345  23888065.157    23888085.968
       215.000         153.000
  24340477.122    -6298863.68749  -4895849.12745  24340475.899    24340502.203
       210.000         143.000
  21523386.872    -6632268.68349  -4895053.90947  21523385.081    21523401.731
       236.000         196.000
  21278958.405     4160050.38149   3238023.14547  21278957.754    21278972.874
       240.000         202.000
  21613449.040    -5344032.47149  -4153268.46047  21613448.521    21613462.577
       237.000         198.000
  20874493.314     -501308.61149   -385988.08847  20874492.190    20874506.194
       242.000         206.000
  23018434.309    -6205349.06049  -4399107.59946  23018432.831    23018452.400
       222.000         169.000
 02  3 20 21 27 30.0000000  0  8G30G24G15G23G 5G 6G10G17
  20294772.562     -811370.64749   -618580.39947  20294772.541    20294785.255
       245.000         212.000
  23903017.159     6608557.09749   5136792.11945  23903016.916    23903037.539
       215.000         153.000
  24325392.325    -6378132.97649  -4957617.02345  24325388.604    24325417.612
       207.000         142.000
  21509852.088    -6703393.41849  -4950475.57047  21509850.710    21509866.909
       236.000         196.000
  21292629.393     4231891.36149   3294002.99647  21292628.710    21292643.951
       240.000         202.000
  21603046.492    -5398697.81249  -4195864.73847  21603045.813    21603060.100
       237.000         198.000
  20879349.171     -475791.08749   -366104.29547  20879347.928    20879362.145
       242.000         206.000
  23006932.141    -6265792.82149  -4446206.43646  23006930.124    23006950.628
       222.000         170.000
 02  3 20 21 28  0.0000000  0  8G30G24G15G23G 5G 6G10G17
  20298670.219     -790888.58049   -602620.38147  20298670.233    20298682.728
       245.000         212.000
  23917958.835     6687075.73949   5197975.26345  23917958.362    23917979.817
       216.000         152.000
  24310341.779    -6457222.82349  -5019245.09045  24310339.922    24310366.562
       210.000         142.000
  21496393.659    -6774116.99949  -5005584.65247  21496392.397    21496408.765
       237.000         197.000
  21306376.529     4304132.49049   3350294.65447  21306375.993    21306390.781
       240.000         202.000
  21592662.561    -5453265.36049  -4238384.81647  21592661.811    21592676.081
       238.000         198.000
  20884319.938     -449669.53249   -345749.82947  20884318.847    20884332.841
       243.000         206.000
  22995471.899    -6326015.79449  -4493133.23446  22995470.047    22995489.887
       223.000         170.000
 02  3 20 21 28 30.0000000  0  8G30G24G15G23G 5G 6G10G17
  20302677.720     -769829.12049   -586210.44047  20302677.649    20302690.333
       244.000         212.000
  23932890.882     6765542.63849   5259118.14345  23932889.675    23932911.846
       217.000         153.000
  24295325.485    -6536132.60649  -5080732.86145  24295323.168    24295349.759
       208.000         140.000
  21483012.088    -6844437.17749  -5060379.39047  21483010.681    21483026.946
       237.000         197.000
  21320199.392     4376771.62249   3406896.44047  21320198.494    21320213.801
       239.000         201.000
  21582297.505    -5507733.67449  -4280827.57647  21582296.877    21582310.746
       238.000         198.000
  20889405.434     -422944.94049   -324925.47147  20889404.076    20889418.305
       242.000         206.000
  22984053.869    -6386017.70449  -4539887.78146  22984052.362    22984071.637
       223.000         170.000
 02  3 20 21 29  0.0000000  0  8G30G24G15G23G 5G 6G10G17
  20306794.976     -748193.01949   -569351.17447  20306794.968    20306807.467
       245.000         212.000
  23947812.647     6843956.79649   5320219.91845  23947812.025    23947833.054
       215.000         153.000
  24280343.420    -6614862.32749  -5142080.31745  24280340.620    24280366.584
       206.000         140.000
  21469707.683    -6914351.54949  -5114857.92547  21469706.252    21469722.225
       237.000         198.000
  21334097.536     4449806.46449   3463806.57347  21334096.812    21334111.969
       239.000         201.000
  21571951.587    -5562101.57149  -4323192.08247  21571950.889    21571964.993
       238.000         199.000
  20894605.447     -395618.73749   -303632.33247  20894604.246    20894618.383
       242.000         206.000
  22972677.645    -6445799.11549  -4586470.51346  22972675.807    22972695.961
       222.000         171.000
 02  3 20 21 29 30.0000000  0  8G30G24G15G23G 5G 6G10G17
  20311021.960     -725980.14049   -552042.46947  20311021.922    20311034.348
       244.000         212.000
  23962724.245     6922317.52649   5381280.02345  23962724.241    23962745.423
       216.000         153.000
  24265395.842    -6693410.85249  -5203286.59245  24265394.737    24265420.140
       206.000         138.000
  21456481.011    -6983857.42349  -5169018.14847  21456479.618    21456495.752
       238.000         198.000
  21348070.639     4523235.43549   3521023.81547  21348069.839    21348085.453
       239.000         200.000
  21561625.185    -5616367.07249  -4365476.80547  21561624.598    21561638.469
       238.000         199.000
  20899919.818     -367691.45949   -281870.82047  20899918.757    20899932.659
       242.000         206.000
  22961343.508    -6505359.24749  -4632880.81746  22961341.524    22961360.962
       221.000         171.000
 02  3 20 21 30  0.0000000  0  8G30G24G15G23G 5G 6G10G17
  20315358.466     -703191.92349   -534285.44947  20315358.390    20315370.884
       245.000         212.000
  23977625.507     7000623.71849   5442297.68945  23977625.365    23977645.962
       213.000         152.000
  24250482.676    -6771778.22549  -5264351.69545  24250479.552    24250505.961
       206.000         139.000
  21443332.345    -7052953.28649  -5222858.88447  21443330.931    21443346.840
       237.000         198.000
  21362118.287     4597055.74749   3578545.99947  21362117.634    21362133.154
       239.000         200.000
  21551318.374    -5670529.56749  -4407681.25447  21551317.493    21551331.793
       238.000         199.000
  20905348.300     -339164.68249   -259642.16947  20905347.129    20905361.473
       242.000         206.000
  22950051.341    -6564698.94449  -4679119.36246  22950050.021    22950069.630
       221.000         170.000
 02  3 20 21 30 30.0000000  0  8G30G24G15G23G 5G 6G10G17
  20319804.226     -679829.35349   -516080.88347  20319804.312    20319816.786
       245.000         212.000
  23992516.172     7078874.30749   5503271.98045  23992515.217    23992536.863
       216.000         153.000
  24235604.039    -6849964.45249  -5325275.67145  24235601.212    24235629.147
       209.000         139.000
  21430262.091    -7121637.09449  -5276378.54647  21430260.939    21430276.712
       238.000         199.000
  21376239.955     4671264.99049   3636371.24447  21376239.537    21376254.649
       239.000         200.000
  21541031.324    -5724587.72849  -4449804.40847  21541030.535    21541044.553
       238.000         199.000
  20910890.489     -310040.23249   -236947.80447  20910889.422    20910903.489
       242.000         206.000
  22938801.064    -6623818.49049  -4725186.36346  22938798.720    22938818.754
       220.000         170.000
 02  3 20 21 31  0.0000000  0  8G30G24G15G23G 5G 6G10G17
  20324359.234     -655892.72449   -497429.00347  20324359.209    20324371.619
       244.000         211.000
  24007396.200     7157068.62049   5564202.46845  24007396.585    24007418.003
       217.000         152.000
  24220760.108    -6927968.99249  -5386058.06445  24220757.199    24220783.443
       206.000         139.000
  21417270.793    -7189906.16949  -5329575.04347  21417269.313    21417285.174
       238.000         199.000
  21390435.238     4745861.10249   3694497.93947  21390434.680    21390449.880
       239.000         199.000
  21530764.499    -5778539.91649  -4491844.98647  21530763.782    21530777.892
       238.000         199.000
  20916546.260     -280318.94349   -213788.37347  20916545.277    20916559.192
       242.000         206.000
  22927592.715    -6682717.69649  -4771081.67946  22927591.489    22927610.493
       221.000         170.000
 02  3 20 21 31 30.0000000  0  8G30G24G15G23G 5G 6G10G17
  20329023.232     -631383.47749   -478330.93147  20329023.140    20329035.722
       244.000         211.000
  24022265.282     7235205.16649   5625087.87845  24022264.282    24022286.629
       213.000         154.000
  24205950.445    -7005792.09549  -5446699.07945  24205948.291    24205973.524
       205.000         139.000
  21404358.693    -7257759.03349  -5382447.22747  21404357.522    21404372.997
       238.000         199.000
  21404703.639     4820841.36349   3752923.97447  21404702.913    21404718.402
       239.000         199.000
  21520517.983    -5832385.39849  -4533802.42047  21520517.266    21520531.423
       237.000         199.000
  20922315.346     -250002.33949   -190165.06547  20922314.153    20922328.437
       242.000         206.000
  22916426.277    -6741397.07149  -4816805.69546  22916425.629    22916444.738
       221.000         171.000
 02  3 20 21 32  0.0000000  0  8G30G24G15G23G 5G 6G10G17
  20333796.228     -606301.42149   -458786.51047  20333796.346    20333808.789
       244.000         211.000
  24037123.411     7313284.39249   5685928.68145  24037124.065    24037144.513
       217.000         152.000
  24191175.610    -7083432.47649  -5507197.73445  24191174.608    24191200.501
       207.000         140.000
  21391526.380    -7325192.80849  -5434992.84447  21391525.085    21391540.762
       238.000         199.000
  21419044.852     4896204.39149   3811648.27147  21419044.114    21419059.897
       239.000         199.000
  21510292.170    -5886121.97549  -4575674.98547  21510291.195    21510305.371
       239.000         200.000
  20928197.465     -219091.43949   -166078.66847  20928196.321    20928210.271
       242.000         205.000
  22905301.822    -6799856.24049  -4862358.12346  22905300.660    22905319.405
       223.000         172.000
 02  3 20 21 32 30.0000000  0  8G30G24G15G23G 5G 6G10G17
  20338677.902     -580648.33249   -438797.13547  20338677.986    20338690.503
       244.000         211.000
  24051970.183     7391303.96349   5746722.94445  24051970.567    24051992.299
       215.000         153.000
  24176435.687    -7160890.78749  -5567554.52945  24176433.393    24176458.601
       205.000         141.000
  21378774.039    -7392206.03849  -5487210.76647  21378772.754    21378788.428
       238.000         199.000
  21433458.292     4971946.96849   3870668.31547  21433457.716    21433473.159
       238.000         199.000
  21500087.258    -5939748.97049  -4617462.17347  21500086.590    21500100.740
       239.000         200.000
  20934192.348     -187588.21449   -141530.72847  20934191.151    20934205.438
       242.000         205.000
  22894219.084    -6858095.94049  -4907739.55246  22894218.053    22894236.432
       223.000         172.000
 02  3 20 21 33  0.0000000  0  8G30G24G15G23G 5G 6G10G17
  20343668.120     -554424.75449   -418363.22347  20343668.212    20343680.805
       245.000         211.000
  24066805.705     7469263.59449   5807470.54045  24066806.367    24066825.332
       218.000         153.000
  24161730.251    -7238166.26949  -5627768.83245  24161728.813    24161753.377
       208.000         142.000
  21366102.151    -7458796.48049  -5539099.25347  21366100.856    21366116.736
       239.000         199.000
  21447943.590     5048067.14449   3929982.58747  21447943.028    21447958.479
       239.000         198.000
  21489903.515    -5993264.70349  -4659162.66147  21489902.760    21489916.504
       240.000         200.000
  20940299.761     -155493.62549   -116521.98147  20940298.643    20940312.919
       242.000         205.000
  22883178.097    -6916116.10849  -4952949.90446  22883177.146    22883195.595
       224.000         172.000
 02  3 20 21 33 30.0000000  0  8G30G24G15G23G 5G 6G10G17
  20348766.741     -527631.39849   -397485.32647  20348766.542    20348779.182
       244.000         211.000
  24081629.535     7547162.64049   5868170.95145  24081627.926    24081650.328
       212.000         151.000
  24147059.909    -7315258.83249  -5687840.63845  24147058.020    24147082.648
       211.000         142.000
  21353511.139    -7524961.96749  -5590656.61247  21353509.993    21353525.491
       238.000         200.000
  21462500.335     5124562.59849   3989589.28247  21462499.811    21462515.170
       238.000         198.000
  21479741.244    -6046667.74349  -4700775.34147  21479740.725    21479754.177
       239.000         201.000
  20946519.485     -122808.80149    -91053.31547  20946518.287    20946532.614
       241.000         205.000
  22872178.865    -6973916.79449  -4997989.23846  22872177.731    22872196.614
       223.000         172.000
 02  3 20 21 34  0.0000000  0  8G30G24G15G23G 5G 6G10G17
  20353973.562     -500269.29949   -376164.25247  20353973.307    20353986.205
       244.000         211.000
  24096441.697     7624999.80949   5928823.07145  24096442.950    24096463.322
       219.000         156.000
  24132424.369    -7392168.04949  -5747769.54745  24132422.631    24132447.802
       208.000         143.000
  21341001.410    -7590700.45949  -5641881.24247  21341000.043    21341015.769
       238.000         200.000
  21477127.981     5201430.98849   4049486.57847  21477127.374    21477143.254
       238.000         198.000
  21469600.630    -6099956.67849  -4742299.09847  21469599.735    21469613.750
       239.000         201.000
  20952851.258      -89535.44649    -65126.05047  20952850.264    20952864.335
       242.000         205.000
  22861221.327    -7031498.38549  -5042857.85046  22861220.766    22861238.444
       224.000         172.000
 02  3 20 21 34 30.0000000  0  8G30G24G15G23G 5G 6G10G17
  20359288.450     -472339.47649   -354400.80147  20359288.508    20359301.006
       244.000         211.000
  24111241.971     7702774.57449   5989426.62045  24111240.855    24111262.099
       211.000         150.000
  24117823.680    -7468893.75049  -5807555.46745  24117822.589    24117846.316
       212.000         144.000
  21328573.302    -7656009.87249  -5692771.53447  21328572.057    21328587.507
       238.000         200.000
  21491826.183     5278669.85449   4109672.55147  21491825.449    21491841.185
       238.000         198.000
  21459481.961    -6153130.11449  -4783732.86447  21459481.050    21459495.266
       239.000         201.000
  20959294.692      -55675.13649    -38741.42447  20959293.643    20959307.612
       242.000         205.000
  22850305.467    -7088860.97749  -5087555.81946  22850304.753    22850322.764
       224.000         172.000
 02  3 20 21 35  0.0000000  0  8G30G24G15G23G 5G 6G10G17
  20364711.361     -443842.17149   -332195.15847  20364711.304    20364723.961
       244.000         211.000
  24126030.237     7780487.14249   6049981.69645  24126030.427    24126051.346
       216.000         151.000
  24103258.011    -7545435.18449  -5867197.80745  24103255.973    24103280.524
       212.000         144.000
  21316227.332    -7720887.61549  -5743325.46547  21316226.184    21316241.491
       239.000         200.000
  21506594.554     5356277.55649   4170145.92347  21506593.855    21506609.878
       238.000         197.000
  21449385.683    -6206186.11349  -4825075.11947  21449385.030    21449398.722
       239.000         201.000
  20965849.632      -21228.68649    -11900.06547  20965848.635    20965862.788
       241.000         204.000
  22839431.368    -7146004.03549  -5132082.72246  22839429.632    22839448.743
       224.000         172.000
 02  3 20 21 35 30.0000000  0  8G30G24G15G23G 5G 6G10G17
  20370242.022     -414778.43749   -309548.14347  20370241.935    20370254.778
       244.000         211.000
  24140806.539     7858135.95249   6110487.09745  24140805.698    24140827.852
       215.000         151.000
  24088727.602    -7621792.03449  -5926696.33545  24088726.801    24088751.966
       212.000         147.000
  21303963.868    -7785331.85649  -5793541.60047  21303962.574    21303978.029
       239.000         200.000
  21521432.574     5434251.41949   4230904.62047  21521432.203    21521447.753
       238.000         197.000
  21439311.966    -6259123.42549  -4866324.88347  21439311.254    21439325.103
       239.000         201.000
  20972515.818       13802.23049     15396.72347  20972514.700    20972528.785
       241.000         204.000
  22828598.924    -7202927.93349  -5176438.85646  22828597.711    22828616.015
       224.000         172.000
 02  3 20 21 36  0.0000000  0  8G30G24G15G23G 5G 6G10G17
  20375880.277     -385149.49649   -286460.70947  20375880.342    20375892.971
       244.000         211.000
  24155570.336     7935719.89549   6170941.90945  24155571.076    24155591.360
       213.000         149.000
  24074232.248    -7697964.34849  -5986051.03045  24074230.247    24074254.781
       214.000         148.000
  21291783.274    -7849340.73249  -5843418.49547  21291781.976    21291797.348
       239.000         200.000
  21536339.865     5512589.03249   4291946.75247  21536339.592    21536355.161
       238.000         197.000
  21429261.119    -6311940.73249  -4907481.14347  21429260.322    21429274.074
       240.000         201.000
  20979292.906       49415.97649     43147.66147  20979291.808    20979305.929
       241.000         204.000
  22817808.174    -7259633.15549  -5220624.58346  22817806.981    22817825.615
       223.000         172.000
 02  3 20 21 36 30.0000000  0  8G30G24G15G23G 5G 6G10G17
  20381625.828     -354956.75649   -262933.94647  20381625.894    20381638.493
       244.000         211.000
  24170321.660     8013238.43549   6231345.82745  24170320.985    24170342.193
       212.000         147.000
  24059772.166    -7773952.03449  -6045261.90145  24059770.567    24059794.479
       212.000         148.000
  21279685.828    -7912912.47949  -5892954.76847  21279684.511    21279699.728
       239.000         201.000
  21551315.849     5591287.66249   4353270.19847  21551315.515    21551331.174
       238.000         196.000
  21419233.342    -6364636.80849  -4948542.93247  21419232.504    21419246.451
       240.000         201.000
  20986180.592       85610.82449     71351.40847  20986179.540    20986193.518
       242.000         204.000
  22807058.942    -7316120.12249  -5264640.23846  22807058.162    22807076.045
       225.000         172.000
 02  3 20 21 37  0.0000000  0  8G30G24G15G23G 5G 6G10G17
  20387478.483     -324201.01049   -238968.47947  20387478.622    20387491.341
       244.000         211.000
  24185060.508     8090690.88449   6291698.23845  24185059.262    24185081.914
       210.000         148.000
  24045347.081    -7849754.58349  -6104328.48145  24045346.083    24045369.639
       215.000         150.000
  21267671.934    -7976045.01249  -5942148.80347  21267670.628    21267686.033
       239.000         201.000
  21566360.139     5670345.16349   4414873.27547  21566359.790    21566375.366
       237.000         196.000
  21409228.973    -6417210.03149  -4989509.00247  21409228.190    21409242.121
       240.000         202.000
  20993178.563      122385.22049    100006.75147  20993177.326    20993191.718
       241.000         204.000
  22796351.235    -7372388.92849  -5308485.89546  22796350.385    22796368.345
       224.000         172.000
 02  3 20 21 37 30.0000000  0  8G30G24G15G23G 5G 6G10G17
  20393438.090     -292883.34549   -214565.15547  20393438.047    20393450.706
       244.000         211.000
  24199786.542     8168076.72349   6351998.64045  24199787.766    24199807.928
       216.000         149.000
  24030957.406    -7925372.04149  -6163250.84345  24030954.726    24030979.515
       213.000         149.000
  21255741.999    -8038736.47449  -5990999.14347  21255740.867    21255755.981
       239.000         201.000
  21581472.228     5749758.95349   4476753.98747  21581471.578    21581487.693
       237.000         196.000
  21399248.147    -6469659.19449  -5030378.38847  21399247.349    21399261.091
       239.000         202.000
  21000286.471      159737.45049    129112.35947  21000285.375    21000299.533
       241.000         204.000
  22785685.013    -7428439.95449  -5352161.84246  22785684.039    22785702.092
       224.000         173.000
 02  3 20 21 38  0.0000000  0  8G30G24G15G23G 5G 6G10G17
  20399504.413     -261004.71349   -189724.71647  20399504.437    20399517.050
       244.000         211.000
  24214500.086     8245394.81449   6412246.40845  24214499.901    24214521.391
       213.000         147.000
  24016602.892    -8000803.96849  -6222028.64345  24016601.143    24016624.831
       212.000         149.000
  21243896.469    -8100984.65349  -6039504.06847  21243895.257    21243910.573
       239.000         202.000
  21596651.672     5829527.05449   4538910.77847  21596650.880    21596667.078
       236.000         195.000
  21389291.283    -6521982.41349  -5071149.64447  21389290.492    21389304.083
       239.000         202.000
  21007504.180      197666.60849    158667.51747  21007503.148    21007517.464
       242.000         204.000
  22775060.225    -7484273.04249  -5395667.97346  22775058.615    22775077.755
       224.000         173.000
 02  3 20 21 38 30.0000000  0  8G30G24G15G23G 5G 6G10G17
  20405677.208     -228566.72349   -164448.40947  20405677.194    20405689.987
       244.000         211.000
  24229200.168     8322644.30049   6472440.61245  24229199.174    24229223.049
       212.000         146.000
  24002283.751    -8076050.59049  -6280662.04845  24002282.036    24002306.548
       209.000         148.000
  21232135.546    -8162788.30249  -6087662.60647  21232134.339    21232149.464
       239.000         202.000
  21611898.000     5909646.44649   4601341.30347  21611897.395    21611913.405
       236.000         195.000
  21379358.579    -6574178.79249  -5111822.06747  21379357.889    21379371.309
       240.000         202.000
  21014831.199      236170.15349    188670.25247  21014830.076    21014844.406
       242.000         204.000
  22764476.657    -7539889.13549  -5439005.02246  22764476.061    22764494.041
       225.000         174.000
 02  3 20 21 39  0.0000000  0  8G30G24G15G23G 5G 6G10G17
  20411956.335     -195570.07949   -138736.79547  20411956.527    20411969.317
       244.000         211.000
  24243887.279     8399824.83949   6532581.08045  24243887.266    24243908.415
       213.000         149.000
  23987999.872    -8151111.31749  -6339150.58845  23987999.623    23988022.155
       213.000         148.000
  21220459.624    -8224145.09149  -6135472.94647  21220458.532    21220473.507
       240.000         203.000
  21627210.779     5990115.06749   4664043.95247  21627210.044    21627226.473
       236.000         195.000
  21369450.415    -6626246.48949  -5152394.21847  21369449.628    21369463.152
       239.000         202.000
  21022267.323      275246.94749    219119.66947  21022266.158    21022280.412
       241.000         204.000
  22753934.548    -7595287.89049  -5482172.71346  22753933.889    22753951.246
       223.000         175.000
 02  3 20 21 39 30.0000000  0  8G30G24G15G23G 5G 6G10G17
  20418341.554     -162015.89749   -112590.73147  20418341.716    20418354.447
       244.000         211.000
  24258561.154     8476935.44649   6592667.14345  24258560.278    24258581.593
       208.000         144.000
  23973751.340    -8225985.85349  -6397494.05045  23973748.959    23973773.428
       215.000         148.000
  21208869.196    -8285052.90049  -6182933.42947  21208867.956    21208883.168
       240.000         203.000
  21642589.548     6070930.43149   4727016.79047  21642589.187    21642605.373
       236.000         194.000
  21359566.963    -6678184.05049  -5192864.96447  21359566.520    21359579.702
       240.000         202.000
  21029812.173      314895.38549    250014.53247  21029811.185    21029825.109
       241.000         204.000
  22743433.781    -7650469.60149  -5525171.26846  22743431.890    22743450.701
       225.000         175.000
 02  3 20 21 40  0.0000000  0  8G30G24G15G23G 5G 6G10G17
  20424832.652     -127905.28549    -86011.08947  20424832.583    20424845.527
       244.000         211.000
  24273221.454     8553975.73549   6652698.32545  24273221.389    24273243.839
       214.000         146.000
  23959538.449    -8300673.98249  -6455692.32245  23959536.248    23959560.747
       211.000         148.000
  21197364.513    -8345509.87249  -6230042.61547  21197363.241    21197378.276
       240.000         203.000
  21658033.908     6152090.29249   4790258.06647  21658033.655    21658049.870
       236.000         194.000
  21349708.595    -6729989.82249  -5233233.01747  21349708.025    21349721.277
       240.000         202.000
  21037465.474      355113.52749    281353.31547  21037464.376    21037478.416
       241.000         203.000
  22732974.186    -7705434.46349  -5568000.85846  22732973.420    22732991.467
       224.000         176.000
 02  3 20 21 40 30.0000000  0  8G30G24G15G23G 5G 6G10G17
  20431429.303      -93239.72649    -58999.01847  20431429.246    20431442.185
       244.000         211.000
  24287868.231     8630944.68249   6712673.95045  24287866.940    24287889.493
       208.000         144.000
  23945360.953    -8375175.76249  -6513745.33245  23945359.632    23945383.458
       212.000         149.000
  21185945.984    -8405514.33149  -6276799.19147  21185944.776    21185960.037
       240.000         204.000
  21673543.296     6233591.98349   4853765.69547  21673543.148    21673558.637
       236.000         194.000
  21339875.603    -6781662.30849  -5273497.20747  21339874.802    21339888.161
       240.000         202.000
  21045226.878      395899.77549    313134.78347  21045225.703    21045240.139
       241.000         203.000
  22722555.814    -7760182.95449  -5610661.85646  22722554.793    22722572.653
       225.000         176.000
 02  3 20 21 41  0.0000000  0  8G30G24G15G23G 5G 6G10G17
  20438131.316      -58020.43249    -31555.46847  20438131.316    20438144.166
       244.000         211.000
  24302501.341     8707841.70849   6772593.55645  24302502.028    24302522.599
       209.000         144.000
  23931218.915    -8449491.06949  -6571653.05345  23931217.313    23931240.932
       214.000         148.000
  21174613.838    -8465064.42349  -6323201.71647  21174612.861    21174627.765
       240.000         204.000
  21689117.280     6315433.11649   4917537.82947  21689116.887    21689132.892
       235.000         193.000
  21330068.233    -6833200.07349  -5313656.42247  21330067.571    21330080.642
       240.000         202.000
  21053096.048      437252.41449    345357.59647  21053094.716    21053109.036
       241.000         203.000
  22712178.523    -7814715.30149  -5653154.41646  22712177.717    22712195.375
       226.000         177.000
 02  3 20 21 41 30.0000000  0  8G30G24G15G23G 5G 6G10G17
  20444938.517      -22248.58849     -3681.35947  20444938.584    20444951.361
       244.000         210.000
  24317120.617     8784666.25949   6832456.64345  24317120.808    24317143.219
       208.000         141.000
  23917112.521    -8523619.52749  -6629415.20445  23917109.799    23917134.718
       211.000         146.000
  21163368.527    -8524158.36449  -6369248.80347  21163367.226    21163382.236
       240.000         204.000
  21704755.369     6397611.08849   4981572.42947  21704754.811    21704770.862
       236.000         193.000
  21320286.747    -6884601.74849  -5353709.59147  21320286.093    21320299.418
       240.000         203.000
  21061072.597      479169.62949    378020.33547  21061071.384    21061085.607
       240.000         203.000
  22701842.285    -7869031.85549  -5695478.83846  22701841.112    22701859.005
       225.000         177.000
 02  3 20 21 42  0.0000000  0  8G30G24G15G23G 5G 6G10G17
  20451850.665       14074.60549     24622.37147  20451850.868    20451863.450
       244.000         210.000
  24331726.094     8861417.66049   6892262.77645  24331727.146    24331748.598
       204.000         143.000
  23903041.647    -8597560.98649  -6687031.63445  23903040.569    23903064.849
       210.000         145.000
  21152210.340    -8582794.24749  -6414938.95947  21152208.950    21152224.158
       240.000         204.000
  21720457.123     6480123.52049   5045867.64947  21720456.981    21720472.998
       236.000         193.000
  21310531.489    -6935865.64449  -5393655.39947  21310530.727    21310544.102
       240.000         203.000
  21069156.313      521649.79249    411121.74447  21069154.988    21069169.591
       240.000         203.000
  22691547.129    -7923132.72949  -5737635.19346  22691545.730    22691564.044
       225.000         178.000
 02  3 20 21 42 30.0000000  0  8G30G24G15G23G 5G 6G10G17
  20458867.378       50947.45249     53354.40147  20458867.331    20458880.142
       245.000         210.000
  24346317.115     8938095.08049   6952011.15245  24346317.295    24346338.948
       209.000         140.000
  23889006.476    -8671315.55449  -6744502.40745  23889004.316    23889028.666
       211.000         146.000
  21141139.652    -8640970.53749  -6460270.98847  21141138.275    21141153.276
       240.000         204.000
  21736221.977     6562967.64149   5110421.32847  21736221.627    21736238.109
       235.000         193.000
  21300802.702    -6986990.42149  -5433492.80647  21300801.802    21300815.595
       240.000         203.000
  21077346.750      564690.84349    444660.21147  21077345.527    21077360.055
       240.000         203.000
  22681292.988    -7977018.40349  -5779623.86846  22681291.419    22681309.506
       227.000         178.000
 02  3 20 21 43  0.0000000  0  8G30G24G15G23G 5G 6G10G17
  20465988.564       88369.16549     82514.11747  20465988.751    20466001.409
       244.000         210.000
  24360894.661     9014698.16649   7011701.75645  24360894.374    24360916.247
       210.000         140.000
  23875006.794    -8744882.57849  -6801827.07545  23875005.328    23875028.659
       212.000         147.000
  21130156.806    -8698685.07849  -6505243.21947  21130155.438    21130170.558
       240.000         204.000
  21752049.565     6646141.39949   5175231.86147  21752048.930    21752065.588
       235.000         192.000
  21291100.743    -7037974.09649  -5473220.26047  21291099.918    21291113.525
       240.000         203.000
  21085643.622      608291.02149    478634.36047  21085642.463    21085656.759
       240.000         203.000
  22671079.709    -8030688.88749  -5821444.85946  22671078.119    22671096.711
       226.000         178.000
 02  3 20 21 43 30.0000000  0  8G30G24G15G23G 5G 6G10G17
  20473213.691      126337.33749    112099.65247  20473213.629    20473226.488
       244.000         210.000
  24375457.548     9091225.43949   7071333.20645  24375458.501    24375479.723
       210.000         141.000
  23861042.917    -8818262.98149  -6859006.29145  23861041.505    23861064.885
       213.000         148.000
  21119261.971    -8755937.14349  -6549855.07347  21119260.680    21119275.999
       240.000         204.000
  21767939.200     6729641.18649   5240296.44547  21767938.919    21767954.932
       235.000         192.000
  21281425.728    -7088816.28049  -5512837.46147  21281425.016    21281438.332
       241.000         203.000
  21094046.407      652447.85449    513042.27547  21094045.316    21094059.495
       239.000         202.000
  22660907.178    -8084145.47549  -5863099.17446  22660905.592    22660924.412
       226.000         179.000
 02  3 20 21 44  0.0000000  0  8G30G24G15G23G 5G 6G10G17
  20480542.643      164851.05649    142110.28347  20480542.685    20480555.673
       244.000         210.000
  24390005.867     9167676.57549   7130905.32245  24390004.791    24390027.447
       211.000         143.000
  23847114.471    -8891456.15349  -6916039.63645  23847113.777    23847135.512
       215.000         150.000
  21108455.614    -8812724.49549  -6594104.81747  21108454.451    21108469.409
       241.000         205.000
  21783890.438     6813464.96849   5305613.48947  21783889.797    21783906.337
       235.000         192.000
  21271778.066    -7139514.73249  -5552342.66447  21271777.245    21271790.860
       240.000         203.000
  21102554.724      697159.51649    547882.51647  21102553.606    21102567.701
       239.000         202.000
  22650775.353    -8137388.10149  -5904586.77946  22650774.255    22650791.338
       227.000         179.000
 02  3 20 21 44 30.0000000  0  9G30G24G15G23G 5G 6G26G10G17
  20487973.634      203901.10149    172538.83047  20487973.521    20487986.642
       244.000         210.000
  24404538.112     9244043.27649   7190411.67845  24404538.400    24404560.438
       214.000         142.000
  23833220.179    -8964470.07749  -6972933.30245  23833219.356    23833242.312
       216.000         149.000
  21097736.542    -8869053.21549  -6637997.18847  21097735.462    21097750.413
       241.000         205.000
  21799901.443     6897602.59749   5371175.08447  21799901.232    21799917.550
       234.000         192.000
  21262156.542    -7190075.78449  -5591740.80947  21262155.856    21262169.238
       241.000         204.000
  24482687.421    -3992273.32949  -3084160.68345  24482683.621    24482717.274
       203.000         137.000
  21111166.887      742416.59649    583147.76047  21111165.924    21111180.019
       240.000         202.000
  22640682.703    -8190424.83049  -5945913.94846  22640681.622    22640699.779
       228.000         180.000
 02  3 20 21 45  0.0000000  0 10G30G24G15G23G 5G 6G18G26G10G17
  20495508.175      243495.16449    203391.28747  20495508.025    20495521.131
       242.000         210.000
  24419056.000     9320333.88849   7249858.74745  24419054.950    24419076.750
       210.000         142.000
  23819361.696    -9037295.33949  -7029679.93845  23819359.501    23819383.371
       217.000         150.000
  21087106.776    -8924912.62349  -6681523.85747  21087105.631    21087120.454
       241.000         205.000
  21815973.436     6982060.53749   5436986.28447  21815972.956    21815989.578
       235.000         191.000
  21252563.212    -7240488.88949  -5631023.65547  21252562.527    21252575.945
       240.000         204.000
                  -2189698.90649  -1151602.43843
       210.000          74.000
  24467311.220    -4073072.60849  -3147120.58945  24467309.574    24467340.756
       207.000         134.000
  21119884.247      788226.36049    618843.67447  21119883.049    21119897.561
       240.000         202.000
  22630630.906    -8243246.96449  -5987073.88346  22630629.401    22630647.434
       227.000         180.000
 02  3 20 21 45 30.0000000  0  9G30G24G15G23G 5G 6G26G10G17
  20503146.874      283636.59149    234670.25947  20503147.007    20503159.851
       243.000         209.000
  24433560.075     9396552.71949   7309249.86645  24433560.138    24433584.176
       213.000         145.000
  23805540.135    -9109927.21649  -7086275.91645  23805537.479    23805562.857
       216.000         150.000
  21076567.534    -8980296.21249  -6724679.75747  21076566.457    21076580.986
       241.000         206.000
  21832106.720     7066840.77749   5503048.61247  21832106.407    21832122.780
       235.000         191.000
  21242999.189    -7290747.66049  -5670186.24147  21242998.518    21243011.889
       241.000         204.000
  24451926.627    -4153918.47849  -3210116.84545  24451925.364    24451955.339
       213.000         139.000
  21128707.213      834591.54349    654972.37747  21128706.001    21128720.128
       239.000         202.000
  22620620.722    -8295849.95449  -6028063.07446  22620619.391    22620636.946
       228.000         180.000
 02  3 20 21 46  0.0000000  0 10G30G24G15G23G 5G 6G18G26G10G17
  20510888.777      324320.40549    266371.86747  20510888.937    20510901.756
       244.000         209.000
  24448049.685     9472695.77849   7368581.91945  24448049.677    24448071.180
       209.000         143.000
  23791754.799    -9182368.79449  -7142723.59845  23791753.292    23791775.987
       215.000         150.000
  21066118.493    -9035205.76849  -6767466.28647  21066117.370    21066132.090
       242.000         206.000
  21848300.264     7151937.49149   5569357.54647  21848300.117    21848316.352
       235.000         191.000
  21233464.258    -7340853.95749  -5709230.02647  21233463.799    21233476.773
       241.000         204.000
                  -1363666.86149  -1042640.59743
       208.000          74.000
  24436533.023    -4234811.32549  -3273149.66245  24436532.011    24436562.068
       206.000         143.000
  21137634.876      881506.66149    691529.60347  21137633.791    21137648.262
       239.000         202.000
  22610651.566    -8348237.60649  -6068884.44846  22610649.613    22610668.326
       227.000         179.000
 02  3 20 21 46 30.0000000  0  9G30G24G15G23G 5G 6G26G10G17
  20518733.270      365543.24849    298493.49847  20518733.307    20518746.329
       243.000         209.000
  24462524.387     9548760.32349   7427852.83845  24462525.036    24462546.536
       209.000         143.000
  23778005.223    -9254621.89449  -7199024.41645  23778003.191    23778026.310
       215.000         149.000
  21055759.618    -9089641.59149  -6809883.66947  21055758.522    21055772.892
       243.000         206.000
  21864553.146     7237346.16949   5635909.56447  21864552.675    21864569.132
       234.000         190.000
  21223958.215    -7390808.11449  -5748155.25647  21223957.500    21223970.470
       241.000         204.000
  24421130.345    -4315750.29549  -3336218.32845  24421127.745    24421158.827
       201.000         141.000
  21146666.461      928967.79149    728512.29547  21146665.218    21146679.306
       239.000         201.000
  22600722.929    -8400412.32849  -6109539.91246  22600721.206    22600739.058
       227.000         179.000
 02  3 20 21 47  0.0000000  0 10G30G24G15G23G 5G 6G18G26G10G17
  20526679.941      407303.11649    331033.58947  20526679.965    20526693.027
       243.000         209.000
  24476984.155     9624745.34749   7487061.77645  24476982.258    24477006.494
       209.000         146.000
  23764291.493    -9326686.89349  -7255178.65945  23764289.275    23764313.107
       217.000         148.000
  21045491.122    -9143602.49849  -6851930.99347  21045489.970    21045504.508
       243.000         206.000
  21880864.823     7323063.87549   5702702.37847  21880863.993    21880881.347
       234.000         190.000
  21214481.412    -7440609.00149  -5786961.05847  21214480.641    21214493.805
       241.000         204.000
                  -1584413.02849  -1214649.47744                  24654525.216
       206.000         128.000
  24405719.185    -4396732.71849  -3399320.85245  24405716.644    24405748.469
       203.000         139.000
  21155801.431      976972.46349    765918.51647  21155800.374    21155814.533
       239.000         201.000
  22590834.613    -8452374.79149  -6150029.97646  22590833.272    22590851.024
       226.000         179.000
 02  3 20 21 47 30.0000000  0 10G30G24G15G23G 5G 6G18G26G10G17
  20534728.425      449597.89549    363990.49147  20534728.583    20534741.531
       243.000         209.000
  24491428.219     9700649.93249   7546207.96845  24491428.837    24491449.842
       209.000         142.000
  23750613.489    -9398564.38749  -7311186.81245  23750611.454    23750635.551
       213.000         148.000
  21035313.161    -9197087.48649  -6893607.47347  21035311.897    21035326.447
       243.000         207.000
  21897234.731     7409087.61649   5769733.66747  21897234.490    21897250.720
       234.000         190.000
  21205033.891    -7490255.62349  -5825646.65147  21205032.921    21205046.450
       241.000         204.000
  24633505.806    -1694730.12049  -1300610.64344  24633502.971    24633528.926
       207.000         127.000
  24390300.601    -4477756.08549  -3462455.31345  24390299.397    24390328.684
       211.000         140.000
  21165039.414     1025518.21349    803746.35547  21165038.389    21165052.564
       239.000         201.000
  22580986.485    -8504126.03949  -6190355.45846  22580985.089    22581002.553
       226.000         179.000
 02  3 20 21 48  0.0000000  0 10G30G24G15G23G 5G 6G18G26G10G17
  20542878.354      492425.91449    397362.90747  20542878.441    20542891.491
       243.000         209.000
  24505857.217     9776473.42549   7605291.09045  24505858.417    24505878.554
       211.000         141.000
  23736971.026    -9470254.45849  -7367048.90345  23736968.649    23736992.269
       214.000         147.000
  21025226.039    -9250095.10249  -6934911.97347  21025224.930    21025239.505
       243.000         207.000
  21913662.391     7495414.55349   5837001.20947  21913661.798    21913678.432
       234.000         189.000
  21195616.015    -7539746.54649  -5864210.91747  21195615.241    21195628.720
       242.000         205.000
  24612519.453    -1805007.08449  -1386540.26545  24612514.890    24612543.737
       199.000         132.000
  24374874.937    -4558817.57049  -3525619.59045  24374873.336    24374902.006
       211.000         140.000
  21174379.910     1074602.82849    841994.09647  21174378.843    21174392.911
       239.000         201.000
  22571178.468    -8555666.50349  -6230516.70346  22571176.630    22571194.641
       226.000         179.000
 02  3 20 21 48 30.0000000  0 10G30G24G15G23G 5G 6G18G26G10G17
  20551129.563      535786.12249    431150.01447  20551129.599    20551142.668
       244.000         209.000
  24520270.852     9852215.82949   7664310.99145  24520270.550    24520294.199
       206.000         143.000
  23723364.396    -9541756.52649  -7422764.50445  23723361.758    23723385.188
       213.000         148.000
  21015230.164    -9302623.38349  -6975842.96847  21015229.100    21015243.372
       243.000         207.000
  21930147.326     7582042.70549   5904503.45747  21930146.785    21930163.714
       234.000         189.000
  21186228.208    -7589079.51549  -5902652.10547  21186227.330    21186240.617
       241.000         205.000
  24591542.430    -1915240.63949  -1472435.92845  24591542.339    24591571.359
       215.000         144.000
  24359442.387    -4639913.66449  -3588810.75045  24359439.541    24359471.349
       205.000         138.000
  21183822.720     1124224.98049    880660.68447  21183821.496    21183835.782
       239.000         201.000
  22561410.582    -8606996.07649  -6270513.60046  22561409.451    22561427.074
       226.000         179.000
 02  3 20 21 49  0.0000000  0 10G30G24G15G23G 5G 6G18G26G10G17
  20559481.919      579677.75749    465351.22247  20559481.997    20559495.096
       243.000         209.000
  24534668.756     9927877.44249   7723267.85745  24534667.933    24534691.481
       209.000         142.000
  23709793.649    -9613069.61849  -7478332.88545  23709791.353    23709815.373
       212.000         148.000
  21005325.966    -9354669.92049  -7016398.58047  21005324.796    21005339.121
       243.000         207.000
  21946689.165     7668970.06649   5972238.86647  21946688.764    21946705.809
       233.000         189.000
  21176870.923    -7638251.97849  -5940968.22147  21176870.358    21176883.324
       241.000         205.000
  24570574.213    -2025428.11949  -1558296.01545  24570567.570    24570596.735
       197.000         132.000
  24344003.782    -4721040.45249  -3652025.73445  24344001.548    24344032.584
       205.000         139.000
  21193367.555     1174383.29749    919745.07147  21193366.528    21193380.685
       239.000         201.000
  22551682.955    -8658114.40349  -6310345.89346  22551682.085    22551699.555
       229.000         179.000
 02  3 20 21 49 30.0000000  0 10G30G24G15G23G 5G 6G18G26G10G17
  20567935.157      624099.49349    499965.48747  20567935.335    20567948.420
       243.000         209.000
  24549051.361    10003457.54049   7782161.25345  24549052.485    24549074.444
       211.000         142.000
  23696258.933    -9684193.51449  -7533753.80845  23696257.043    23696280.292
       213.000         148.000
  20995513.767    -9406232.79049  -7056577.31547  20995512.349    20995526.736
       243.000         207.000
  21963287.526     7756194.48849   6040205.73947  21963287.313    21963303.882
       233.000         188.000
  21167544.582    -7687261.92749  -5979157.70747  21167543.754    21167557.062
       241.000         206.000
  24549615.007    -2135566.40849  -1644117.57345  24549613.486    24549640.741
       211.000         139.000
  24328560.339    -4802194.36149  -3715261.92045  24328559.269    24328588.308
       209.000         142.000
  21203014.101     1225076.10049    959245.93147  21203012.770    21203027.172
       239.000         201.000
  22541995.628    -8709021.37349  -6350013.50146  22541994.352    22542011.467
       228.000         179.000
 02  3 20 21 50  0.0000000  0 10G30G24G15G23G 5G 6G18G26G10G17
  20576488.932      669049.42649    534991.33847  20576489.253    20576502.107
       243.000         209.000
  24563418.499    10078955.46049   7840990.67745  24563418.329    24563441.373
       210.000         142.000
  23682760.362    -9755128.31149  -7589027.40145  23682757.418    23682782.023
       214.000         148.000
  20985793.786    -9457310.92049  -7096378.32847  20985792.388    20985806.992
       243.000         207.000
  21979941.896     7843713.00049   6108401.77547  21979941.683    21979958.588
       233.000         188.000
  21158249.376    -7736108.30749  -6017219.73547  21158248.659    21158261.832
       241.000         206.000
  24528666.058    -2245653.42749  -1729899.16445  24528664.919    24528691.924
       210.000         148.000
  24313112.165    -4883372.95649  -3778517.39445  24313110.724    24313139.047
       210.000         142.000
  21212761.834     1276300.74849    999161.21647  21212760.611    21212774.936
       239.000         201.000
  22532348.298    -8759717.88849  -6389517.11746  22532346.701    22532364.543
       227.000         179.000
 02  3 20 21 50 30.0000000  0 10G30G24G15G23G 5G 6G18G26G10G17
  20585142.772      714525.33949    570427.04447  20585142.822    20585155.971
       243.000         209.000
  24577769.452    10154370.79249   7899755.66545  24577769.065    24577792.183
       204.000         143.000
  23669297.622    -9825874.60749  -7644154.10545  23669296.317    23669318.322
       215.000         149.000
  20976166.329    -9507903.17649  -7135800.73947  20976165.033    20976179.460
       244.000         208.000
  21996651.656     7931522.56049   6176824.59946  21996651.185    21996668.077
       233.000         187.000
  21148985.464    -7784789.89649  -6055153.35447  21148984.683    21148997.919
       241.000         206.000
  24507726.737    -2355687.38449  -1815639.47045  24507722.377    24507748.663
       205.000         135.000
  24297659.653    -4964573.55849  -3841790.01745  24297656.003    24297687.679
       205.000         139.000
  21222610.347     1328054.78249   1039489.01047  21222609.063    21222623.815
       239.000         201.000
  22522740.812    -8810204.66049  -6428857.28446  22522739.642    22522756.857
       230.000         179.000
 02  3 20 21 51  0.0000000  0 10G30G24G15G23G 5G 6G18G26G10G17
  20593896.490      760526.06649    606271.69447  20593896.492    20593909.667
       243.000         209.000
  24592104.913    10229703.27849   7958456.09745  24592104.750    24592127.462
       212.000         146.000
  23655870.753    -9896431.92149  -7699133.56445  23655869.572    23655891.608
       215.000         150.000
  20966631.646    -9558007.74849  -7174843.13847  20966630.464    20966644.788
       243.000         208.000
  22013416.419     8019621.10449   6245472.60746  22013416.179    22013433.171
       233.000         187.000
  21139753.399    -7833304.50549  -6092956.86247  21139752.574    21139765.628
       242.000         206.000
  24486798.244    -2465665.35949  -1901336.21845  24486797.703    24486823.525
       212.000         142.000
  24282203.572    -5045792.63349  -3905076.99645  24282201.432    24282229.738
       204.000         138.000
  21232559.260     1380336.57749   1080228.04347  21232558.066    21232572.552
       239.000         201.000
  22513173.320    -8860481.68649  -6468034.03546  22513171.526    22513189.199
       229.000         180.000
 02  3 20 21 51 30.0000000  0 10G30G24G15G23G 5G 6G18G26G10G17
  20602749.613      807049.20449    642523.41847  20602749.873    20602762.942
       243.000         209.000
  24606424.326    10304951.34649   8017090.79945  24606424.337    24606445.104
       214.000         144.000
  23642479.747    -9966800.90049  -7753966.25045  23642478.533    23642500.430
       214.000         150.000
  20957189.901    -9607623.96649  -7213504.99947  20957188.770    20957202.847
       243.000         208.000
  22030235.542     8108005.29749   6314343.19446  22030235.585    22030252.627
       232.000         186.000
  21130553.271    -7881651.23549  -6130629.55847  21130552.663    21130565.798
       242.000         206.000
  24465880.807    -2575585.96049  -1986988.14945  24465877.046    24465905.161
       200.000         142.000
  24266744.560    -5127027.72749  -3968376.48745  24266743.323    24266772.834
       208.000         142.000
  21242608.056     1433143.16549   1121376.00647  21242606.959    21242621.479
       239.000         201.000
  22503645.529    -8910550.18749  -6507048.29546  22503644.031    22503661.838
       228.000         180.000
 02  3 20 21 52  0.0000000  0 10G30G24G15G23G 5G 6G18G26G10G17
  20611701.887      854093.49749    679181.23547  20611702.036    20611715.217
       243.000         209.000
  24620727.650    10380115.50249   8075660.14145  24620727.675    24620751.091
       211.000         142.000
  23629124.788   -10036980.70349  -7808651.54345  23629123.288    23629146.457
       215.000         151.000
  20947841.470    -9656749.86549  -7251784.79847  20947840.402    20947854.569
       244.000         208.000
  22047108.605     8196672.94149   6383434.64546  22047108.474    22047125.117
       232.000         186.000
  21121385.539    -7929827.78649  -6168169.65147  21121384.949    21121398.036
       242.000         206.000
  24444974.528    -2685446.07549  -2072592.93645  24444972.368    24444999.530
       212.000         136.000
  24251283.358    -5208275.26949  -4031685.70645  24251281.857    24251310.378
       210.000         145.000
  21252756.377     1486472.88749   1162931.60147  21252755.294    21252769.507
       239.000         200.000
  22494157.435    -8960409.89349  -6545899.87146  22494156.380    22494173.245
       231.000         180.000
 02  3 20 21 52 30.0000000  0 10G30G24G15G23G 5G 6G18G26G10G17
  20620752.982      901656.90149    716243.55247  20620753.070    20620766.251
       243.000         208.000
  24635014.931    10455194.86849   8134163.36345  24635014.644    24635037.538
       211.000         146.000
  23615805.677   -10106972.09549  -7863190.01445  23615804.589    23615827.159
       213.000         151.000
  20938586.470    -9705384.50449  -7289681.80047  20938585.179    20938599.558
       243.000         208.000
  22064034.995     8285620.95449   6452744.56646  22064034.936    22064051.887
       232.000         185.000
  21112250.405    -7977833.00749  -6205576.23647  21112249.674    21112262.779
       242.000         206.000
  24424080.643    -2795243.81649  -2158149.31245  24424079.232    24424104.271
       199.000         140.000
  24235820.084    -5289532.47249  -4095002.46245  24235817.932    24235847.005
       204.000         144.000
  21263003.758     1540323.10449   1204892.77847  21263002.919    21263016.887
       238.000         200.000
  22484708.895    -9010061.68649  -6584589.42446  22484707.701    22484725.680
       229.000         181.000
 02  3 20 21 53  0.0000000  0 10G30G24G15G23G 5G 6G18G26G10G17
  20629902.434      949737.33049    753708.75147  20629902.466    20629915.722
       243.000         208.000
  24649285.983    10530188.65149   8192599.89245  24649286.054    24649308.374
       207.000         145.000
  23602522.470   -10176775.19449  -7917581.74945  23602521.474    23602543.169
       214.000         152.000
  20929425.168    -9753526.64149  -7327195.03047  20929423.761    20929438.288
       243.000         208.000
  22081014.249     8374846.50749   6522270.75046  22081013.802    22081030.836
       231.000         185.000
  21103148.124    -8025665.45549  -6242848.19647  21103147.195    21103160.312
       242.000         207.000
  24403198.612    -2904976.80749  -2243655.00045  24403196.559    24403223.608
       205.000         142.000
  24220355.462    -5370796.63149  -4158324.64045  24220354.038    24220382.912
       205.000         139.000
  21273349.679     1594691.26349   1247257.54447  21273348.427    21273363.051
       238.000         200.000
  22475299.759    -9059506.27849  -6623117.53146  22475298.265    22475316.010
       228.000         181.000
 02  3 20 21 53 30.0000000  0 10G30G24G15G23G 5G 6G18G26G10G17
  20639150.062      998333.57849    791575.88147  20639150.164    20639163.490
       243.000         208.000
  24663540.610    10605096.97549   8250969.87045  24663538.757    24663561.908
       200.000         138.000
  23589275.089   -10246389.55549  -7971826.42045  23589273.406    23589294.994
       217.000         152.000
  20920357.993    -9801174.44249  -7364323.06547  20920356.778    20920370.888
       243.000         208.000
  22098045.871     8464347.45549   6592011.52446  22098045.701    22098062.825
       231.000         185.000
  21094079.152    -8073322.96349  -6279983.84147  21094078.503    21094091.401
       242.000         207.000
  24382329.796    -3014642.17849  -2329108.09245  24382327.976    24382352.920
       215.000         141.000
  24204890.446    -5452063.97949  -4221649.33345  24204889.274    24204916.404
       210.000         141.000
  21283793.903     1649575.91449   1290024.77347  21283792.927    21283807.085
       238.000         199.000
  22465930.077    -9108743.52649  -6661484.07546  22465928.881    22465946.426
       229.000         181.000
 02  3 20 21 54  0.0000000  0 10G30G24G15G23G 5G 6G18G26G10G17
  20648495.432     1047443.44649    829843.23747  20648495.624    20648508.702
       243.000         208.000
  24677778.798    10679918.86649   8309272.47845  24677778.360    24677801.584
       207.000         139.000
  23576063.545   -10315815.29449  -8025924.11245  23576061.312    23576085.104
       213.000         152.000
  20911385.103    -9848326.81849  -7401065.05847  20911383.870    20911398.078
       243.000         208.000
  22115129.392     8554120.98549   6661964.68746  22115129.225    22115146.308
       231.000         184.000
  21085043.736    -8120803.99649  -6316981.97547  21085042.998    21085056.123
       242.000         207.000
  24361474.099    -3124237.72349  -2414506.83445  24361471.025    24361497.489
       208.000         139.000
  24189425.452    -5533331.64749  -4284974.33545  24189424.210    24189452.692
       210.000         144.000
  21294335.975     1704974.66149   1333192.59647  21294335.099    21294349.143
       239.000         199.000
  22456599.739    -9157774.18249  -6699689.62346  22456598.470    22456615.557
       229.000         182.000
 02  3 20 21 54 30.0000000  0 10G30G24G15G23G 5G 6G18G26G10G17
  20657938.281     1097065.64749    868509.80747  20657938.367    20657951.580
       243.000         208.000
  24692000.766    10754654.66849   8367507.97445  24692000.424    24692024.712
       213.000         144.000
  23562888.023   -10385052.00849  -8079874.52845  23562885.704    23562907.302
       214.000         153.000
  20902506.833    -9894982.02749  -7437419.65047  20902505.487    20902519.933
       243.000         208.000
  22132264.345     8644164.79149   6732128.45846  22132264.042    22132280.839
       230.000         184.000
  21076042.360    -8168106.39549  -6353840.91347  21076041.490    21076054.475
       242.000         207.000
  24340632.182    -3233760.84349  -2499849.03945  24340631.461    24340656.951
       211.000         144.000
  24173960.966    -5614595.96149  -4348296.68945  24173959.266    24173988.299
       205.000         144.000
  21304975.491     1760885.43449   1376759.39347  21304974.343    21304988.665
       238.000         199.000
  22447308.682    -9206598.25249  -6737734.21046  22447307.273    22447324.330
       229.000         182.000
 02  3 20 21 55  0.0000000  0 10G30G24G15G23G 5G 6G18G26G10G17
  20667478.198     1147197.90449    907573.82347  20667478.153    20667491.570
       243.000         208.000
  24706206.097    10829303.18949   8425675.49045  24706205.730    24706229.505
       206.000         141.000
  23549748.353   -10454099.99849  -8133677.85945  23549747.029    23549769.642
       214.000         153.000
  20893723.272    -9941139.34449  -7473386.27347  20893721.957    20893736.378
       243.000         208.000
  22149450.102     8734475.75649   6802500.40446  22149449.975    22149467.004
       230.000         184.000
  21067075.177    -8215228.88449  -6390559.66647  21067074.428    21067087.594
       242.000         207.000
  24319804.590    -3343209.34949  -2585133.16945  24319802.601    24319828.188
       203.000         141.000
  24158497.542    -5695854.39849  -4411614.42145  24158495.222    24158525.288
       207.000         144.000
  21315711.869     1817305.57849   1420723.10647  21315710.990    21315725.179
       238.000         199.000
  22438056.835    -9255216.54749  -6775618.45446  22438055.857    22438072.432
       229.000         182.000
 02  3 20 21 55 30.0000000  0 10G30G24G15G23G 5G 6G18G26G10G17
  20677114.729     1197838.07449    947033.61747  20677114.951    20677128.101
       243.000         208.000
  24720394.527    10903864.23949   8483774.81745  24720394.967    24720417.197
       211.000         138.000
  23536644.583   -10522959.68849  -8187334.46545  23536642.352    23536665.108
       215.000         153.000
  20885034.705    -9986797.60449  -7508964.02247  20885033.372    20885047.701
       243.000         208.000
  22166686.155     8825050.93749   6873078.22646  22166685.523    22166703.384
       231.000         183.000
  21058142.502    -8262170.05449  -6427137.13147  21058141.692    21058154.699
       243.000         207.000
  24298991.343    -3452581.34249  -2670357.60945  24298990.109    24299014.605
       214.000         142.000
  24143035.934    -5777103.96349  -4474925.33645  24143034.745    24143062.210
       210.000         142.000
  21326544.741     1874232.53149   1465081.73447  21326543.811    21326558.012
       239.000         199.000
  22428843.984    -9303630.02749  -6813343.09246  22428842.545    22428859.205
       229.000         182.000
 02  3 20 21 56  0.0000000  0 10G30G24G15G23G 5G 6G18G26G10G17
  20686847.625     1248984.47149    986887.87247  20686847.653    20686860.981
       243.000         208.000
  24734566.679    10978337.71849   8541805.99245  24734567.865    24734589.297
       215.000         142.000
  23523576.577   -10591631.09549  -8240844.37545  23523575.118    23523597.294
       215.000         154.000
  20876441.376   -10031955.31649  -7544151.73447  20876440.121    20876454.518
       244.000         209.000
  22183972.064     8915887.88049   6943860.02146  22183971.436    22183989.494
       230.000         183.000
  21049244.679    -8308928.13549  -6463571.93047  21049244.062    21049257.035
       243.000         207.000
  24278193.445    -3561873.84049  -2755520.11845  24278191.138    24278217.240
       205.000         146.000
  24127576.855    -5858341.29149  -4538226.74245  24127576.187    24127602.757
       212.000         145.000
  21337473.656     1931664.22849   1509833.66547  21337472.535    21337487.223
       238.000         199.000
  22419670.087    -9351838.69449  -6850908.13946  22419668.267    22419685.494
       230.000         182.000
 02  3 20 21 56 30.0000000  0 10G30G24G15G23G 5G 6G18G26G10G17
  20696676.493     1300635.23049   1027135.13747  20696676.679    20696689.950
       243.000         208.000
  24748721.890    11052722.78749   8599768.19845  24748720.707    24748743.380
       203.000         139.000
  23510544.585   -10660114.01949  -8294207.40545  23510542.900    23510565.160
       217.000         156.000
  20867943.614   -10076611.10149  -7578948.33447  20867942.384    20867956.535
       244.000         209.000
  22201307.315     9006984.21849   7014843.94346  22201307.145    22201324.554
       231.000         183.000
  21040382.059    -8355501.31949  -6499862.65647  21040381.297    21040394.380
       243.000         208.000
  24257410.930    -3671084.64749  -2840618.96745  24257409.285    24257435.366
       208.000         144.000
  24112120.652    -5939563.03849  -4601516.01245  24112119.427    24112146.880
       207.000         146.000
  21348498.189     1989598.39849   1554977.13047  21348497.013    21348511.735
       238.000         199.000
  22410535.044    -9399842.92049  -6888313.87046  22410534.100    22410550.847
       229.000         182.000
 02  3 20 21 57  0.0000000  0 10G30G24G15G23G 5G 6G18G26G10G17
  20706601.040     1352788.80249   1067774.20547  20706600.978    20706614.365
       242.000         207.000
  24762859.974    11127019.69449   8657661.66445  24762861.288    24762882.996
       203.000         135.000
  23497548.481   -10728408.32649  -8347423.48845  23497546.537    23497568.602
       217.000         157.000
  20859541.581   -10120763.72049  -7613352.85947  20859540.401    20859554.534
       244.000         209.000
  22218691.429     9098337.27549   7086027.90346  22218691.360    22218708.771
       230.000         182.000
  21031555.014    -8401887.59949  -6536007.74547  21031554.418    21031567.237
       243.000         208.000
  24236644.564    -3780211.03449  -2925652.05445  24236643.111    24236668.617
       211.000         146.000
  24096667.620    -6020765.92049  -4664790.50245  24096664.976    24096693.962
       207.000         145.000
  21359617.965     2048033.12849   1600510.63947  21359617.245    21359631.435
       238.000         199.000
  22401438.846    -9447642.92449  -6925560.47846  22401436.988    22401454.989
       230.000         182.000
 02  3 20 21 57 30.0000000  0 10G30G24G15G23G 5G 6G18G26G10G17
  20716620.938     1405443.23649   1108803.55347  20716621.062    20716634.331
       242.000         207.000
  24776981.631    11201228.10649   8715486.24745  24776981.213    24777004.071
       207.000         137.000
  23484588.178   -10796514.13949  -8400492.66845  23484587.169    23484608.156
       217.000         159.000
  20851235.539   -10164411.88649  -7647364.30547  20851234.441    20851248.619
       244.000         209.000
  22236123.879     9189944.51449   7157409.92846  22236123.722    22236141.636
       230.000         182.000
  21022763.819    -8448085.24649  -6572005.84747  21022763.154    21022775.969
       243.000         208.000
  24215894.619    -3889250.68249  -3010617.47545  24215893.726    24215918.017
       212.000         146.000
  24081219.189    -6101946.54349  -4728047.73345  24081218.709    24081245.696
       211.000         147.000
  21370832.594     2106965.98549   1646432.29647  21370831.611    21370846.046
       239.000         199.000
  22392381.423    -9495239.43449  -6962648.50946  22392380.408    22392397.275
       230.000         182.000
 02  3 20 21 58  0.0000000  0 10G30G24G15G23G 5G 6G18G26G10G17
  20726735.557     1458595.62849   1150220.92447  20726735.669    20726749.198
       243.000         207.000
  24791086.145    11275346.62349   8773240.80945  24791083.900    24791109.100
       196.000         135.000
  23471663.634   -10864432.24349  -8453415.59845  23471661.797    23471683.926
       218.000         159.000
  20843025.570   -10207555.23149  -7680982.38347  20843024.564    20843038.264
       244.000         210.000
  22253604.057     9281802.43349   7228987.28046  22253603.961    22253621.364
       230.000         182.000
  21014008.749    -8494093.28049  -6607856.20247  21014008.195    21014021.025
       243.000         208.000
  24195161.572    -3998201.81549  -3095513.99145  24195160.559    24195185.178
       211.000         147.000
  24065775.515    -6183102.69949  -4791285.90945  24065774.361    24065800.386
       210.000         146.000
  21382141.406     2166393.84749   1692739.67547  21382140.412    21382155.167
       238.000         199.000
  22383362.545    -9542633.46249  -6999578.76346  22383360.912    22383378.384
       230.000         182.000
 02  3 20 21 58 30.0000000  0 10G30G24G15G23G 5G 6G18G26G10G17
  20736944.746     1512245.08649   1192025.61547  20736944.772    20736958.387
       243.000         207.000
  24805173.390    11349375.96149   8830925.79744  24805171.747    24805195.116
       203.000         130.000
  23458774.895   -10932161.67249  -8506191.49945  23458772.999    23458794.419
       219.000         158.000
  20834912.041   -10250191.65149  -7714205.45547  20834910.831    20834924.891
       244.000         210.000
  22271131.607     9373909.24249   7300758.57446  22271131.057    22271148.835
       232.000         182.000
  21005290.244    -8539909.07649  -6643556.75247  21005289.511    21005302.459
       243.000         208.000
  24174445.976    -4107061.23549  -3180339.02945  24174444.660    24174469.150
       211.000         147.000
  24050337.131    -6264230.16249  -4854501.73845  24050335.919    24050363.132
       212.000         145.000
  21393544.089     2226315.09649   1739431.50147  21393543.018    21393557.437
       238.000         198.000
  22374382.155    -9589824.78549  -7036351.06846  22374380.988    22374397.779
       229.000         182.000
 02  3 20 21 59  0.0000000  0 10G30G24G15G23G 5G 6G18G26G10G17
  20747248.081     1566389.14349   1234215.70747  20747248.189    20747261.691
       242.000         207.000
  24819243.734    11423315.20549   8888540.65645  24819246.073    24819267.531
       206.000         133.000
  23445922.024   -10999702.68949  -8558820.60745  23445921.017    23445941.979
       216.000         158.000
  20826895.124   -10292320.38049  -7747032.92747  20826894.081    20826907.924
       244.000         210.000
  22288705.914     9466261.79249   7372721.33846  22288706.000    22288723.108
       231.000         181.000
  20996608.597    -8585531.29449  -6679106.47047  20996607.881    20996620.633
       243.000         208.000
  24153748.223    -4215826.78049  -3265090.87645  24153746.539    24153771.137
       211.000         148.000
  24034904.621    -6345326.09349  -4917692.97245  24034902.753    24034930.469
       210.000         145.000
  21405040.130     2286727.10149   1786505.73647  21405039.010    21405053.541
       237.000         198.000
  22365440.317    -9636813.97049  -7072965.86946  22365439.019    22365455.685
       230.000         183.000
 02  3 20 21 59 30.0000000  0 10G30G24G15G23G 5G 6G18G26G10G17
  20757645.109     1621025.74649   1276789.60447  20757645.111    20757658.804
       242.000         207.000
  24833296.837    11497164.09349   8946085.09845  24833295.367    24833320.041
       205.000         133.000
  23433104.903   -11067055.88349  -8611303.34345  23433102.880    23433124.432
       216.000         158.000
  20818974.995   -10333940.48749  -7779464.06547  20818973.714    20818987.498
       244.000         210.000
  22306326.453     9558857.29549   7444873.43046  22306326.392    22306343.997
       231.000         181.000
  20987964.059    -8630958.34849  -6714504.11047  20987963.515    20987976.333
       243.000         208.000
  24133068.815    -4324496.35049  -3349767.99945  24133067.665    24133090.092
       207.000         147.000
  24019478.831    -6426387.36849  -4980857.19245  24019478.821    24019505.080
       213.000         147.000
  21416629.032     2347627.15849   1833960.27347  21416627.757    21416642.581
       238.000         197.000
  22356536.822    -9683601.93849  -7109423.87946  22356535.632    22356552.090
       231.000         183.000
 02  3 20 22  0  0.0000000  0 10G30G24G15G23G 5G 6G18G26G10G17
  20768135.613     1676153.54649   1319746.24847  20768135.539    20768149.290
       243.000         207.000
  24847332.641    11570922.99949   9003559.37544  24847331.111    24847354.087
       204.000         130.000
  23420323.681   -11134220.53249  -8663639.17245  23420321.769    23420343.842
       218.000         158.000
  20811152.003   -10375050.21849  -7811497.51247  20811150.780    20811164.654
       244.000         210.000
  22323992.855     9651693.95349   7517213.42346  22323993.011    22324010.994
       231.000         180.000
  20979357.155    -8676187.62349  -6749747.63847  20979356.474    20979369.127
       243.000         208.000
  24112408.092    -4433066.97849  -3434367.97645  24112406.328    24112431.620
       214.000         148.000
  24004060.620    -6507410.05249  -5043991.37045  24004059.715    24004086.000
       212.000         149.000
  21428310.553     2409013.85349   1881794.01047  21428309.560    21428324.196
       237.000         197.000
  22347671.580    -9730188.32149  -7145724.81446  22347670.530    22347687.249
       231.000         183.000
 02  3 20 22  0 30.0000000  0 10G30G24G15G23G 5G 6G18G26G10G17
  20778718.982     1731769.29149   1363083.10947  20778719.232    20778732.831
       243.000         207.000
  24861351.323    11644590.64249   9060962.61744  24861353.063    24861373.234
       203.000         129.000
  23407578.204   -11201197.94249  -8715829.09545  23407575.762    23407598.414
       215.000         159.000
  20803426.118   -10415649.56549  -7843133.25347  20803425.069    20803438.793
       245.000         210.000
  22341704.439     9744767.98649   7589738.38446  22341704.150    22341722.471
       230.000         180.000
  20970788.005    -8721218.42949  -6784836.51447  20970787.296    20970800.174
       243.000         208.000
  24091766.568    -4541537.15849  -3518889.71545  24091763.309    24091788.993
       209.000         148.000
  23988649.959    -6588392.07349  -5107093.86845  23988648.254    23988674.874
       210.000         145.000
  21440084.031     2470883.60349   1930004.15047  21440082.889    21440097.688
       237.000         197.000
  22338844.467    -9776574.80449  -7181869.98646  22338843.440    22338859.789
       230.000         184.000
 02  3 20 22  1  0.0000000  0 10G30G24G15G23G 5G 6G18G26G10G17
  20789394.951     1787871.57249   1406799.08747  20789395.291    20789408.647
       243.000         207.000
  24875352.585    11718167.07149   9118294.76144  24875352.232    24875375.442
       204.000         128.000
  23394868.288   -11267987.45549  -8767872.59845  23394866.121    23394888.360
       217.000         158.000
  20795797.666   -10455736.94349  -7874370.05447  20795796.550    20795810.167
       245.000         210.000
  22359460.749     9838077.20849   7662446.61546  22359460.318    22359478.240
       230.000         179.000
  20962257.121    -8766048.38949  -6819768.89047  20962256.552    20962269.223
       243.000         208.000
  24071144.620    -4649903.65049  -3603330.65545  24071142.865    24071167.183
       214.000         147.000
  23973247.661    -6669329.44549  -5170161.53045  23973246.267    23973272.367
       211.000         143.000
  21451949.042     2533234.49749   1978589.21247  21451947.985    21451962.017
       237.000         196.000
  22330055.376    -9822761.26449  -7217859.29546  22330054.455    22330070.468
       231.000         184.000
 02  3 20 22  1 30.0000000  0 10G30G24G15G23G 5G 6G18G26G10G17
  20800163.128     1844458.33249   1450892.58147  20800163.446    20800176.958
       243.000         206.000
  24889336.322    11791651.97249   9175555.52744  24889335.422    24889360.241
       205.000         130.000
  23382194.222   -11334589.38349  -8819769.96245  23382193.174    23382214.429
       215.000         158.000
  20788266.885   -10495311.29949  -7905207.09747  20788265.703    20788279.184
       245.000         210.000
  22377261.332     9931618.79549   7735335.89546  22377260.735    22377279.154
       229.000         179.000
  20953764.681    -8810675.97349  -6854543.56347  20953764.001    20953776.538
       244.000         208.000
  24050542.991    -4758164.29249  -3687689.12745  24050541.666    24050565.218
       213.000         149.000
  23957854.619    -6750219.08049  -5233192.02045  23957853.543    23957879.345
       212.000         146.000
  21463905.102     2596063.89149   2027547.13047  21463903.978    21463918.533
       237.000         196.000
  22321304.225    -9868748.20749  -7253693.13546  22321302.944    22321319.667
       231.000         184.000
 02  3 20 22  2  0.0000000  0  9G30G15G23G 5G 6G18G26G10G17
  20811021.788     1901520.65149   1495356.64147  20811021.869    20811035.467
       243.000         206.000
  23369554.379   -11401010.34949  -8871526.29545  23369552.935    23369574.535
       218.000         158.000
  20780832.586   -10534378.35049  -7935648.83647  20780831.390    20780845.197
       244.000         210.000
  22395104.294    10025383.39549   7808398.95546  22395103.992    22395122.228
       229.000         178.000
  20945309.890    -8855106.02749  -6889164.32347  20945309.044    20945322.073
       243.000         208.000
  24029960.570    -4866323.47749  -3771968.52945  24029958.906    24029982.988
       211.000         149.000
  23942469.982    -6831064.33449  -5296187.89945  23942468.254    23942496.066
       209.000         148.000
  21475950.492     2659362.52749   2076870.69347  21475949.609    21475964.090
       237.000         196.000
  22312589.655    -9914543.00849  -7289377.26646  22312588.546    22312604.739
       230.000         184.000
 02  3 20 22  2 30.0000000  0  9G30G15G23G 5G 6G18G26G10G17
  20821972.374     1959065.92149   1540197.02347  20821972.478    20821985.853
       243.000         206.000
  23356950.993   -11467240.97549  -8923134.30545  23356948.791    23356970.946
       216.000         158.000
  20773496.795   -10572927.70449  -7965687.17747  20773495.648    20773509.331
       245.000         210.000
  22412990.986    10119377.66449   7881640.97446  22412991.049    22413009.666
       230.000         178.000
  20936894.806    -8899327.34349  -6923622.42847  20936894.050    20936906.932
       243.000         209.000
  24009399.820    -4974369.37549  -3856159.72345  24009397.520    24009421.839
       216.000         150.000
  23927096.047    -6911852.57149  -5359139.31145  23927093.548    23927120.972
       206.000         147.000
  21488086.585     2723137.85949   2126565.70647  21488085.418    21488099.641
       237.000         195.000
  22303913.376    -9960136.61449  -7324904.61546  22303912.103    22303928.565
       231.000         185.000
 02  3 20 22  3  0.0000000  0  9G30G15G23G 5G 6G18G26G10G17
  20833014.389     2017091.76249   1585411.87847  20833014.494    20833028.137
       243.000         206.000
  23344383.602   -11533281.85249  -8974594.49245  23344381.731    23344403.353
       214.000         159.000
  20766259.646   -10610958.57849  -7995321.50647  20766258.418    20766272.112
       245.000         211.000
  22430920.837    10213598.73149   7955059.71346  22430920.827    22430938.841
       228.000         178.000
  20928519.767    -8943338.33049  -6957916.63547  20928519.108    20928531.796
       244.000         209.000
  23988860.984    -5082299.74949  -3940260.84345  23988858.649    23988883.132
       212.000         151.000
  23911733.517    -6992580.65549  -5422043.85745  23911732.362    23911758.145
       212.000         145.000
  21500312.792     2787386.85149   2176629.81547  21500311.464    21500325.985
       236.000         195.000
  22295275.280   -10005529.78349  -7360275.76946  22295273.523    22295290.458
       230.000         185.000
 02  3 20 22  3 30.0000000  0  9G30G15G23G 5G 6G18G26G10G17
  20844147.156     2075594.32249   1630998.19947  20844147.587    20844160.926
       243.000         206.000
  23331852.031   -11599134.52349  -9025908.01345  23331850.616    23331871.389
       215.000         158.000
  20759121.031   -10648471.80749  -8024552.47947  20759119.850    20759133.712
       243.000         211.000
  22448892.965    10308042.04649   8028651.63646  22448892.845    22448910.929
       229.000         177.000
  20920184.765    -8987138.84449  -6992046.83847  20920184.068    20920196.576
       244.000         209.000
  23968344.341    -5190113.65849  -4024271.26345  23968343.131    23968366.495
       212.000         152.000
  23896383.103    -7073247.16149  -5484900.45545  23896381.909    23896408.007
       213.000         147.000
  21512628.317     2852105.12949   2227059.59447  21512627.358    21512641.994
       237.000         195.000
  22286674.813   -10050724.73749  -7395492.48346  22286673.527    22286690.271
       230.000         185.000
 02  3 20 22  4  0.0000000  0  9G30G15G23G 5G 6G18G26G10G17
  20855370.193     2134571.18149   1676954.10747  20855370.228    20855383.745
       243.000         206.000
  23319356.219   -11664799.48949  -9077075.25845  23319354.637    23319375.980
       216.000         159.000
  20752081.029   -10685466.84249  -8053379.66947  20752079.914    20752093.430
       243.000         211.000
  22466906.867    10402704.61649   8102414.39746  22466906.864    22466925.402
       227.000         177.000
  20911890.048    -9030727.56149  -7026012.01147  20911889.260    20911902.036
       243.000         209.000
  23947850.204    -5297809.26849  -4108189.51245  23947848.390    23947872.228
       210.000         151.000
  23881044.832    -7153849.01449  -5547706.60745  23881043.867    23881069.642
       211.000         149.000
  21525032.663     2917290.15049   2277853.06747  21525031.511    21525046.249
       236.000         195.000
  22278111.941   -10095722.41649  -7430555.46146  22278110.945    22278126.940
       230.000         185.000
 02  3 20 22  4 30.0000000  0  9G30G15G23G 5G 6G18G26G10G17
  20866683.004     2194020.00949   1723277.77847  20866683.106    20866696.843
       243.000         206.000
  23306896.011   -11730276.92449  -9128096.38945  23306895.472    23306915.431
       216.000         159.000
  20745139.774   -10721942.85449  -8081802.42147  20745138.729    20745152.102
       243.000         211.000
  22484961.912    10497583.63449   8176345.82746  22484961.085    22484979.625
       228.000         177.000
  20903635.990    -9074102.62349  -7059810.69747  20903635.135    20903647.937
       243.000         209.000
  23927379.001    -5405384.33749  -4192013.79745  23927377.781    23927401.541
       213.000         152.000
  23865719.341    -7234383.01949  -5610459.87445  23865717.248    23865744.054
       210.000         149.000
  21537525.278     2982939.33349   2329008.21747  21537524.192    21537539.290
       236.000         195.000
  22269586.506   -10140523.35449  -7465465.13946  22269585.237    22269601.858
       232.000         185.000
 02  3 20 22  5  0.0000000  0  9G30G15G23G 5G 6G18G26G10G17
  20878085.145     2253938.21049   1769967.19847  20878085.442    20878099.020
       243.000         206.000
  23294471.570   -11795567.38449  -9178971.82645  23294470.394    23294491.061
       219.000         159.000
  20738297.391   -10757899.35249  -8109820.36147  20738296.266    20738309.715
       244.000         211.000
  22503057.630    10592676.19749   8250443.64746  22503058.267    22503075.783
       228.000         177.000
  20895422.813    -9117262.80649  -7093441.95147  20895422.200    20895434.880
       244.000         209.000
  23906931.187    -5512836.62549  -4275742.44545  23906929.237    23906953.891
       212.000         152.000
  23850407.312    -7314846.19749  -5673157.96645  23850405.108    23850431.071
       210.000         147.000
  21550105.690     3049049.46049   2380522.55247  21550104.413    21550119.392
       236.000         195.000
  22261098.330   -10185128.41049  -7500222.18146  22261097.093    22261113.971
       232.000         185.000
 02  3 20 22  5 30.0000000  0  9G30G15G23G 5G 6G18G26G10G17
  20889576.132     2314323.40849   1817020.50547  20889576.217    20889589.811
       243.000         206.000
  23282082.550   -11860671.27749  -9229701.90345  23282081.261    23282100.872
       216.000         158.000
  20731554.025   -10793335.65549  -8137432.95347  20731552.885    20731566.330
       244.000         211.000
  22521193.388    10687979.17949   8324705.43246  22521193.013    22521211.709
       227.000         176.000
  20887250.879    -9160206.35149  -7126904.39847  20887250.128    20887262.727
       244.000         209.000
  23886507.166    -5620164.03149  -4359373.78945  23886505.906    23886529.373
       216.000         152.000
  23835109.486    -7395235.51649  -5735798.51945  23835108.678    23835132.949
       214.000         147.000
  21562773.249     3115617.92549   2432394.02347  21562772.233    21562786.981
       236.000         195.000
  22252647.270   -10229538.53749  -7534827.33646  22252645.974    22252662.726
       230.000         186.000
 02  3 20 22  6  0.0000000  0  9G30G15G23G 5G 6G18G26G10G17
  20901155.544     2375173.21949   1864435.84947  20901155.611    20901169.414
       243.000         206.000
  23269728.879   -11925588.90849  -9280286.81845  23269727.893    23269748.150
       217.000         158.000
  20724909.739   -10828250.98449  -8164639.59347  20724908.704    20724922.031
       243.000         211.000
  22539368.636    10783489.73449   8399128.96246  22539368.170    22539386.520
       227.000         176.000
  20879120.505    -9202931.63949  -7160196.77247  20879119.846    20879132.490
       244.000         209.000
  23866107.340    -5727364.50349  -4442906.20845  23866104.879    23866128.896
       214.000         151.000
  23819826.257    -7475547.87849  -5798379.09445  23819824.419    23819850.699
       210.000         148.000
  21575527.590     3182642.29149   2484620.74447  21575526.694    21575541.345
       236.000         195.000
  22244233.214   -10273754.20949  -7569280.96346  22244232.089    22244248.594
       231.000         186.000
 02  3 20 22  6 30.0000000  0  9G30G15G23G 5G 6G18G26G10G17
  20912822.991     2436485.79649   1912211.79147  20912823.144    20912836.759
       243.000         206.000
  23257410.755   -11990320.02949  -9330726.41845  23257409.031    23257430.652
       216.000         158.000
  20718364.830   -10862644.27249  -8191439.45047  20718363.785    20718377.148
       243.000         211.000
  22557583.013    10879205.80549   8473712.62046  22557582.630    22557602.050
       226.000         176.000
  20871032.029    -9245436.39149  -7193317.29847  20871031.326    20871044.025
       244.000         209.000
  23845732.207    -5834434.90149  -4526337.27245  23845730.115    23845752.851
       214.000         152.000
  23804558.173    -7555779.46249  -5860896.68145  23804556.918    23804582.772
       210.000         148.000
  21588368.260     3250120.28849   2537200.94047  21588367.494    21588382.060
       235.000         194.000
  22235856.087   -10317775.68849  -7603583.28046  22235854.808    22235871.439
       231.000         187.000
 02  3 20 22  7  0.0000000  0  9G30G15G23G 5G 6G18G26G10G17
  20924578.114     2498258.83149   1960346.52647  20924578.246    20924592.179
       243.000         206.000
  23245128.109   -12054864.96649  -9381020.93445  23245126.834    23245147.211
       216.000         158.000
  20711919.372   -10896514.89449  -8217832.03947  20711918.097    20711931.797
       243.000         211.000
  22575835.930    10975124.49249   8548454.16646  22575836.124    22575854.903
       225.000         175.000
  20862985.862    -9287719.03949  -7226264.76347  20862985.286    20862998.092
       243.000         209.000
  23825382.277    -5941373.02949  -4609665.26745  23825380.382    23825403.713
       214.000         151.000
  23789306.197    -7635927.09049  -5923348.86845  23789304.227    23789330.920
       212.000         149.000
  21601294.758     3318049.12949   2590132.44947  21601293.825    21601308.883
       236.000         194.000
  22227515.768   -10361603.53349  -7637734.70846  22227514.282    22227531.228
       230.000         187.000
 02  3 20 22  7 30.0000000  0  9G30G15G23G 5G 6G18G26G10G17
  20936420.360     2560489.92749   2008838.19247  20936420.528    20936434.450
       243.000         206.000
  23232880.849   -12119223.79249  -9431170.44045  23232879.352    23232899.131
       217.000         159.000
  20705573.548   -10929862.13949  -8243816.80147  20705572.361    20705586.010
       244.000         211.000
  22594126.819    11071242.81849   8623351.27346  22594126.732    22594145.755
       225.000         175.000
  20854982.343    -9329777.57149  -7259037.59047  20854981.667    20854994.417
       244.000         210.000
  23805057.964    -6048176.48349  -4692888.33645  23805056.672    23805077.556
       216.000         151.000
  23774070.889    -7715987.44849  -5985733.10745  23774069.524    23774093.813
       213.000         149.000
  21614306.475     3386425.92449   2643413.00747  21614305.418    21614320.121
       235.000         194.000
  22219212.178   -10405238.54349  -7671735.87746  22219210.601    22219227.213
       231.000         187.000
 02  3 20 22  8  0.0000000  0  9G30G15G23G 5G 6G18G26G10G17
  20948349.357     2623176.70449   2057684.93447  20948349.479    20948363.248
       243.000         205.000
  23220669.026   -12183396.67149  -9481175.03945  23220666.827    23220687.844
       218.000         159.000
  20699327.451   -10962685.04149  -8269392.98847  20699326.305    20699339.694
       244.000         212.000
  22612455.217    11167558.09049   8698401.84546  22612454.244    22612473.939
       224.000         174.000
  20847021.879    -9371610.14549  -7291634.34747  20847021.188    20847033.897
       244.000         210.000
  23784759.694    -6154842.89849  -4776004.59345  23784758.145    23784781.160
       217.000         151.000
  23758852.751    -7795957.24649  -6048046.75245  23758849.631    23758876.268
       208.000         147.000
  21627402.981     3455248.14349   2697040.63847  21627402.661    21627416.641
       235.000         194.000
  22210945.310   -10448680.93049  -7705586.95146  22210944.033    22210960.737
       231.000         187.000
 02  3 20 22  8 30.0000000  0  9G30G15G23G 5G 6G18G26G10G17
  20960364.587     2686316.89849   2106884.98547  20960364.801    20960378.356
       243.000         205.000
  23208492.469   -12247383.92349  -9531035.00045  23208490.606    23208510.744
       217.000         160.000
  20693181.241   -10994983.09149  -8294560.20147  20693180.050    20693193.574
       243.000         211.000
  22630820.554    11264067.48349   8773603.67746  22630820.669    22630839.454
       226.000         174.000
  20839104.666    -9413215.17849  -7324053.80047  20839104.028    20839116.544
       244.000         210.000
  23764487.964    -6261370.00449  -4859012.31945  23764486.029    23764508.418
       216.000         152.000
  23743652.208    -7875833.30449  -6110287.32745  23743651.172    23743676.533
       211.000         148.000
  21640583.746     3524513.23249   2751013.37247  21640582.856    21640597.336
       236.000         194.000
  22202714.853   -10491931.69649  -7739288.71147  22202713.681    22202729.932
       232.000         188.000
 02  3 20 22  9  0.0000000  0  9G30G15G23G 5G 6G18G26G10G17
  20972465.682     2749908.05949   2156436.44047  20972465.894    20972479.473
       243.000         205.000
  23196351.162   -12311185.91149  -9580750.61045  23196349.881    23196369.679
       217.000         160.000
  20687134.990   -11026755.89849  -8319318.13647  20687133.865    20687147.178
       243.000         211.000
  22649222.305    11360768.20349   8848954.58846  22649221.720    22649241.738
       224.000         173.000
  20831231.065    -9454590.82249  -7356294.50847  20831230.549    20831243.107
       244.000         210.000
  23744243.132    -6367755.56749  -4941909.74145  23744241.733    23744263.091
       215.000         152.000
  23728470.619    -7955612.30749  -6172452.33745  23728469.622    23728494.324
       214.000         152.000
  21653848.290     3594218.31949   2805328.96047  21653847.263    21653862.039
       235.000         193.000
  22194520.802   -10534991.39549  -7772841.58847  22194519.874    22194535.533
       232.000         188.000
 02  3 20 22  9 30.0000000  0  9G30G15G23G 5G 6G18G26G10G17
  20984652.100     2813947.81749   2206337.45047  20984652.128    20984666.172
       242.000         205.000
  23184245.092   -12374802.80449  -9630321.99445  23184244.142    23184263.785
       219.000         160.000
  20681188.860   -11058002.58549  -8343666.10947  20681187.692    20681200.987
       243.000         211.000
  22667659.967    11457657.61849   8924452.54246  22667660.006    22667679.771
       225.000         173.000
  20823401.488    -9495735.24649  -7388355.04947  20823400.900    20823413.361
       244.000         210.000
  23724025.756    -6473997.13149  -5024694.94645  23724024.510    23724046.776
       217.000         153.000
  23713307.951    -8035290.87749  -6234539.06345  23713306.180    23713331.591
       211.000         151.000
  21667196.031     3664361.19949   2859985.67847  21667194.743    21667209.757
       235.000         193.000
  22186363.006   -10577860.56049  -7806246.00447  22186362.101    22186378.052
       232.000         188.000
 02  3 20 22 10  0.0000000  0  9G30G15G23G 5G 6G18G26G10G17
  20996923.463     2878433.91549   2256586.25147  20996923.832    20996937.616
       242.000         205.000
  23172174.399   -12438234.55549  -9679749.09645  23172172.429    23172193.053
       220.000         160.000
  20675343.013   -11088722.33249  -8367603.48447  20675341.889    20675355.200
       244.000         212.000
  22686132.998    11554732.78349   9000095.23746  22686132.317    22686153.418
       224.000         173.000
  20815616.305    -9536646.57849  -7420233.96047  20815615.679    20815628.152
       244.000         210.000
  23703836.250    -6580092.26649  -5107366.06645  23703834.627    23703856.374
       215.000         153.000
  23698164.907    -8114865.50149  -6296544.80545  23698163.423    23698186.988
       210.000         149.000
  21680626.627     3734939.12249   2914981.39347  21680625.176    21680640.018
       234.000         192.000
  22178241.343   -10620539.71349  -7839502.35247  22178240.124    22178256.391
       231.000         188.000
 02  3 20 22 10 30.0000000  0  9G30G15G23G 5G 6G18G26G10G17
  21009279.301     2943363.97949   2307181.00047  21009279.508    21009293.251
       242.000         204.000
  23160138.762   -12501481.52449  -9729032.22845  23160136.901    23160157.691
       221.000         161.000
  20669597.502   -11118914.80249  -8391129.99347  20669596.336    20669609.848
       244.000         212.000
  22704640.845    11651991.05949   9075880.60946  22704640.604    22704660.374
       224.000         172.000
  20807875.747    -9577323.23949  -7451930.00947  20807874.888    20807887.686
       244.000         210.000
  23683675.075    -6686038.42649  -5189921.07545  23683673.674    23683695.784
       215.000         153.000
  23683042.492    -8194332.96949  -6358467.08845  23683041.472    23683064.979
       213.000         150.000
  21694139.441     3805949.31349   2970313.93747  21694138.500    21694153.487
       234.000         192.000
  22170155.697   -10663029.57449  -7872611.20747  22170154.302    22170170.528
       232.000         188.000
 02  3 20 22 11  0.0000000  0  9G30G15G23G 5G 6G18G26G10G17
  21021719.163     3008735.66549   2358119.87147  21021719.217    21021733.385
       242.000         204.000
  23148138.360   -12564543.59149  -9778171.29845  23148137.228    23148156.619
       220.000         161.000
  20663952.488   -11148579.16549  -8414244.99147  20663951.334    20663964.758
       244.000         212.000
  22723183.092    11749430.09149   9151806.83346  22723182.948    22723202.894
       224.000         172.000
  20800180.271    -9617763.03649  -7483441.48647  20800179.515    20800192.037
       244.000         210.000
  23663542.647    -6791833.29149  -5272358.22045  23663540.991    23663562.911
       218.000         153.000
  23667941.156    -8273689.77649  -6420303.12345  23667939.996    23667963.947
       209.000         152.000
  21707734.013     3877389.15449   3025981.27347  21707733.309    21707747.984
       234.000         192.000
  22162105.995   -10705330.39549  -7905572.76347  22162104.814    22162121.150
       232.000         188.000
 02  3 20 22 11 30.0000000  0  9G30G15G23G 5G 6G18G26G10G17
  21034242.611     3074546.41349   2409400.86447  21034242.837    21034256.934
       242.000         204.000
  23136172.918   -12627421.44049  -9827166.79445  23136169.633    23136190.273
       220.000         162.000
  20658408.077   -11177715.07549  -8436948.21647  20658407.002    20658420.119
       244.000         212.000
  22741759.235    11847047.04849   9227871.70246  22741759.707    22741778.421
       225.000         172.000
  20792530.163    -9657964.32549  -7514767.11247  20792529.411    20792542.028
       244.000         210.000
  23643439.384    -6897474.62449  -5354675.70845  23643436.849    23643458.942
       215.000         153.000
  23652861.380    -8352932.74049  -6482050.42145  23652859.986    23652883.340
       210.000         152.000
  21721409.820     3949255.96749   3081981.31047  21721408.342    21721423.456
       235.000         192.000
  22154092.129   -10747443.04649  -7938387.69747  22154090.822    22154107.053
       231.000         188.000
 02  3 20 22 12  0.0000000  0  9G30G15G23G 5G 6G18G26G10G17
  21046849.187     3140794.22049   2461022.42347  21046849.170    21046863.518
       241.000         203.000
  23124242.556   -12690114.90049  -9876018.62445  23124240.621    23124260.426
       218.000         162.000
  20652964.355   -11206321.68549  -8459238.99947  20652963.341    20652976.358
       244.000         212.000
  22760368.687    11944839.17849   9304073.07046  22760368.455    22760388.458
       226.000         171.000
  20784925.872    -9697925.02649  -7545905.26547  20784925.266    20784937.798
       245.000         211.000
  23623365.889    -7002959.72549  -5436871.48045  23623365.025    23623385.160
       218.000         155.000
  23637803.955    -8432058.25149  -6543706.23645  23637803.179    23637825.789
       213.000         150.000
  21735166.430     4021547.30449   3138312.14347  21735165.398    21735180.384
       234.000         191.000
  22146113.972   -10789367.89049  -7971056.29147  22146112.805    22146128.863
       232.000         188.000
 02  3 20 22 12 30.0000000  0  9G30G15G23G 5G 6G18G26G10G17
  21059538.384     3207476.11549   2512982.22747  21059538.485    21059552.642
       240.000         203.000
  23112347.180   -12752624.65549  -9924727.31545  23112345.696    23112365.928
       220.000         162.000
  20647621.373   -11234398.99949  -8481117.34147  20647620.380    20647633.585
       244.000         212.000
  22779010.866    12042803.17849   9380408.34946  22779011.259    22779031.202
       224.000         171.000
  20777367.693    -9737643.63349  -7576854.77647  20777367.138    20777379.689
       245.000         211.000
  23603322.526    -7108286.86749  -5518944.16345  23603320.691    23603342.657
       216.000         155.000
  23622769.603    -8511063.27549  -6605268.20545  23622768.857    23622792.211
       214.000         151.000
  21749003.278     4094259.98449   3194971.30547  21749002.529    21749017.277
       235.000         191.000
  22138171.404   -10831105.99849  -8003579.38947  22138169.924    22138186.529
       231.000         188.000
 02  3 20 22 13  0.0000000  0  9G30G15G23G 5G 6G18G26G10G17
  21072309.763     3274589.75449   2565278.45947  21072310.063    21072323.914
       240.000         203.000
  23100486.698   -12814950.70749  -9973292.86346  23100485.007    23100505.618
       220.000         163.000
  20642379.224   -11261946.35849  -8502582.73247  20642378.149    20642391.250
       243.000         212.000
  22797685.289    12140936.69049   9456875.72446  22797685.541    22797705.068
       224.000         171.000
  20769855.923    -9777118.12249  -7607614.05947  20769855.238    20769867.742
       245.000         211.000
  23583309.744    -7213453.38149  -5600891.68945  23583307.686    23583329.231
       219.000         156.000
  23607758.720    -8589944.42949  -6666733.61645  23607757.230    23607781.975
       210.000         153.000
  21762919.840     4167391.55449   3251956.87047  21762919.135    21762933.767
       235.000         192.000
  22130264.253   -10872657.67849  -8035957.21747  22130263.347    22130279.020
       231.000         189.000
 02  3 20 22 13 30.0000000  0  9G30G15G23G 5G 6G18G26G10G17
  21085162.878     3342132.91849   2617909.38447  21085163.155    21085177.266
       241.000         203.000
  23088661.230   -12877093.36549 -10021715.50046  23088659.813    23088680.069
       221.000         163.000
  20637238.015   -11288963.08649  -8523634.64347  20637236.858    20637250.179
       244.000         212.000
  22816391.448    12239236.76449   9533472.89646  22816391.301    22816411.780
       224.000         171.000
  20762390.961    -9816346.54149  -7638181.60047  20762390.226    20762402.837
       245.000         211.000
  23563327.964    -7318456.66749  -5682712.01645  23563325.679    23563348.019
       218.000         156.000
  23592771.922    -8668698.14249  -6728099.70645  23592770.095    23592795.060
       211.000         153.000
  21776915.610     4240939.25949   3309266.69547  21776914.556    21776929.457
       234.000         192.000
  22122392.497   -10914023.57749  -8068190.28247  22122391.067    22122407.199
       231.000         189.000
 02  3 20 22 14  0.0000000  0  9G30G15G23G 5G 6G18G26G10G17
  21098097.308     3410103.13849   2670873.07947  21098097.701    21098111.736
       240.000         203.000
  23076870.736   -12939052.56449 -10069995.18146  23076868.946    23076889.291
       220.000         163.000
  20632197.964   -11315448.57749  -8544272.60747  20632197.017    20632210.024
       244.000         212.000
  22835128.797    12337700.88649   9610197.88646  22835128.270    22835148.634
       223.000         170.000
  20754973.179    -9855327.01449  -7668555.93847  20754972.551    20754985.000
       244.000         212.000
  23543377.704    -7423294.38649  -5764403.33045  23543375.930    23543398.002
       216.000         158.000
  23577810.162    -8747320.99449  -6789363.86245  23577809.162    23577833.040
       213.000         153.000
  21790990.079     4314900.67849   3366898.89247  21790989.662    21791003.771
       235.000         192.000
  22114556.048   -10955204.13849  -8100278.92847  22114554.882    22114571.240
       231.000         189.000
 02  3 20 22 14 30.0000000  0  9G30G15G23G 5G 6G18G26G10G17
  21111112.429     3478497.47349   2724167.25347  21111112.801    21111126.803
       241.000         203.000
  23065114.889   -13000829.19049 -10118132.60546  23065113.124    23065133.533
       221.000         164.000
  20627258.940   -11341402.87549  -8564496.65547  20627257.787    20627271.117
       244.000         212.000
  22853896.736    12436325.95449   9687048.27346  22853897.286    22853916.019
       224.000         170.000
  20747602.846    -9894058.23949  -7698736.05947  20747602.184    20747614.583
       244.000         212.000
  23523459.269    -7527964.70949  -5845964.21245  23523457.629    23523479.047
       216.000         157.000
  23562874.057    -8825809.87649  -6850523.66945  23562872.663    23562895.971
       212.000         153.000
  21805142.668     4389272.65749   3424851.01247  21805141.994    21805156.550
       234.000         191.000
  22106754.631   -10996200.24849  -8132223.85247  22106753.743    22106769.774
       231.000         189.000
 02  3 20 22 15  0.0000000  0  9G30G15G23G 5G 6G18G26G10G17
  21124207.904     3547314.02949   2777790.42747  21124207.915    21124222.073
       240.000         203.000
  23053393.806   -13062422.89949 -10166127.48146  23053391.569    23053411.677
       220.000         164.000
  20622421.186   -11366825.16549  -8584306.15147  20622420.186    20622433.293
       244.000         212.000
  22872694.888    12535109.72349   9764022.34546  22872695.472    22872715.026
       223.000         170.000
  20740280.404    -9932537.89849  -7728720.15747  20740279.693    20740292.022
       244.000         212.000
  23503573.238    -7632464.62549  -5927392.30045  23503571.946    23503592.828
       218.000         158.000
  23547963.959    -8904160.95049  -6911576.07145  23547961.406    23547985.209
       209.000         150.000
  21819372.958     4464053.01149   3483121.34947  21819371.973    21819386.487
       234.000         191.000
  22098988.325   -11037012.12049  -8164025.20747  22098987.289    22099003.095
       231.000         189.000
 02  3 20 22 15 30.0000000  0  9G30G15G23G 5G 6G18G26G10G17
  21137383.221     3616550.36749   2831740.70447  21137383.314    21137397.670
       241.000         203.000
  23041707.397   -13123833.66949 -10213979.80646  23041705.329    23041725.912
       218.000         164.000
  20617684.780   -11391714.84849  -8603700.63247  20617683.645    20617696.939
       244.000         212.000
  22891522.748    12634049.59149   9841118.03746  22891522.619    22891542.603
       223.000         169.000
  20733006.187    -9970764.04549  -7758506.71247  20733005.439    20733017.865
       244.000         212.000
  23483720.122    -7736791.66649  -6008685.68745  23483718.130    23483739.350
       219.000         158.000
  23533080.707    -8982370.77149  -6972518.38745  23533079.018    23533103.764
       213.000         153.000
  21833680.454     4539239.04549   3541707.79547  21833679.628    21833694.723
       234.000         191.000
  22091256.956   -11077640.35749  -8195683.47747  22091256.122    22091271.406
       231.000         189.000
 02  3 20 22 16  0.0000000  0  9G30G15G23G 5G 6G18G26G10G17
  21150637.902     3686203.61549   2886015.84547  21150637.978    21150652.477
       241.000         203.000
  23030055.694   -13185062.21349 -10261690.13046  23030054.585    23030074.074
       220.000         164.000
  20613049.724   -11416072.01249  -8622680.16248  20613048.643    20613061.718
       244.000         213.000
  22910379.685    12733142.31749   9918332.83846  22910379.474    22910399.754
       223.000         169.000
  20725780.512   -10008734.97849  -7788094.39047  20725779.631    20725791.883
       244.000         212.000
  23463900.355    -7840943.72449  -6089842.72045  23463898.941    23463918.859
       218.000         159.000
  23518224.984    -9060436.30549  -7033348.29745  23518223.553    23518247.619
       212.000         155.000
  21848064.569     4614827.75049   3600608.01547  21848063.251    21848078.539
       234.000         190.000
  22083560.356   -11118085.87149  -8227199.36047  22083559.610    22083575.032
       232.000         189.000
 02  3 20 22 16 30.0000000  0  9G30G15G23G 5G 6G18G26G10G17
  21163971.253     3756270.36049   2940613.18847  21163971.517    21163985.652
       241.000         203.000
  23018438.676   -13246109.39949 -10309259.14446  23018436.758    23018456.772
       222.000         164.000
  20608515.927   -11439897.07249  -8641245.06848  20608515.122    20608527.939
       244.000         213.000
  22929265.058    12832384.53449   9995664.12946  22929264.600    22929285.242
       221.000         168.000
  20718603.631   -10046449.44349  -7817482.23147  20718602.960    20718615.201
       244.000         212.000
  23444114.053    -7944919.27949  -6170862.21745  23444112.009    23444133.771
       221.000         159.000
  23503397.403    -9138354.89349  -7094063.72445  23503396.207    23503419.222
       213.000         155.000
  21862524.548     4690815.24449   3659818.96847  21862523.650    21862538.415
       233.000         190.000
  22075898.333   -11158349.98249  -8258573.87947  22075897.064    22075912.956
       232.000         190.000
 02  3 20 22 17  0.0000000  0  9G30G15G23G 5G 6G18G26G10G17
  21177382.997     3826749.12349   2995531.58447  21177383.123    21177397.534
       240.000         202.000
  23006856.326   -13306974.76549 -10356686.47746  23006854.996    23006874.691
       220.000         164.000
  20604083.625   -11463188.81449  -8659394.40148  20604082.540    20604095.572
       244.000         213.000
  22948178.562    12931774.45549  10073110.51446  22948178.716    22948199.582
       221.000         168.000
  20711476.086   -10083904.85049  -7846668.20647  20711475.364    20711487.635
       244.000         212.000
  23424362.037    -8048715.32149  -6251741.82645  23424359.074    23424380.464
       217.000         159.000
  23488598.389    -9216122.13149  -7154661.20645  23488596.293    23488620.157
       210.000         151.000
  21877060.070     4767199.86449   3719339.37647  21877059.417    21877074.204
       233.000         189.000
  22068270.813   -11198432.49049  -8289806.90247  22068269.235    22068285.408
       233.000         190.000
 02  3 20 22 17 30.0000000  0  9G30G15G23G 5G 6G18G26G10G17
  21190872.687     3897637.55549   3050769.19847  21190872.914    21190887.198
       240.000         202.000
  22995308.416   -13367658.38849 -10403972.18946  22995306.451    22995326.170
       219.000         164.000
  20599752.874   -11485946.72949  -8677127.76548  20599751.649    20599764.748
       244.000         213.000
  22967119.640    13031309.51449  10150669.99846  22967119.574    22967140.148
       221.000         167.000
  20704398.186   -10121099.07549  -7875650.66447  20704397.594    20704409.866
       244.000         212.000
  23404644.657    -8152329.11949  -6332479.43345  23404642.203    23404663.136
       217.000         159.000
  23473828.888    -9293734.53649  -7215138.04445  23473828.187    23473850.679
       216.000         153.000
  21891670.765     4843979.19249   3779167.34547  21891669.892    21891685.016
       233.000         189.000
  22060677.760   -11238333.75649  -8320898.69947  22060676.511    22060692.270
       232.000         190.000
 02  3 20 22 18  0.0000000  0  9G30G15G23G 5G 6G18G26G10G17
  21204439.680     3968932.24249   3106323.37947  21204439.812    21204454.113
       240.000         202.000
  22983794.837   -13428161.16249 -10451116.98146  22983794.450    22983813.137
       220.000         164.000
  20595523.578   -11508171.31849  -8694445.55248  20595522.476    20595535.478
       243.000         213.000
  22986087.748    13130986.28349  10228339.88546  22986088.012    22986108.582
       221.000         167.000
  20697370.241   -10158031.01049  -7904428.74147  20697369.649    20697381.799
       244.000         212.000
  23384962.281    -8255759.03949  -6413073.77445  23384961.128    23384981.070
       217.000         159.000
  23459089.602    -9371189.37949  -7275492.10845  23459088.531    23459111.769
       214.000         157.000
  21906355.909     4921149.86749   3839300.25747  21906354.926    21906369.973
       233.000         189.000
  22053118.971   -11278055.04449  -8351850.24947  22053117.904    22053133.446
       233.000         190.000
 02  3 20 22 18 30.0000000  0  9G30G15G23G 5G 6G18G26G10G17
  21218083.513     4040630.45049   3162191.98747  21218083.546    21218098.109
       240.000         202.000
  22972315.728   -13488483.58649 -10498121.23646  22972314.018    22972333.176
       220.000         164.000
  20591395.812   -11529862.49149  -8711347.68648  20591394.754    20591407.774
       244.000         213.000
  23005082.219    13230801.79649  10306117.89046  23005081.723    23005103.091
       220.000         166.000
  20690392.439   -10194699.16049  -7933001.26747  20690391.710    20690404.093
       244.000         212.000
  23365315.268    -8359003.09249  -6493523.26945  23365312.910    23365333.477
       218.000         160.000
  23444380.808    -9448483.41249  -7335720.84845  23444379.094    23444402.928
       213.000         157.000
  21921114.965     4998708.86649   3899735.76847  21921113.709    21921128.921
       233.000         188.000
  22045594.232   -11317597.32949  -8382662.30947  22045592.994    22045608.390
       232.000         190.000
 02  3 20 22 19  0.0000000  0  9G30G15G23G 5G 6G18G26G10G17
  21231803.711     4112730.07049   3218373.38547  21231803.758    21231818.201
       240.000         201.000
  22960871.047   -13548625.41649 -10544984.77646  22960869.261    22960888.774
       220.000         164.000
  20587369.727   -11551019.39149  -8727833.50648  20587368.691    20587381.504
       244.000         213.000
  23024102.672    13330753.92649  10384002.35046  23024102.595    23024123.327
       219.000         166.000
  20683465.395   -10231100.96749  -7961366.25948  20683464.765    20683477.072
       244.000         213.000
  23345704.174    -8462058.28049  -6573825.60745  23345702.556    23345723.031
       219.000         159.000
  23429703.256    -9525612.70749  -7395821.22645  23429701.975    23429724.179
       214.000         155.000
  21935947.479     5076653.90049   3960472.08247  21935946.420    21935961.548
       233.000         188.000
  22038103.541   -11356960.66449  -8413334.93947  22038102.529    22038118.047
       233.000         190.000
 02  3 20 22 19 30.0000000  0  9G30G15G23G 5G 6G18G26G10G17
  21245599.823     4185228.48549   3274865.53047  21245600.117    21245614.428
       240.000         201.000
  22949460.443   -13608587.10949 -10591707.94946  22949458.111    22949478.549
       220.000         164.000
  20583445.351   -11571641.95549  -8743902.96248  20583444.318    20583457.189
       244.000         213.000
  23043148.548    13430839.73549  10461990.97046  23043148.500    23043169.576
       220.000         166.000
  20676589.338   -10267234.72449  -7989522.38048  20676588.636    20676601.037
       244.000         213.000
  23326129.546    -8564922.19149  -6653978.89445  23326128.148    23326148.050
       220.000         160.000
  23415057.862    -9602573.87349  -7455790.64345  23415057.113    23415078.176
       218.000         155.000
  21950852.913     5154981.92749   4021506.82047  21950851.831    21950867.154
       233.000         188.000
  22030646.756   -11396145.76349  -8443868.67847  22030645.611    22030661.002
       234.000         190.000
 02  3 20 22 20  0.0000000  0  9G30G15G23G 5G 6G18G26G10G17
  21259471.351     4258123.19949   3331666.47447  21259471.754    21259486.055
       240.000         201.000
  22938084.231   -13668368.59349 -10638290.71346  22938081.497    22938102.191
       217.000         164.000
  20579622.706   -11591729.80049  -8759555.75348  20579621.634    20579634.679
       244.000         213.000
  23062219.423    13531056.70349  10540081.78946  23062218.928    23062240.761
       220.000         165.000
  20669764.713   -10303098.16749  -8017467.86948  20669764.010    20669776.429
       244.000         213.000
  23306591.691    -8667592.52949  -6733981.36945  23306589.804    23306609.741
       220.000         160.000
  23400445.105    -9679363.41849  -7515626.29845  23400443.640    23400466.550
       215.000         157.000
  21965830.706     5233690.40649   4082838.02747  21965829.523    21965844.686
       233.000         188.000
  22023223.908   -11435153.07849  -8474263.88347  22023223.110    22023238.680
       233.000         191.000
 02  3 20 22 20 30.0000000  0  9G30G15G23G 5G 6G18G26G10G17
  21273417.785     4331411.69949   3388774.27047  21273418.009    21273432.215
       240.000         201.000
  22926742.129   -13727970.27749 -10684733.37746  22926740.648    22926759.319
       219.000         164.000
  20575901.827   -11611282.77249  -8774791.76048  20575900.970    20575913.707
       244.000         213.000
  23081314.767    13631401.95149  10618272.57046  23081314.658    23081336.439
       221.000         165.000
  20662991.824   -10338689.71649  -8045201.49348  20662991.249    20663003.369
       245.000         213.000
  23287091.132    -8770066.92649  -6813831.15545  23287089.743    23287109.743
       219.000         160.000
  23385865.459    -9755977.91849  -7575325.52445  23385864.163    23385886.905
       214.000         158.000
  21980880.378     5312776.61849   4144463.55747  21980879.764    21980894.557
       232.000         188.000
  22015834.682   -11473983.19649  -8504521.01347  22015833.855    22015848.930
       233.000         191.000
 02  3 20 22 21  0.0000000  0  9G30G15G23G 5G 6G18G26G10G17
  21287438.647     4405091.10349   3446186.65847  21287439.003    21287453.072
       240.000         201.000
  22915434.202   -13787392.66549 -10731036.33346  22915432.836    22915452.265
       221.000         165.000
  20572282.761   -11630300.92149  -8789611.01948  20572281.786    20572294.428
       244.000         213.000
  23100433.980    13731872.75749  10696561.18346  23100433.892    23100455.913
       222.000         164.000
  20656271.052   -10374007.27649  -8072721.62248  20656270.382    20656282.491
       244.000         213.000
  23267628.259    -8872343.37549  -6893526.70145  23267626.407    23267647.269
       218.000         161.000
  23371319.960    -9832414.04349  -7634885.78245  23371319.102    23371340.591
       215.000         157.000
  21996001.337     5392237.54849   4206381.08846  21996000.066    21996015.524
       232.000         187.000
  22008479.031   -11512637.03449  -8534640.78447  22008478.058    22008493.309
       233.000         191.000
 02  3 20 22 21 30.0000000  0  9G30G15G23G 5G 6G18G26G10G17
  21301533.390     4479158.88449   3503901.67647  21301533.775    21301547.876
       240.000         201.000
  22904160.505   -13846636.06449 -10777199.81446  22904159.620    22904178.525
       221.000         166.000
  20568765.480   -11648784.05249  -8804013.38648  20568764.411    20568777.206
       244.000         213.000
  23119576.552    13832466.49749  10774945.60346  23119576.390    23119598.097
       220.000         164.000
  20649602.773   -10409049.08249  -8100026.87947  20649602.008    20649614.396
       244.000         212.000
  23248203.582    -8974419.11849  -6973065.85545  23248201.655    23248222.538
       219.000         161.000
  23356809.116    -9908668.37149  -7694304.40545  23356808.068    23356829.928
       217.000         156.000
  22011193.150     5472070.90349   4268588.80546  22011191.779    22011207.330
       232.000         187.000
  22001156.828   -11551115.00249  -8564623.51047  22001155.447    22001171.058
       233.000         191.000
 02  3 20 22 22  0.0000000  0  9G30G15G23G 5G 6G18G26G10G17
  21315701.387     4553611.60449   3561916.64947  21315701.757    21315716.275
       240.000         200.000
  22892920.639   -13905701.48749 -10823224.62246  22892919.172    22892938.312
       222.000         167.000
  20565349.860   -11666732.91249  -8817999.43548  20565348.875    20565361.684
       244.000         213.000
  23138741.900    13933179.53949  10853422.97746  23138741.403    23138762.489
       220.000         164.000
  20642987.135   -10443814.18949  -8127116.51947  20642986.458    20642998.636
       244.000         212.000
  23228817.353    -9076292.83849  -7052447.59545  23228816.355    23228836.017
       220.000         162.000
  23342333.187    -9984738.09449  -7753579.16445  23342330.971    23342353.681
       213.000         156.000
  22026454.996     5552272.43549   4331083.41246  22026453.763    22026469.072
       231.000         186.000
  21993867.836   -11589418.48249  -8594470.26747  21993867.133    21993881.881
       233.000         191.000
 02  3 20 22 22 30.0000000  0  9G30G15G23G 5G 6G18G26G10G17
  21329942.230     4628447.34949   3620230.07947  21329942.348    21329957.107
       239.000         200.000
  22881714.755   -13964588.21549 -10869110.19546  22881713.769    22881732.503
       223.000         168.000
  20562036.110   -11684146.65449  -8831568.51148  20562035.179    20562047.799
       244.000         213.000
  23157929.568    14034009.85249  10931991.73346  23157929.169    23157950.855
       219.000         164.000
  20636424.690   -10478299.75649  -8153988.34148  20636423.941    20636436.374
       244.000         213.000
  23209470.177    -9177961.30949  -7131669.41645  23209469.129    23209488.713
       221.000         162.000
  23327893.077   -10060619.03749  -7812706.79345  23327892.396    23327914.227
       217.000         157.000
  22041786.577     5632840.41249   4393863.55746  22041785.809    22041801.286
       231.000         186.000
  21986612.068   -11627547.35349  -8624180.96747  21986610.566    21986626.405
       232.000         191.000
 02  3 20 22 23  0.0000000  0  9G30G15G23G 5G 6G18G26G10G17
  21344255.477     4703663.74049   3678840.12047  21344255.729    21344270.413
       240.000         200.000
  22870542.935   -14023296.43149 -10914856.65946  22870541.104    22870560.490
       222.000         168.000
  20558824.231   -11701024.86749  -8844720.29048  20558823.233    20558835.914
       244.000         213.000
  23177139.088    14134955.16349  11010650.08646  23177138.311    23177160.858
       220.000         163.000
  20629915.879   -10512503.63749  -8180640.67048  20629915.177    20629927.506
       244.000         213.000
  23190162.580    -9279422.09549  -7210729.41945  23190161.505    23190180.536
       219.000         162.000
  23313489.804   -10136307.56549  -7871684.51545  23313488.868    23313511.149
       214.000         157.000
  22057187.499     5713772.49149   4456927.42046  22057186.897    22057202.196
       230.000         186.000
  21979389.447   -11665502.14049  -8653756.01347  21979388.146    21979403.500
       233.000         191.000
 02  3 20 22 23 30.0000000  0  9G30G15G23G 5G 6G18G26G10G17
  21358640.565     4779257.34649   3737744.09247  21358640.671    21358655.218
       239.000         199.000
  22859404.705   -14081827.26149 -10960464.90946  22859402.705    22859422.558
       223.000         168.000
  20555714.069   -11717368.40449  -8857455.44047  20555712.826    20555725.705
       244.000         212.000
  23196369.788    14236011.90949  11089395.28646  23196369.128    23196390.722
       218.000         163.000
  20623460.828   -10546424.92849  -8207072.79948  20623460.256    20623472.440
       245.000         213.000
  23170894.803    -9380673.57549  -7289626.32745  23170893.364    23170912.956
       220.000         162.000
  23299123.616   -10211801.10349  -7930510.31245  23299122.303    23299143.747
       215.000         157.000
  22072656.981     5795064.68949   4520271.90346  22072656.278    22072671.023
       231.000         185.000
  21972199.688   -11703284.17649  -8683196.45447  21972198.793    21972213.879
       233.000         191.000
 02  3 20 22 24  0.0000000  0  9G30G15G23G 5G 6G18G26G10G17
  21373096.915     4855225.66249   3796940.04647  21373096.963    21373111.845
       239.000         199.000
  22848300.245   -14140180.81949 -11005935.03346  22848298.542    22848317.729
       223.000         169.000
  20552705.736   -11733176.92849  -8869773.69447  20552704.679    20552717.437
       244.000         212.000
  23215621.330    14337177.93949  11168225.63645  23215621.440    23215642.831
       219.000         162.000
  20617060.049   -10580061.27049  -8233282.89048  20617059.477    20617071.583
       244.000         213.000
  23151667.337    -9481713.01849  -7368358.00945  23151666.325    23151685.486
       221.000         162.000
  23284795.244   -10287095.83649  -7989181.20745  23284793.813    23284815.820
       213.000         156.000
  22088194.551     5876714.67749   4583895.18046  22088193.142    22088208.968
       232.000         185.000
  21965042.751   -11740893.83649  -8712502.57147  21965041.908    21965056.752
       233.000         191.000
 02  3 20 22 24 30.0000000  0  9G30G15G23G 5G 6G18G26G10G17
  21387624.050     4931565.72449   3856425.66947  21387624.186    21387638.830
       239.000         199.000
  22837229.381   -14198357.66749 -11051267.45246  22837227.386    22837246.756
       222.000         169.000
  20549799.178   -11748450.74249  -8881675.29447  20549798.191    20549810.862
       244.000         212.000
  23234892.997    14438450.07849  11247138.66745  23234892.788    23234915.663
       219.000         162.000
  20610713.742   -10613411.14049  -8259269.76248  20610712.990    20610725.289
       244.000         213.000
  23132480.627    -9582538.72849  -7446923.16646  23132479.068    23132498.395
       220.000         163.000
  23270505.177   -10362188.64149  -8047694.71545  23270504.835    23270527.085
       217.000         157.000
  22103799.727     5958719.57149   4647795.00846  22103798.239    22103814.384
       231.000         185.000
  21957918.376   -11778332.01049  -8741675.06947  21957917.160    21957932.552
       233.000         191.000
 02  3 20 22 25  0.0000000  0  9G30G15G23G 5G 6G18G26G10G17
  21402221.476     5008275.29149   3916199.22047  21402221.710    21402236.763
       239.000         199.000
  22826192.210   -14256357.71649 -11096462.09746  22826190.917    22826209.907
       223.000         170.000
  20546994.444   -11763189.60649  -8893160.05147  20546993.392    20547006.237
       244.000         212.000
  23254184.458    14539825.88849  11326132.47045  23254183.953    23254205.340
       219.000         161.000
  20604422.368   -10646472.30549  -8285031.66648  20604421.696    20604433.896
       244.000         213.000
  23113335.041    -9683148.06049  -7525319.72246  23113332.853    23113352.069
       221.000         164.000
  23256254.374   -10437075.76949  -8106047.97245  23256253.331    23256275.078
       215.000         157.000
  22119471.857     6041076.72249   4711969.32146  22119471.059    22119486.519
       232.000         185.000
  21950826.618   -11815599.14749  -8770714.28347  21950825.690    21950841.019
       234.000         192.000
 02  3 20 22 25 30.0000000  0  9G30G15G23G 5G 6G18G26G10G17
  21416888.768     5085351.94649   3976258.81347  21416889.086    21416903.686
       239.000         199.000
  22815188.697   -14314180.86449 -11141518.90146  22815187.934    22815205.720
       224.000         170.000
  20544291.535   -11777393.25349  -8904227.75647  20544290.374    20544302.902
       244.000         212.000
  23273495.121    14641303.04249  11405205.24745  23273495.115    23273516.751
       219.000         161.000
  20598186.361   -10679242.60849  -8310566.92748  20598185.833    20598197.826
       244.000         213.000
  23094231.184    -9783538.12049  -7603545.43646  23094229.268    23094248.449
       222.000         164.000
  23242043.387   -10511753.29949  -8164237.93845  23242042.299    23242063.573
       214.000         157.000
  22135210.568     6123783.68349   4776416.20946  22135210.163    22135224.962
       231.000         185.000
  21943767.418   -11852695.20249  -8799620.18647  21943766.716    21943781.565
       233.000         192.000
 02  3 20 22 26  0.0000000  0  9G30G15G23G 5G 6G18G26G10G17
  21431625.352     5162792.41249   4036601.89547  21431625.924    21431640.218
       239.000         199.000
  22804218.717   -14371828.05849 -11186438.59946  22804218.138    22804235.839
       224.000         170.000
  20541690.341   -11791062.34449  -8914878.92347  20541689.224    20541701.872
       244.000         212.000
  23292824.436    14742878.30349  11484354.47445  23292823.814    23292846.160
       217.000         160.000
  20592005.962   -10711720.62949  -8335874.43748  20592005.341    20592017.495
       244.000         213.000
  23075169.371    -9883707.15349  -7681598.90346  23075167.264    23075186.591
       222.000         165.000
  23227872.763   -10586218.43349  -8222262.38245  23227871.919    23227893.494
       214.000         157.000
  22151015.169     6206837.09149   4841133.06346  22151014.142    22151030.011
       232.000         185.000
  21936740.497   -11889621.55849  -8828393.85647  21936739.491    21936754.413
       234.000         192.000
 02  3 20 22 26 30.0000000  0  9G30G15G23G 5G 6G18G26G10G17
  21446430.506     5240593.34149   4097225.85547  21446430.905    21446445.737
       239.000         198.000
  22793282.076   -14429300.20949 -11231221.89846  22793280.210    22793298.626
       224.000         170.000
  20539190.689   -11804197.60649  -8925114.12347  20539189.645    20539202.066
       244.000         212.000
  23312171.862    14844548.44549  11563577.62545  23312171.879    23312193.587
       218.000         160.000
  20585881.440   -10743905.11549  -8360953.22348  20585880.791    20585892.983
       244.000         213.000
  23056149.961    -9983653.78849  -7759479.08646  23056147.561    23056167.609
       222.000         165.000
  23213743.298   -10660468.12349  -8280118.96545  23213741.891    23213763.357
       216.000         158.000
  22166885.081     6290233.45249   4906117.14946  22166883.956    22166898.931
       230.000         184.000
  21929745.616   -11926379.37249  -8857036.19647  21929744.554    21929759.652
       233.000         192.000
 02  3 20 22 27  0.0000000  0  9G30G15G23G 5G 6G18G26G10G17
  21461303.836     5318752.56249   4158129.00047  21461304.148    21461319.190
       238.000         198.000
  22782378.660   -14486597.07749 -11275868.61946  22782376.729    22782395.727
       223.000         170.000
  20536792.802   -11816798.48049  -8934932.91848  20536791.935    20536804.325
       244.000         213.000
  23331536.911    14946311.16949  11642872.92645  23331536.493    23331559.791
       217.000         160.000
  20579813.240   -10775793.54549  -8385801.31348  20579812.482    20579824.781
       244.000         213.000
  23037173.404   -10083375.00549  -7837183.62346  23037172.078    23037190.566
       222.000         165.000
  23199655.618   -10734498.66549  -8337804.78945  23199655.003    23199676.607
       215.000         159.000
  22182819.833     6373970.81449   4971366.95346  22182818.644    22182834.417
       231.000         184.000
  21922782.813   -11962968.84649  -8885547.37047  21922781.724    21922797.290
       233.000         192.000
 02  3 20 22 27 30.0000000  0  9G30G15G23G 5G 6G18G26G10G17
  21476244.874     5397267.67049   4219309.45547  21476245.085    21476260.209
       238.000         198.000
  22771508.537   -14543718.69849 -11320378.76846  22771507.693    22771525.080
       223.000         170.000
  20534496.619   -11828864.74849  -8944335.13648  20534495.614    20534508.259
       244.000         213.000
  23350919.096    15048164.26549  11722238.62145  23350919.035    23350941.516
       214.000         159.000
  20573801.775   -10807383.82149  -8410417.07748  20573801.284    20573813.197
       244.000         213.000
  23018240.283   -10182868.13249  -7914710.42346  23018238.235    23018256.992
       223.000         165.000
  23185610.254   -10808306.15549  -8395316.79645  23185609.217    23185629.713
       216.000         159.000
  22198818.985     6458046.68349   5036880.52946  22198818.478    22198833.883
       231.000         184.000
  21915851.938   -11999390.27849  -8913927.59747  21915850.582    21915865.775
       234.000         192.000
 02  3 20 22 28  0.0000000  0  9G30G15G23G 5G 6G18G26G10G17
  21491253.111     5476135.79749   4280764.99647  21491253.535    21491268.282
       238.000         197.000
  22760671.770   -14600665.68049 -11364752.84546  22760670.286    22760689.027
       224.000         171.000
  20532302.101   -11840396.84749  -8953321.12048  20532301.134    20532313.712
       244.000         213.000
  23370318.032    15150104.90449  11801672.55045  23370317.526    23370339.916
       216.000         159.000
  20567847.395   -10838674.20449  -8434799.15848  20567846.896    20567858.899
       244.000         213.000
  22999350.979   -10282130.95449  -7992057.77146  22999349.781    22999368.319
       224.000         165.000
  23171607.953   -10881887.28349  -8452652.42045  23171607.020    23171627.795
       216.000         159.000
  22214881.908     6542457.58149   5102655.16146  22214880.758    22214896.889
       230.000         184.000
  21908952.877   -12035644.38049  -8942177.43747  21908951.968    21908966.836
       235.000         192.000
 02  3 20 22 28 30.0000000  0  9G30G15G23G 5G 6G18G26G10G17
  21506327.908     5555353.86049   4342493.20547  21506328.239    21506342.916
       238.000         197.000
  22749868.020   -14657438.57449 -11408991.26546  22749866.305    22749885.232
       225.000         171.000
  20530209.154   -11851395.16449  -8961891.17148  20530208.163    20530220.531
       244.000         213.000
  23389733.006    15252130.11449  11881172.35545  23389732.865    23389755.923
       217.000         158.000
  20561950.400   -10869663.06649  -8458946.29348  20561949.768    20561961.786
       244.000         213.000
  22980505.784   -10381161.70049  -8069224.28446  22980503.808    22980522.810
       224.000         165.000
  23157649.371   -10955238.89449  -8509809.23245  23157648.623    23157668.788
       216.000         159.000
  22231008.089     6627200.83749   5168688.76846  22231007.734    22231022.599
       230.000         183.000
  21902085.556   -12071732.06149  -8970297.59947  21902084.382    21902099.386
       234.000         192.000
 02  3 20 22 29  0.0000000  0  9G30G15G23G 5G 6G18G26G10G17
  21521468.680     5634918.54749   4404491.51347  21521468.747    21521483.904
       237.000         197.000
  22739097.477   -14714037.97449 -11453094.49746  22739095.812    22739114.720
       225.000         171.000
  20528217.621   -11861860.52349  -8970045.93048  20528216.611    20528229.096
       244.000         213.000
  23409163.494    15354236.67549  11960735.56445  23409163.313    23409186.264
       213.000         158.000
  20556111.039   -10900349.03849  -8482857.41148  20556110.501    20556122.560
       244.000         213.000
  22961705.130   -10479958.49849  -8146208.49746  22961703.733    22961721.707
       225.000         166.000
  23143735.125   -11028358.13749  -8566784.95945  23143735.106    23143755.183
       217.000         160.000
  22247196.802     6712273.02149   5234978.68946  22247195.777    22247211.134
       230.000         182.000
  21895249.642   -12107654.50749  -8998289.00847  21895248.515    21895263.574
       234.000         193.000
 02  3 20 22 29 30.0000000  0  9G30G15G23G 5G 6G18G26G10G17
  21536675.010     5714828.00049   4466758.46747  21536675.300    21536690.186
       238.000         196.000
  22728359.924   -14770463.28749 -11497062.06946  22728358.565    22728376.342
       225.000         171.000
  20526327.620   -11871792.18949  -8977784.83148  20526326.630    20526338.956
       244.000         213.000
  23428609.105    15456422.76449  12040360.72445  23428609.231    23428631.498
       215.000         158.000
  20550329.848   -10930729.17249  -8506530.21648  20550329.183    20550341.232
       244.000         213.000
  22942949.590   -10578518.29449  -8223008.03546  22942947.578    22942967.072
       223.000         166.000
  23129865.800   -11101240.50749  -8623576.11745  23129865.477    23129886.051
       217.000         161.000
  22263447.804     6797672.26249   5301523.45646  22263446.926    22263462.493
       230.000         182.000
  21888445.243   -12143411.33549  -9026151.37547  21888444.335    21888459.234
       234.000         193.000
 02  3 20 22 30  0.0000000  0  9G30G15G23G 5G 6G18G26G10G17
  21551946.407     5795079.12249   4529291.65147  21551946.788    21551961.725
       237.000         196.000
  22717655.318   -14826715.43649 -11540894.72646  22717653.875    22717672.288
       224.000         171.000
  20524539.105   -11881190.77849  -8985108.34648  20524538.038    20524550.564
       243.000         213.000
  23448069.386    15558685.53249  12120045.64745  23448069.209    23448092.041
       217.000         158.000
  20544607.090   -10960802.22749  -8529963.73148  20544606.445    20544618.630
       244.000         213.000
  22924239.540   -10676839.12049  -8299621.36146  22924238.400    22924256.387
       224.000         166.000
  23116042.318   -11173882.92149  -8680180.28845  23116040.818    23116062.210
       217.000         161.000
  22279760.414     6883395.27949   5368320.51546  22279759.563    22279774.418
       231.000         182.000
  21881672.142   -12179003.65649  -9053885.54147  21881671.004    21881686.453
       233.000         193.000
 02  3 20 22 30 30.0000000  0  9G30G15G23G 5G 6G18G26G10G17
  21567282.123     5875668.24349   4592088.21547  21567282.221    21567297.432
       237.000         195.000
  22706983.490   -14882795.54649 -11584593.31146  22706981.804    22706999.960
       223.000         171.000
  20522851.709   -11890057.51749  -8992017.43548  20522850.656    20522863.114
       243.000         213.000
  23467543.545    15661021.35249  12199787.48145  23467543.937    23467566.417
       217.000         158.000
  20538942.983   -10990567.20749  -8553157.18948  20538942.346    20538954.517
       244.000         214.000
  22905575.272   -10774919.55349  -8376047.36646  22905573.292    22905591.530
       224.000         167.000
  23102264.759   -11246282.98949  -8736595.63845  23102263.346    23102283.985
       218.000         161.000
  22296133.961     6969438.31449   5435366.93946  22296132.728    22296148.113
       231.000         182.000
  21874930.065   -12214432.99449  -9081492.71047  21874929.332    21874943.824
       234.000         194.000
 02  3 20 22 31  0.0000000  0  9G30G15G23G 5G 6G18G26G10G17
  21582681.845     5956593.59049   4655146.76947  21582682.110    21582697.350
       237.000         195.000
  22696344.536   -14938702.90349 -11628157.27446  22696343.129    22696361.115
       223.000         171.000
  20521265.724   -11898391.48549  -8998511.37747  20521264.604    20521277.263
       243.000         212.000
  23487031.241    15763428.60849  12279584.97345  23487031.496    23487052.631
       218.000         158.000
  20533338.102   -11020020.99449  -8576108.16148  20533337.516    20533349.558
       245.000         214.000
  22886957.345   -10872756.27349  -8452283.48246  22886955.580    22886974.556
       224.000         167.000
  23088534.339   -11318435.94249  -8792818.41745  23088533.001    23088553.477
       218.000         162.000
  22312568.054     7055799.65849   5502661.38846  22312567.261    22312582.774
       230.000         181.000
  21868219.192   -12249698.90549  -9108972.52747  21868218.118    21868233.205
       234.000         194.000
 02  3 20 22 31 30.0000000  0  9G30G15G23G 5G 6G18G26G10G17
  21598144.643     6037850.67949   4718463.82147  21598144.805    21598160.286
       236.000         195.000
  22685738.003   -14994439.72049 -11671588.36346  22685736.561    22685755.051
       223.000         171.000
  20519780.759   -11906194.93149  -9004591.92847  20519779.822    20519792.297
       243.000         212.000
  23506531.749    15865902.89749  12359434.71145  23506531.437    23506554.656
       216.000         158.000
  20527792.446   -11049163.48249  -8598816.56048  20527791.716    20527803.889
       245.000         214.000
  22868385.911   -10970348.72149  -8528329.24246  22868384.487    22868402.110
       224.000         167.000
  23074851.188   -11390340.21449  -8848847.42445  23074850.413    23074870.774
       217.000         162.000
  22329061.850     7142474.60149   5570200.20446  22329060.403    22329075.996
       230.000         181.000
  21861538.828   -12284803.71549  -9136326.82547  21861537.722    21861552.831
       234.000         194.000
 02  3 20 22 32  0.0000000  0  9G30G15G23G 5G 6G18G26G10G17
  21613670.511     6119439.21149   4782039.14647  21613670.787    21613686.048
       237.000         195.000
  22675164.238   -15050003.75049 -11714884.80746  22675163.151    22675180.089
       224.000         172.000
  20518397.123   -11913465.67449  -9010257.38847  20518395.980    20518408.614
       243.000         212.000
  23526044.925    15968443.93149  12439336.44245  23526045.558    23526067.791
       218.000         157.000
  20522306.852   -11077990.26849  -8621278.95748  20522306.353    20522318.296
       245.000         214.000
  22849861.840   -11067692.25649  -8604181.04246  22849860.940    22849878.066
       223.000         168.000
  23061216.442   -11461989.93949  -8904678.07545  23061214.983    23061235.101
       218.000         162.000
  22345615.227     7229462.96249   5637983.23046  22345614.343    22345630.172
       229.000         181.000
  21854889.537   -12319745.60349  -9163554.16247  21854888.326    21854903.432
       235.000         194.000
 02  3 20 22 32 30.0000000  0  9G30G15G23G 5G 6G18G26G10G17
  21629258.720     6201355.37249   4845869.75647  21629259.245    21629274.546
       238.000         195.000
  22664623.172   -15105396.46549 -11758047.76846  22664621.489    22664640.311
       224.000         172.000
  20517114.571   -11920205.20349  -9015508.91547  20517113.468    20517125.998
       243.000         212.000
  23545570.142    16071048.09849  12519287.37745  23545570.591    23545593.241
       215.000         157.000
  20516881.519   -11106500.57049  -8643494.74548  20516880.949    20516892.825
       245.000         214.000
  22831385.341   -11164785.66749  -8679837.96246  22831383.892    22831401.007
       223.000         168.000
  23047630.602   -11533382.67049  -8960308.48545  23047629.708    23047649.557
       217.000         162.000
  22362227.574     7316760.93849   5706007.52546  22362226.173    22362241.731
       229.000         180.000
  21848270.921   -12354526.34049  -9190655.93047  21848270.077    21848284.987
       235.000         194.000
 02  3 20 22 33  0.0000000  0  9G30G15G23G 5G 6G18G26G10G17
  21644908.786     6283596.20749   4909953.35847  21644909.011    21644924.464
       237.000         194.000
  22654114.616   -15160618.43649 -11801077.67646  22654113.134    22654131.665
       225.000         172.000
  20515933.020   -11926413.82049  -9020346.74647  20515931.956    20515944.671
       243.000         212.000
  23565106.791    16173712.69249  12599285.38545  23565107.496    23565130.089
       217.000         156.000
  20511516.751   -11134692.49549  -8665462.44848  20511516.163    20511528.269
       244.000         214.000
  22812956.757   -11261627.04749  -8755298.48646  22812954.900    22812972.805
       224.000         168.000
  23034094.281   -11604515.00749  -9015735.97546  23034093.269    23034113.560
       218.000         163.000
  22378898.241     7404365.62849   5774270.80146  22378897.212    22378912.406
       230.000         180.000
  21841682.884   -12389146.51249  -9217632.57947  21841682.078    21841696.584
       235.000         194.000
 02  3 20 22 33 30.0000000  0  9G30G15G23G 5G 6G18G26G10G17
  21660620.009     6366158.66049   4974287.57647  21660620.085    21660635.543
       237.000         194.000
  22643638.561   -15215669.85549 -11843974.70346  22643637.636    22643654.777
       226.000         173.000
  20514852.445   -11932092.24549  -9024771.43847  20514851.444    20514863.949
       243.000         212.000
  23584654.449    16276434.85249  12679328.24845  23584654.264    23584678.283
       216.000         156.000
  20506212.874   -11162564.39149  -8687180.77548  20506212.235    20506224.254
       244.000         214.000
  22794576.597   -11358214.12149  -8830560.84146  22794575.074    22794593.207
       224.000         169.000
  23020608.222   -11675383.70849  -9070958.03546  23020607.075    23020626.878
       219.000         163.000
  22395626.771     7492274.22749   5842770.91146  22395625.241    22395642.448
       228.000         180.000
  21835125.268   -12423606.90249  -9244484.72747  21835123.998    21835139.095
       235.000         195.000
 02  3 20 22 34  0.0000000  0  9G30G15G23G 5G 6G18G26G10G17
  21676391.923     6449040.01349   5038870.28747  21676392.076    21676407.264
       236.000         194.000
  22633194.887   -15270551.20749 -11886739.20746  22633193.316    22633211.178
       226.000         174.000
  20513872.669   -11937240.68349  -9028783.15347  20513871.602    20513884.013
       243.000         212.000
  23604212.613    16379211.99949  12759413.95245  23604212.604    23604235.153
       216.000         156.000
  20500970.287   -11190114.33049  -8708648.22648  20500969.794    20500981.872
       244.000         214.000
  22776245.288   -11454544.54049  -8905623.21346  22776244.114    22776261.068
       225.000         169.000
  23007172.980   -11745985.20549  -9125971.89546  23007171.637    23007192.707
       218.000         164.000
  22412412.552     7580483.86049   5911505.56746  22412411.700    22412427.799
       228.000         180.000
  21828597.866   -12457908.12049  -9271212.84947  21828596.977    21828611.739
       235.000         195.000
 02  3 20 22 34 30.0000000  0  9G30G15G23G 5G 6G18G26G10G17
  21692223.735     6532236.30949   5103698.40147  21692224.116    21692239.460
       236.000         194.000
  22622783.240   -15325263.93649 -11929372.32746  22622782.454    22622799.802
       225.000         174.000
  20512993.468   -11941860.75849  -9032383.16147  20512992.431    20513004.929
       243.000         212.000
  23623780.412    16482040.31049  12839539.53345  23623780.267    23623803.624
       217.000         154.000
  20495789.069   -11217341.53749  -8729864.20048  20495788.451    20495800.500
       244.000         214.000
  22757963.005   -11550617.35149  -8980484.85046  22757961.301    22757979.742
       225.000         170.000
  22993788.898   -11816317.27349  -9180775.81346  22993787.972    22993807.943
       218.000         164.000
  22429254.889     7668990.37949   5980471.57346  22429254.071    22429270.068
       229.000         180.000
  21822100.433   -12492051.83549  -9297818.24847  21822099.305    21822113.810
       234.000         195.000
 02  3 20 22 35  0.0000000  0  9G30G15G23G 5G 6G18G26G10G17
  21708115.184     6615745.59649   5168770.40647  21708115.784    21708130.931
       236.000         194.000
  22612403.761   -15379807.50249 -11971873.63546  22612402.200    22612419.706
       226.000         174.000
  20512214.828   -11945952.14549  -9035571.20048  20512213.960    20512226.491
       243.000         213.000
  23643357.725    16584918.15849  12919703.69245  23643358.454    23643381.895
       215.000         155.000
  20490669.790   -11244243.33649  -8750826.60648  20490669.105    20490681.307
       245.000         214.000
  22739730.275   -11646429.56149  -9055143.40746  22739728.793    22739746.848
       224.000         170.000
  22980457.029   -11886375.65249  -9235366.45646  22980455.722    22980477.021
       218.000         165.000
  22446153.367     7757792.01749   6049667.53046  22446152.682    22446169.133
       229.000         179.000
  21815633.050   -12526037.90149  -9324300.80747  21815631.463    21815646.354
       235.000         194.000
 02  3 20 22 35 30.0000000  0  9G30G15G23G 5G 6G18G26G10G17
  21724065.765     6699565.86349   5234084.73147  21724066.212    21724081.656
       236.000         193.000
  22602056.609   -15434181.26249 -12014242.62146  22602055.103    22602072.506
       227.000         174.000
  20511536.919   -11949514.52649  -9038347.02948  20511535.919    20511548.468
       243.000         213.000
  23662944.167    16687843.74349  12999905.06845  23662943.745    23662968.052
       214.000         154.000
  20485613.004   -11270816.92449  -8771533.26648  20485612.476    20485624.355
       245.000         214.000
  22721547.752   -11741977.89549  -9129596.38246  22721546.051    22721563.290
       224.000         170.000
  22967177.992   -11956156.06049  -9289740.50646  22967177.104    22967196.605
       219.000         164.000
  22463107.622     7846886.74349   6119091.89346  22463105.975    22463122.792
       229.000         179.000
  21809195.616   -12559866.16349  -9350660.39947  21809194.499    21809209.731
       235.000         194.000
 02  3 20 22 36  0.0000000  0  9G30G15G23G 5G 6G18G26G10G17
  21740074.785     6783693.17449   5299638.31247  21740075.009    21740090.609
       236.000         193.000
  22591741.477   -15488386.93649 -12056480.60546  22591740.024    22591758.049
       227.000         174.000
  20510959.380   -11952549.35249  -9040711.77748  20510958.549    20510970.895
       243.000         213.000
  23682538.874    16790813.50849  13080140.87045  23682538.989    23682562.818
       215.000         153.000
  20480618.811   -11297061.54949  -8791983.59248  20480618.233    20480630.157
       245.000         214.000
  22703415.621   -11837261.56349  -9203843.09246  22703413.584    22703431.720
       225.000         171.000
  22953952.355   -12025656.08049  -9343896.07046  22953951.490    22953973.097
       219.000         165.000
  22480116.884     7936270.64449   6188741.56246  22480115.060    22480132.296
       227.000         178.000
  21802787.997   -12593538.05349  -9376898.14347  21802786.765    21802801.784
       234.000         194.000
 02  3 20 22 36 30.0000000  0  9G30G15G23G 5G 6G18G26G10G17
  21756141.599     6868124.27249   5365428.60547  21756141.936    21756157.386
       235.000         193.000
  22581458.285   -15542425.09349 -12098588.07246  22581457.023    22581473.671
       226.000         174.000
  20510482.030   -11955057.61149  -9042666.21848  20510481.039    20510493.365
       243.000         213.000
  23702141.488    16893824.30149  13160408.63945  23702141.669    23702165.705
       212.000         154.000
  20475687.481   -11322975.89749  -8812176.55748  20475687.037    20475698.731
       245.000         214.000
  22685334.222   -11932278.59849  -9277882.04946  22685333.041    22685350.460
       225.000         171.000
  22940780.706   -12094872.69249  -9397830.80646  22940779.179    22940799.973
       219.000         165.000
  22497180.598     8025940.60749   6258614.15546  22497178.947    22497195.150
       227.000         178.000
  21796409.805   -12627055.03249  -9403015.18747  21796409.040    21796423.298
       234.000         194.000
 02  3 20 22 37  0.0000000  0  9G30G15G23G 5G 6G18G26G10G17
  21772265.936     6952857.57049   5431454.37847  21772266.064    21772281.942
       235.000         192.000
  22571207.066   -15596294.82649 -12140564.29146  22571205.649    22571223.684
       227.000         175.000
  20510104.996   -11957038.68649  -9044209.86548  20510103.990    20510116.522
       243.000         213.000
  23721751.441    16996874.78949  13240707.29545  23721751.603    23721775.261
       215.000         152.000
  20470819.533   -11348556.97449  -8832109.83048  20470818.797    20470830.595
       245.000         214.000
  22667304.260   -12027025.48149  -9351710.49646  22667302.413    22667320.113
       225.000         172.000
  22927663.752   -12163801.26949  -9451541.09846  22927663.229    22927683.324
       220.000         165.000
  22514298.372     8115895.00749   6328708.36846  22514297.276    22514312.922
       227.000         177.000
  21790061.303   -12660416.19749  -9429010.81447  21790060.305    21790074.842
       234.000         194.000
 02  3 20 22 37 30.0000000  0  9G30G15G23G 5G 6G18G26G10G17
  21788447.283     7037890.54849   5497713.66047  21788447.692    21788463.778
       235.000         192.000
  22560987.997   -15649996.13449 -12182409.27346  22560987.343    22561003.083
       227.000         175.000
  20509828.257   -11958492.75449  -9045342.86248  20509827.312    20509839.685
       243.000         213.000
  23741368.789    17099962.70649  13321035.16245  23741369.482    23741393.027
       215.000         151.000
  20466015.432   -11373802.57749  -8851781.70148  20466014.713    20466026.763
       244.000         214.000
  22649326.306   -12121499.25449  -9425326.13246  22649324.939    22649342.773
       226.000         172.000
  22914602.520   -12232438.08049  -9505024.05246  22914601.182    22914621.372
       219.000         166.000
  22531469.787     8206131.22849   6399022.18746  22531468.879    22531484.724
       228.000         177.000
  21783742.448   -12693621.84849  -9454885.26847  21783741.370    21783755.873
       235.000         194.000
 02  3 20 22 38  0.0000000  0  9G30G15G23G 5G 6G18G26G10G17
  21804684.236     7123215.59249   5564200.53047  21804684.451    21804700.485
       235.000         192.000
  22550799.922   -15703534.40049 -12224127.19546  22550797.997    22550815.059
       226.000         175.000
  20509650.781   -11959425.12949  -9046069.34448  20509650.105    20509662.171
       243.000         213.000
  23760991.820    17203080.72449  13401386.46145  23760991.888    23761016.927
       213.000         151.000
  20461274.670   -11398715.21649  -8871194.11248  20461273.945    20461285.800
       245.000         214.000
  22631399.695   -12215703.11949  -9498731.44446  22631398.429    22631415.538
       227.000         173.000
  22901596.428   -12300784.44449  -9558280.67446  22901594.806    22901615.651
       219.000         166.000
  22548693.485     8296642.09949   6469550.02246  22548693.065    22548708.509
       228.000         177.000
  21777452.111   -12726677.29549  -9480642.68347  21777450.944    21777465.746
       235.000         195.000
 02  3 20 22 38 30.0000000  0  9G30G15G23G 5G 6G18G26G10G17
  21820977.241     7208835.27749   5630916.99047  21820977.931    21820993.219
       235.000         191.000
  22540643.724   -15756904.48549 -12265714.06546  22540642.018    22540659.510
       227.000         175.000
  20509573.511   -11959831.07649  -9046385.63048  20509572.518    20509584.761
       243.000         213.000
  23780620.985    17306231.62249  13481763.35845  23780622.118    23780645.271
       214.000         152.000
  20456598.626   -11423287.89749  -8890341.62648  20456597.962    20456609.754
       245.000         214.000
  22613525.866   -12309629.63549  -9571920.64646  22613524.143    22613541.432
       226.000         174.000
  22888647.272   -12368831.40549  -9611304.00346  22888645.600    22888666.399
       219.000         166.000
  22565969.952     8387429.76349   6540293.53046  22565969.325    22565985.123
       227.000         177.000
  21771191.290   -12759577.83049  -9506279.39047  21771190.199    21771204.779
       235.000         195.000
 02  3 20 22 39  0.0000000  0  9G30G15G23G 5G 6G18G26G10G17
  21837325.310     7294744.56349   5697859.10547  21837325.524    21837341.251
       234.000         191.000
  22530519.133   -15810108.74349 -12307171.73446  22530518.087    22530534.783
       227.000         174.000
  20509595.895   -11959713.32349  -9046293.83348  20509594.973    20509607.130
       243.000         213.000
  23800255.742    17409410.85549  13562162.37845  23800255.796    23800279.955
       212.000         149.000
  20451987.180   -11447520.84649  -8909224.41248  20451986.464    20451998.468
       244.000         214.000
  22595704.895   -12403278.60249  -9644893.58046  22595703.850    22595720.387
       228.000         174.000
  22875755.251   -12436577.78549  -9664093.10846  22875754.585    22875774.271
       218.000         166.000
  22583298.200     8478489.76349   6611249.26846  22583297.329    22583314.478
       226.000         176.000
  21764959.388   -12792326.10249  -9531797.45247  21764958.323    21764973.134
       235.000         195.000
 02  3 20 22 39 30.0000000  0  9G30G15G23G 5G 6G18G26G10G17
  21853727.998     7380940.37649   5765024.48847  21853728.818    21853743.795
       234.000         190.000
  22520425.907   -15863147.98949 -12348500.83346  22520424.465    22520441.448
       227.000         174.000
  20509717.693   -11959073.06149  -9045794.89148  20509716.868    20509728.904
       243.000         213.000
  23819895.141    17512615.38149  13642581.05745  23819894.690    23819920.073
       212.000         149.000
  20447440.663   -11471412.71349  -8927841.42448  20447440.082    20447452.046
       244.000         214.000
  22577937.070   -12496648.14949  -9717648.76846  22577934.611    22577953.448
       227.000         175.000
  22862921.061   -12504020.55249  -9716645.63646  22862919.930    22862939.929
       219.000         166.000
  22600677.586     8569818.67049   6682414.53646  22600676.597    22600693.871
       225.000         175.000
  21758756.327   -12824923.16049  -9557197.67847  21758755.377    21758770.213
       236.000         195.000
 02  3 20 22 40  0.0000000  0  9G30G15G23G 5G 6G18G26G10G17
  21870184.712     7467420.42549   5832411.34947  21870185.356    21870200.952
       233.000         190.000
  22510364.207   -15916021.70449 -12389700.94246  22510362.350    22510380.272
       227.000         174.000
  20509939.025   -11957910.02749  -9044888.59048  20509938.175    20509950.304
       243.000         213.000
  23839539.162    17615843.41949  13723018.08045  23839539.700    23839564.350
       211.000         151.000
  20442959.658   -11494960.50849  -8946190.32848  20442959.174    20442970.893
       245.000         214.000
  22560222.966   -12589735.25849  -9790183.88846  22560221.464    22560238.287
       229.000         175.000
  22850145.522   -12571155.40449  -9768958.22946  22850143.825    22850163.980
       219.000         166.000
  22618107.832     8661414.88249   6753788.08246  22618107.100    22618123.153
       226.000         175.000
  21752582.122   -12857368.63249  -9582479.79647  21752581.002    21752595.451
       235.000         195.000
 02  3 20 22 40 30.0000000  0  9G30G15G23G 5G 6G18G26G10G17
  21886694.880     7554181.27849   5900017.01547  21886695.046    21886711.178
       234.000         189.000
  22500333.810   -15968730.96049 -12430772.90846  22500332.224    22500349.298
       227.000         174.000
  20510259.538   -11956225.63649  -9043576.04047  20510258.623    20510270.682
       243.000         212.000
  23859186.840    17719091.76449  13803470.91045  23859186.719    23859211.617
       211.000         148.000
  20438544.342   -11518163.20649  -8964270.32548  20438543.741    20438555.544
       245.000         214.000
  22542562.891   -12682538.40149  -9862497.73046  22542561.559    22542578.115
       229.000         175.000
  22837429.117   -12637979.65749  -9821028.80246  22837428.307    22837447.553
       220.000         167.000
  22635588.252     8753274.67949   6825367.00246  22635587.369    22635603.050
       225.000         174.000
  21746436.450   -12889664.10449  -9607645.01747  21746435.226    21746450.137
       235.000         196.000
 02  3 20 22 41  0.0000000  0  9G30G15G23G 5G 6G18G26G10G17
  21903257.937     7641220.03649   5967839.23947  21903258.160    21903274.559
       233.000         189.000
  22490334.642   -16021275.94249 -12471716.86546  22490333.276    22490349.754
       228.000         174.000
  20510679.118   -11954020.49349  -9041857.71047  20510678.093    20510690.343
       243.000         212.000
  23878838.049    17822358.06849  13883937.76045  23878838.954    23878863.577
       216.000         148.000
  20434195.013   -11541018.98249  -8982079.98948  20434194.472    20434206.250
       244.000         214.000
  22524957.259   -12775055.52849  -9934588.70746  22524955.977    22524972.298
       230.000         175.000
  22824772.428   -12704489.92749  -9872854.70846  22824770.710    22824791.014
       220.000         167.000
  22653118.252     8845395.07349   6897148.98546  22653117.163    22653133.493
       223.000         174.000
  21740319.239   -12921809.90549  -9632693.61847  21740318.051    21740332.997
       235.000         196.000
 02  3 20 22 41 30.0000000  0  9G30G15G23G 5G 6G18G26G10G17
  21919873.307     7728533.64149   6035875.62247  21919873.947    21919890.196
       233.000         188.000
  22480366.677   -16073657.46849 -12512533.46546  22480365.207    22480382.939
       228.000         175.000
  20511197.626   -11951295.53549  -9039734.32947  20511196.824    20511209.089
       243.000         212.000
  23898492.255    17925639.40949  13964416.29345  23898492.928    23898517.600
       212.000         150.000
  20429911.979   -11563526.25549  -8999618.09548  20429911.337    20429923.289
       245.000         214.000
  22507406.388   -12867285.05049 -10006455.56146  22507404.538    22507422.002
       229.000         175.000
  22812176.063   -12770683.17949  -9924433.58346  22812174.840    22812194.326
       220.000         168.000
  22670697.294     8937773.16349   6969131.78146  22670696.573    22670713.095
       223.000         174.000
  21734230.297   -12953807.10849  -9657626.42547  21734229.026    21734243.992
       235.000         196.000
 02  3 20 22 42  0.0000000  0  9G30G15G23G 5G 6G18G26G10G17
  21936540.538     7816119.86449   6104124.43147  21936540.789    21936557.113
       233.000         188.000
  22470429.895   -16125875.12249 -12553222.37146  22470427.657    22470445.635
       227.000         175.000
  20511815.020   -11948050.94649  -9037206.03647  20511814.097    20511826.298
       243.000         212.000
  23918148.701    18028933.69649  14044904.89445  23918148.191    23918173.102
       211.000         148.000
  20425695.743   -11585682.56349  -9016882.72348  20425695.116    20425706.801
       245.000         214.000
  22489910.749   -12959224.00049 -10078096.01346  22489909.280    22489925.097
       229.000         176.000
  22799640.826   -12836555.21149  -9975762.17146  22799639.948    22799659.416
       220.000         168.000
  22688324.995     9030406.72649   7041313.63946  22688325.149    22688341.885
       225.000         174.000
  21728169.687   -12985655.53549  -9682443.30347  21728168.482    21728182.980
       235.000         196.000
 02  3 20 22 42 30.0000000  0  9G30G15G23G 5G 6G18G26G10G17
  21953258.966     7903975.24649   6172582.97847  21953259.765    21953275.440
       233.000         188.000
  22460524.024   -16177929.90149 -12593784.36946  22460522.274    22460539.521
       229.000         176.000
  20512531.068   -11944287.88749  -9034273.74347  20512530.121    20512542.424
       243.000         212.000
  23937807.330    18132237.90749  14125401.29445  23937807.621    23937833.017
       212.000         149.000
  20421546.515   -11607486.64549  -9033872.89348  20421545.928    20421557.761
       244.000         214.000
  22472470.742   -13050870.72449 -10149508.75146  22472469.573    22472485.555
       231.000         176.000
  22787167.152   -12902103.23649 -10026838.28146  22787166.333    22787185.483
       220.000         168.000
  22706000.744     9123292.72049   7113692.21146  22706000.553    22706016.666
       225.000         174.000
  21722137.242   -13017356.02749  -9707144.90547  21722136.568    21722150.962
       236.000         196.000
 02  3 20 22 43  0.0000000  0  9G30G15G23G 5G 6G18G26G10G17
  21970027.928     7992095.96949   6241248.28046  21970028.536    21970044.596
       232.000         187.000
  22450648.897   -16229823.13449 -12634220.49446  22450647.770    22450664.831
       227.000         176.000
  20513345.411   -11940008.21449  -9030938.89247  20513344.447    20513356.597
       243.000         212.000
  23957467.049    18235548.66349  14205902.73445  23957466.361    23957493.161
       211.000         149.000
  20417464.488   -11628937.67549  -9050587.95548  20417463.924    20417475.713
       244.000         214.000
  22455086.561   -13142223.98249 -10220692.82246  22455084.878    22455101.945
       230.000         177.000
  22774755.807   -12967324.75349 -10077659.96046  22774754.655    22774774.012
       220.000         168.000
  22723723.799     9216427.41849   7186264.57146  22723722.994    22723739.956
       226.000         174.000
  21716132.562   -13048910.52549  -9731732.74047  21716131.365    21716146.079
       235.000         197.000
 02  3 20 22 43 30.0000000  0  9G30G15G23G 5G 6G18G26G10G17
  21986847.049     8080480.30249   6310118.99146  21986847.942    21986863.832
       233.000         187.000
  22440804.736   -16281553.90149 -12674530.01546  22440803.185    22440820.917
       229.000         177.000
  20514258.121   -11935211.55249  -9027201.18747  20514257.045    20514269.481
       243.000         212.000
  23977127.717    18338864.71249  14286408.29245  23977128.399    23977152.076
       215.000         150.000
  20413450.254   -11650032.57649  -9067025.51648  20413449.673    20413461.569
       244.000         214.000
  22437758.863   -13233280.62949 -10291645.75846  22437756.964    22437773.569
       230.000         177.000
  22762407.372   -13032215.27949 -10128223.72646  22762406.924    22762426.092
       220.000         168.000
  22741493.941     9309809.22549   7259029.48546  22741493.192    22741510.093
       225.000         173.000
  21710155.812   -13080318.16949  -9756206.14447  21710154.853    21710169.386
       236.000         197.000
 02  3 20 22 44  0.0000000  0  9G30G15G23G 5G 6G18G26G10G17
  22003715.478     8169123.84949   6379191.67846  22003716.094    22003732.552
       234.000         187.000
  22430991.087   -16333124.08449 -12714714.42346  22430989.839    22431006.797
       228.000         177.000
  20515268.760   -11929900.42149  -9023062.60147  20515267.916    20515280.005
       242.000         212.000
  23996788.737    18442181.81449  14366914.75045  23996788.849    23996814.466
       210.000         148.000
  20409503.768   -11670771.32749  -9083185.56148  20409503.265    20409515.012
       244.000         214.000
  22420487.649   -13324040.24449 -10362367.25246  22420486.520    22420502.763
       230.000         177.000
  22750122.202   -13096773.11449 -10178528.26246  22750120.949    22750140.858
       220.000         168.000
  22759310.225     9403433.97449   7331983.69646  22759309.348    22759326.311
       224.000         173.000
  21704206.615   -13111581.31349  -9780566.95647  21704205.891    21704220.171
       236.000         197.000
 02  3 20 22 44 30.0000000  0  9G30G15G23G 5G 6G18G26G10G17
  22020633.220     8258026.32049   6448466.12046  22020633.862    22020650.515
       232.000         187.000
  22421208.491   -16384531.36249 -12754771.89246  22421207.131    22421224.171
       227.000         177.000
  20516377.712   -11924072.63349  -9018521.42547  20516376.758    20516389.106
       242.000         212.000
  24016449.806    18545500.40049  14447422.28545  24016449.718    24016476.166
       211.000         149.000
  20405625.983   -11691149.12549  -9099064.33348  20405625.419    20405637.334
       244.000         214.000
  22403273.836   -13414497.89849 -10432853.46246  22403271.958    22403288.698
       231.000         178.000
  22737901.455   -13160991.94049 -10228568.63446  22737899.939    22737919.344
       220.000         168.000
  22777172.680     9497301.63749   7405127.18546  22777172.122    22777188.315
       225.000         172.000
  21698285.308   -13142697.59949  -9804813.32647  21698284.360    21698298.709
       235.000         197.000
 02  3 20 22 45  0.0000000  0  9G30G15G23G 5G 6G18G26G10G17
  22037599.215     8347182.41049   6517938.18446  22037599.867    22037615.632
       234.000         187.000
  22411456.327   -16435778.62249 -12794704.66146  22411455.632    22411472.027
       229.000         177.000
  20517584.289   -11917731.86349  -9013580.52447  20517583.483    20517595.743
       242.000         212.000
  24036110.289    18648815.10749  14527926.82245  24036111.546    24036136.294
       216.000         151.000
  20401816.722   -11711166.85049  -9114662.54448  20401816.197    20401828.088
       244.000         214.000
  22386117.469   -13504653.95949 -10503104.65346  22386115.854    22386132.005
       230.000         178.000
  22725745.467   -13224871.03749 -10278344.29546  22725744.644    22725763.948
       220.000         168.000
  22795080.354     9591406.64649   7478455.63046  22795079.535    22795095.344
       222.000         171.000
  21692391.293   -13173670.32449  -9828947.83647  21692390.441    21692404.978
       236.000         197.000
 02  3 20 22 45 30.0000000  0  9G30G15G23G 5G 6G18G26G10G17
  22054612.977     8436589.52649   6587605.85746  22054613.958    22054630.272
       232.000         187.000
  22401734.679   -16486865.75749 -12834512.66546  22401733.273    22401749.722
       229.000         177.000
  20518888.374   -11910878.56149  -9008240.24747  20518887.520    20518899.662
       243.000         212.000
  24055769.693    18752124.00349  14608426.85945  24055769.088    24055795.902
       208.000         148.000
  20398076.431   -11730822.12649  -9129978.31848  20398075.836    20398087.668
       244.000         214.000
  22369018.957   -13594506.07049 -10573119.00446  22369017.252    22369033.867
       230.000         178.000
  22713654.823   -13288406.70249 -10327852.32246  22713653.355    22713672.756
       220.000         168.000
  22813032.731     9685746.76749   7551967.27246  22813031.377    22813048.929
       222.000         170.000
  21686524.699   -13204499.47149  -9852970.45847  21686523.772    21686538.082
       237.000         197.000
 02  3 20 22 46  0.0000000  0  9G30G15G23G 5G 6G18G26G10G17
  22071674.100     8526245.27249   6657467.25846  22071674.758    22071691.456
       233.000         187.000
  22392043.475   -16537793.00349 -12874196.09646  22392042.332    22392058.958
       228.000         177.000
  20520289.959   -11903513.17549  -9002500.94547  20520289.049    20520301.257
       243.000         212.000
  24075427.450    18855425.07549  14688920.76445  24075428.728    24075453.549
       214.000         149.000
  20394405.485   -11750112.94449  -9145010.10248  20394405.087    20394416.828
       244.000         214.000
  22351978.726   -13684051.77749 -10642894.61446  22351977.378    22351993.631
       230.000         179.000
  22701630.318   -13351595.13149 -10377089.78546  22701629.159    22701647.462
       220.000         168.000
  22831029.397     9780319.54049   7625660.21746  22831028.458    22831045.243
       223.000         170.000
  21680685.311   -13235185.37449  -9876881.46947  21680684.025    21680698.370
       236.000         197.000
 02  3 20 22 46 30.0000000  0  9G30G15G23G 5G 6G18G26G10G17
  22088781.886     8616146.28449   6727519.77446  22088782.594    22088798.628
       232.000         187.000
  22382382.454   -16588561.15049 -12913755.54546  22382380.710    22382397.586
       228.000         177.000
  20521788.731   -11895637.08349  -8996363.69747  20521788.072    20521800.058
       243.000         212.000
  24095083.460    18958715.34949  14769406.27945  24095083.841    24095110.191
       210.000         151.000
  20390804.150   -11769037.94249  -9159756.83648  20390803.650    20390815.534
       244.000         214.000
  22334997.165   -13773289.43749 -10712430.18346  22334995.784    22335012.201
       231.000         179.000
  22689672.346   -13414433.56649 -10426054.52946  22689671.877    22689690.481
       220.000         168.000
  22849069.822     9875122.01749   7699532.13846  22849069.338    22849085.486
       224.000         171.000
  21674873.017   -13265729.09649  -9900681.69147  21674871.888    21674886.111
       236.000         197.000
 02  3 20 22 47  0.0000000  0  9G30G15G23G 5G 6G18G26G10G17
  22105935.713     8706289.47749   6797761.00046  22105935.879    22105952.723
       233.000         187.000
  22372751.759   -16639170.36149 -12953191.14746  22372750.177    22372767.336
       229.000         177.000
  20523384.449   -11887251.30449  -8989829.28747  20523383.507    20523395.600
       242.000         212.000
  24114736.569    19061992.31749  14849881.38045  24114736.705    24114762.338
       210.000         146.000
  20387272.735   -11787595.54349  -9174217.28448  20387272.245    20387284.035
       244.000         214.000
  22318074.606   -13862216.98749 -10781724.11046  22318073.279    22318089.514
       231.000         179.000
  22677781.551   -13476918.66949 -10474743.95246  22677780.909    22677799.681
       221.000         168.000
  22867153.383     9970151.41249   7773580.88246  22867152.220    22867169.487
       223.000         171.000
  21669087.563   -13296131.14249  -9924371.51647  21669086.464    21669101.101
       236.000         197.000
 02  3 20 22 47 30.0000000  0  9G30G15G23G 5G 6G18G26G10G17
  22123135.085     8796671.81049   6868188.57346  22123135.272    22123152.124
       233.000         186.000
  22363151.112   -16689621.16749 -12992503.31846  22363150.103    22363166.768
       229.000         177.000
  20525076.951   -11878356.90749  -8982898.55547  20525076.016    20525088.156
       242.000         212.000
  24134386.876    19165253.22349  14930344.05345  24134388.041    24134413.270
       214.000         148.000
  20383811.532   -11805784.14349  -9188390.20448  20383811.021    20383822.981
       244.000         214.000
  22301211.371   -13950832.67649 -10850775.03746  22301209.864    22301226.449
       231.000         180.000
  22665958.666   -13539047.27449 -10523155.58146  22665958.204    22665975.513
       221.000         168.000
  22885279.615    10065404.62949   7847804.02746  22885278.541    22885295.500
       224.000         171.000
  21663329.006   -13326392.29749  -9947951.56847  21663328.050    21663342.192
       236.000         197.000
 02  3 20 22 48  0.0000000  0  9G30G15G23G 5G 6G18G26G10G17
  22140379.431     8887290.58349   6938800.37746  22140380.024    22140396.704
       232.000         186.000
  22353580.626   -16739914.02349 -13031692.41846  22353578.839    22353596.018
       228.000         177.000
  20526866.060   -11868954.91949  -8975572.30047  20526865.057    20526877.221
       243.000         212.000
  24154033.680    19268495.79849  15010792.36645  24154032.241    24154061.331
       208.000         147.000
  20380420.930   -11823601.69649  -9202273.99448  20380420.399    20380432.289
       244.000         214.000
  22284407.911   -14039134.28649 -10919581.22146  22284406.047    22284422.833
       231.000         180.000
  22654204.196   -13600815.96149 -10571286.75746  22654203.551    22654222.781
       220.000         168.000
  22903447.906    10160878.94749   7922199.46246  22903446.954    22903462.962
       222.000         172.000
  21657597.115   -13356513.11649  -9971422.25847  21657596.138    21657610.215
       236.000         197.000
 02  3 20 22 48 30.0000000  0  9G30G15G23G 5G 6G18G26G10G17
  22157668.272     8978143.23749   7009594.42846  22157669.115    22157685.539
       232.000         186.000
  22344040.136   -16790048.82249 -13070758.35446  22344038.514    22344055.655
       231.000         177.000
  20528751.623   -11859045.93449  -8967850.98747  20528750.722    20528762.970
       243.000         212.000
  24173676.386    19371717.93049  15091224.74845  24173677.012    24173701.426
       210.000         145.000
  20377101.375   -11841045.91649  -9215866.87548  20377100.827    20377112.789
       244.000         214.000
  22267664.638   -14127119.59049 -10988140.94446  22267663.897    22267679.134
       232.000         181.000
  22642518.973   -13662221.11449 -10619134.65946  22642518.001    22642537.426
       221.000         169.000
  22921657.960    10256572.35249   7996765.61846  22921656.377    22921673.607
       223.000         172.000
  21651891.910   -13386493.62149  -9994783.62447  21651890.968    21651905.269
       236.000         197.000
 02  3 20 22 49  0.0000000  0  9G30G15G23G 5G 6G18G26G10G17
  22175000.740     9069224.99849   7080567.00046  22175001.706    22175017.840
       232.000         185.000
  22334529.380   -16840027.84549 -13109702.89846  22334528.078    22334544.579
       230.000         178.000
  20530733.130   -11848632.80949  -8959736.83747  20530732.290    20530744.609
       242.000         212.000
  24193314.675    19474915.15849  15171637.82445  24193314.767    24193341.448
       210.000         145.000
  20373852.835   -11858117.14249  -9229169.11248  20373852.306    20373864.241
       244.000         214.000
  22250981.611   -14214788.41649 -11056454.05846  22250980.627    22250996.296
       232.000         181.000
  22630903.207   -13723261.36549 -10666698.22146  22630902.332    22630921.121
       221.000         170.000
  22939908.709    10352480.28749   8071498.92446  22939906.873    22939924.102
       223.000         171.000
  21646212.992   -13416336.36849 -10018037.64247  21646211.999    21646225.939
       236.000         197.000
 02  3 20 22 49 30.0000000  0  9G30G15G23G 5G 6G18G26G10G17
  22192376.781     9160535.77749   7151718.02946  22192377.557    22192394.344
       232.000         185.000
  22325048.727   -16889848.44649 -13148524.00546  22325047.141    22325064.028
       229.000         178.000
  20532810.964   -11837713.58749  -8951228.32247  20532809.971    20532822.166
       242.000         212.000
  24212948.046    19578088.24549  15252031.97245  24212948.565    24212974.054
       205.000         143.000
  20370676.168   -11874810.62349  -9242176.99548  20370675.705    20370687.439
       244.000         214.000
  22234359.752   -14302135.75849 -11124516.66046  22234358.514    22234374.266
       230.000         182.000
  22619358.092   -13783930.34349 -10713972.46646  22619357.025    22619376.281
       221.000         170.000
  22958200.370    10448602.71649   8146399.38046  22958197.960    22958216.167
       221.000         171.000
  21640560.749   -13446038.86249 -10041182.36547  21640559.742    21640574.347
       236.000         197.000
 02  3 20 22 50  0.0000000  0  9G30G15G23G 5G 6G18G26G10G17
  22209795.334     9252069.97749   7223043.15246  22209795.588    22209812.547
       232.000         184.000
  22315597.572   -16939513.75849 -13187224.11346  22315596.394    22315613.147
       229.000         178.000
  20534984.329   -11826292.21849  -8942328.52947  20534983.557    20534995.683
       243.000         212.000
  24232575.893    19681231.73849  15332403.10445  24232577.056    24232602.827
       211.000         144.000
  20367571.186   -11891127.40449  -9254891.34748  20367570.694    20367582.388
       245.000         215.000
  22217798.875   -14389162.67249 -11192329.58546  22217797.529    22217813.207
       231.000         182.000
  22607883.644   -13844227.65049 -10760957.11346  22607882.738    22607902.297
       222.000         171.000
  22976531.741    10544934.15349   8221462.69246  22976530.119    22976548.791
       221.000         170.000
  21634934.516   -13475604.47049 -10064220.41947  21634933.717    21634947.744
       236.000         197.000
 02  3 20 22 50 30.0000000  0  9G30G15G23G 5G 6G18G26G10G17
  22227256.217     9343826.54649   7294541.54746  22227256.670    22227273.957
       231.000         184.000
  22306176.322   -16989022.30249 -13225802.05246  22306175.386    22306190.948
       230.000         179.000
  20537253.440   -11814367.81549  -8933036.76147  20537252.596    20537264.707
       243.000         212.000
  24252198.161    19784345.12349  15412750.81545  24252197.333    24252223.022
       208.000         140.000
  20364538.552   -11907063.94649  -9267309.41548  20364537.904    20364549.714
       244.000         215.000
  22201299.760   -14475865.05949 -11259889.63646  22201298.331    22201314.324
       231.000         182.000
  22596480.922   -13904148.15049 -10807648.14146  22596479.952    22596498.500
       222.000         171.000
  22994902.664    10641473.89549   8296688.32346  22994901.911    22994919.001
       222.000         169.000
  21629334.582   -13505031.96449 -10087150.86147  21629333.774    21629347.549
       236.000         198.000
 02  3 20 22 51  0.0000000  0  9G30G15G23G 5G 6G18G26G10G17
  22244758.295     9435799.81249   7366208.79146  22244758.524    22244776.411
       231.000         183.000
  22296784.329   -17038377.36949 -13264260.40346  22296783.008    22296799.435
       229.000         179.000
  20539617.583   -11801944.19049  -8923355.98347  20539616.789    20539629.015
       242.000         212.000
  24271813.325    19887423.17449  15493070.95145  24271813.803    24271840.659
       206.000         141.000
  20361578.049   -11922621.47149  -9279432.14148  20361577.453    20361589.235
       244.000         214.000
  22184862.213   -14562243.81749 -11327197.49546  22184860.890    22184876.377
       231.000         183.000
  22585150.053   -13963691.40149 -10854045.20446  22585149.536    22585167.987
       221.000         171.000
  23013312.185    10738216.36349   8372071.91046  23013311.146    23013327.785
       221.000         168.000
  21623760.344   -13534324.61949 -10109976.23847  21623759.703    21623773.541
       236.000         198.000
 02  3 20 22 51 30.0000000  0  9G30G15G23G 5G 6G18G26G10G17
  22262301.687     9527990.06949   7438045.11746  22262302.169    22262319.381
       232.000         183.000
  22287422.060   -17087575.92449 -13302596.80046  22287420.850    22287437.015
       229.000         179.000
  20542077.112   -11789019.21849  -8913284.55047  20542076.197    20542088.259
       242.000         212.000
  24291422.362    19990466.64749  15573364.17445  24291422.928    24291450.402
       208.000         144.000
  20358690.596   -11937794.96849  -9291255.63548  20358690.152    20358701.835
       244.000         214.000
  22168487.280   -14648293.53149 -11394248.96646  22168486.076    22168501.592
       231.000         183.000
  22573892.147   -14022850.82949 -10900143.19846  22573891.370    22573910.190
       222.000         172.000
  23031760.484    10835162.31149   8447614.05246  23031758.605    23031776.378
       221.000         168.000
  21618212.256   -13563479.66949 -10132694.38747  21618211.594    21618225.253
       236.000         198.000
 02  3 20 22 52  0.0000000  0  9G30G15G23G 5G 6G18G26G10G17
  22279885.388     9620392.24049   7510046.57446  22279885.746    22279903.054
       231.000         182.000
  22278089.134   -17136620.42349 -13340813.15646  22278087.771    22278103.700
       230.000         179.000
  20544631.370   -11775596.31049  -8902825.11147  20544630.488    20544642.743
       242.000         212.000
  24311023.608    20093470.98349  15653626.85245  24311023.539    24311052.037
       203.000         139.000
  20355876.159   -11952584.83949  -9302780.19248  20355875.700    20355887.421
       244.000         214.000
  22152174.902   -14734014.90949 -11461044.59946  22152173.379    22152189.163
       232.000         184.000
  22562707.574   -14081625.46049 -10945941.34346  22562707.313    22562724.721
       222.000         172.000
  23050246.631    10932306.97849   8523311.05746  23050245.877    23050263.637
       221.000         168.000
  21612689.846   -13592499.84449 -10155307.44347  21612688.727    21612703.113
       236.000         198.000
 02  3 20 22 52 30.0000000  0  9G30G15G23G 5G 6G18G26G10G17
  22297509.023     9713004.15649   7582211.46646  22297509.525    22297526.749
       231.000         182.000
  22268785.536   -17185510.48249 -13378909.16646  22268783.982    22268800.689
       229.000         179.000
  20547280.371   -11761675.74149  -8891977.88747  20547279.514    20547291.613
       242.000         212.000
  24330617.272    20196434.47449  15733857.76645  24330618.154    24330644.727
       208.000         139.000
  20353135.184   -11966988.61249  -9314003.89848  20353134.728    20353146.301
       244.000         214.000
  22135925.533   -14819404.85549 -11527581.96746  22135924.538    22135939.638
       233.000         185.000
  22551596.973   -14140011.14149 -10991436.41246  22551595.865    22551613.382
       223.000         173.000
  23068770.222    11029648.45349   8599161.40446  23068769.603    23068786.876
       223.000         168.000
  21607193.129   -13621384.90049 -10177815.20847  21607192.152    21607206.250
       237.000         198.000
 02  3 20 22 53  0.0000000  0  9G30G15G23G 5G 6G18G26G10G17
  22315171.898     9805822.20249   7654536.98546  22315172.248    22315189.994
       230.000         181.000
  22259511.035   -17234247.48149 -13416885.90446  22259509.962    22259525.939
       230.000         180.000
  20550023.642   -11747259.55649  -8880744.46647  20550022.675    20550034.979
       243.000         212.000
  24350202.613    20299354.03949  15814054.41645  24350202.635    24350229.720
       205.000         141.000
  20350467.819   -11981005.42149  -9324926.06748  20350467.235    20350479.098
       244.000         214.000
  22119739.435   -14904462.42549 -11593860.34346  22119738.174    22119753.386
       234.000         185.000
  22540560.801   -14198005.75349 -11036626.75246  22540560.025    22540578.274
       223.000         173.000
  23087330.521    11127182.79449   8675162.03446  23087329.784    23087347.112
       222.000         168.000
  21601721.898   -13650136.31449 -10200218.83947  21601721.000    21601735.110
       237.000         198.000
 02  3 20 22 53 30.0000000  0 10G30G22G15G23G 5G 6G18G26G10G17
  22332872.786     9898840.15149   7727018.26346  22332873.373    22332890.685
       232.000         181.000
  24494991.914    -3348063.14149  -1565338.08445  24494991.150    24495012.695
       202.000         138.000
  22250264.976   -17282835.15449 -13454746.29546  22250263.493    22250280.052
       230.000         180.000
  20552860.391   -11732352.35449  -8869128.43847  20552859.641    20552871.726
       242.000         212.000
  24369778.226    20402223.95449  15894212.33945  24369778.693    24369805.814
       208.000         138.000
  20347873.809   -11994636.81149  -9335547.91448  20347873.220    20347885.159
       244.000         214.000
  22103616.373   -14989189.00449 -11659880.80446  22103615.246    22103630.867
       233.000         186.000
  22529598.936   -14255609.19149 -11081512.28646  22529598.144    22529615.916
       225.000         173.000
  23105926.456    11224904.29149   8751308.51146  23105925.401    23105943.180
       221.000         167.000
  21596275.379   -13678757.89249 -10222521.30547  21596274.340    21596288.494
       237.000         198.000
 02  3 20 22 54  0.0000000  0 10G30G22G15G23G 5G 6G18G26G10G17
  22350611.837     9992058.71349   7799655.86646  22350612.003    22350629.660
       231.000         181.000
  24482975.269    -3411210.60949  -1614543.82045  24482974.180    24482995.956
       207.000         139.000
  22241048.077   -17331269.94949 -13492487.55846  22241046.944    22241062.741
       229.000         180.000
  20555791.024   -11716951.68849  -8857127.88747  20555790.352    20555802.353
       242.000         212.000
  24389344.885    20505045.47449  15974332.63645  24389345.907    24389372.724
       210.000         137.000
  20345354.196   -12007877.46449  -9345865.29148  20345353.735    20345365.552
       244.000         214.000
  22087557.321   -15073579.06049 -11725639.04446  22087555.753    22087571.343
       233.000         186.000
  22518712.942   -14312814.66449 -11126087.72646  22518712.620    22518729.477
       226.000         174.000
  23124558.201    11322814.06949   8827601.69946  23124557.172    23124574.604
       220.000         166.000
  21590854.116   -13707246.50349 -10244720.14647  21590853.133    21590867.035
       237.000         199.000
 02  3 20 22 54 30.0000000  0 10G30G22G15G23G 5G 6G18G26G10G17
  22368388.646    10085475.48749   7872447.91746  22368389.156    22368406.547
       231.000         181.000
  24471039.192    -3473934.53049  -1663419.41745  24471039.022    24471057.869
       207.000         134.000
  22231860.336   -17379551.60249 -13530109.50046  22231858.724    22231875.087
       229.000         180.000
  20558815.460   -11701058.06349  -8844743.21647  20558814.599    20558826.647
       242.000         212.000
  24408902.032    20607816.91649  16054413.89145  24408902.628    24408931.132
       207.000         140.000
  20342909.377   -12020725.00749  -9355876.35148  20342908.837    20342920.656
       244.000         214.000
  22071562.838   -15157629.66049 -11791132.78046  22071561.436    22071576.631
       233.000         187.000
  22507903.542   -14369618.35149 -11170350.08246  22507902.224    22507920.919
       226.000         174.000
  23143225.346    11420910.07949   8904040.00046  23143224.709    23143241.309
       220.000         166.000
  21585458.213   -13735601.87249 -10266815.17847  21585457.349    21585471.181
       237.000         199.000
 02  3 20 22 55  0.0000000  0 10G30G22G15G23G 5G 6G18G26G10G17
  22386202.864    10179088.81049   7945393.12246  22386203.484    22386221.259
       231.000         180.000
  24459184.285    -3536231.86149  -1711962.72345  24459181.901    24459204.607
       210.000         136.000
  22222701.778   -17427679.51549 -13567611.63046  22222700.245    22222716.756
       229.000         180.000
  20561933.691   -11684671.63549  -8831974.54447  20561932.650    20561944.943
       242.000         211.000
  24428449.123    20710537.11849  16134455.09145  24428450.206    24428476.545
       206.000         138.000
  20340539.916   -12033176.73449  -9365578.98148  20340539.607    20340551.136
       244.000         214.000
  22055633.414   -15241338.21549 -11856359.98546  22055631.994    22055647.338
       234.000         187.000
  22497171.267   -14426016.04549 -11214296.08846  22497170.463    22497188.156
       225.000         175.000
  23161927.645    11519190.82249   8980622.24346  23161926.482    23161944.428
       219.000         165.000
  21580087.761   -13763823.52149 -10288805.99547  21580086.597    21580101.014
       237.000         199.000
 02  3 20 22 55 30.0000000  0 10G30G22G15G23G 5G 6G18G26G10G17
  22404053.399    10272892.97949   8018487.03746  22404054.386    22404072.016
       230.000         180.000
  24447410.474    -3598103.28349  -1760174.07645  24447409.351    24447430.874
       207.000         137.000
  22213571.786   -17475656.68049 -13604996.30446  22213570.275    22213586.963
       229.000         181.000
  20565144.907   -11667796.34249  -8818824.93947  20565143.817    20565155.927
       242.000         211.000
  24447985.846    20813200.68149  16214452.32545  24447986.481    24448012.977
       212.000         138.000
  20338245.495   -12045233.98649  -9374974.23048  20338244.996    20338256.760
       245.000         214.000
  22039768.976   -15324705.59749 -11921321.34246  22039767.846    22039782.585
       234.000         187.000
  22486516.365   -14482007.17749 -11257925.29546  22486515.239    22486533.139
       224.000         175.000
  23180664.088    11617650.85349   9057344.22246  23180663.181    23180682.268
       219.000         164.000
  21574742.086   -13791914.78949 -10310695.23147  21574740.968    21574755.144
       237.000         199.000
 02  3 20 22 56  0.0000000  0 10G30G22G15G23G 5G 6G18G26G10G17
  22421939.722    10366885.17949   8091727.47446  22421940.124    22421957.553
       230.000         180.000
  24435718.105    -3659546.94149  -1808052.18445  24435716.096    24435736.421
       201.000         139.000
  22204470.656   -17523483.42849 -13642263.76646  22204469.206    22204485.064
       229.000         181.000
  20568448.947   -11650433.30049  -8805295.27047  20568448.100    20568460.010
       242.000         211.000
  24467511.205    20915805.20649  16294403.51145  24467508.906    24467539.344
       199.000         136.000
  20336026.510   -12056894.89149  -9384060.63548  20336026.052    20336037.615
       244.000         214.000
  22023969.828   -15407729.87449 -11986015.35146  22023969.113    22023983.635
       233.000         187.000
  22475939.315   -14537588.70249 -11301235.33346  22475938.112    22475955.992
       225.000         174.000
  23199434.118    11716287.78649   9134204.00146  23199433.636    23199450.412
       220.000         164.000
  21569421.181   -13819875.93349 -10332483.06147  21569420.101    21569434.019
       237.000         199.000
 02  3 20 22 56 30.0000000  0 10G30G22G15G23G 5G 6G18G26G10G17
  22439861.718    10461065.02649   8165114.12546  22439862.886    22439879.837
       231.000         180.000
  24424107.927    -3720558.76849  -1855593.71045  24424106.813    24424127.543
       196.000         140.000
  22195398.481   -17571157.58049 -13679412.32646  22195396.886    22195413.935
       229.000         181.000
  20571846.052   -11632581.24849  -8791384.55847  20571845.258    20571857.325
       242.000         211.000
  24487025.196    21018351.11149  16374308.91045  24487025.755    24487053.683
       209.000         139.000
  20333883.730   -12068155.12449  -9392834.83148  20333883.136    20333894.917
       244.000         214.000
  22008236.813   -15490406.52649 -12050438.48846  22008235.256    22008250.581
       234.000         187.000
  22465441.389   -14592754.80149 -11344221.66746  22465439.650    22465458.173
       225.000         175.000
  23218237.824    11815101.17649   9211201.29046  23218236.409    23218254.282
       220.000         164.000
  21564125.434   -13847705.02349 -10354167.99747  21564124.537    21564138.507
       237.000         199.000
 02  3 20 22 57  0.0000000  0 10G30G22G15G23G 5G 6G18G26G10G17
  22457818.348    10555426.62249   8238642.38946  22457818.836    22457836.992
       230.000         180.000
  24412579.432    -3781139.88849  -1902799.59945  24412578.114    24412600.613
       202.000         140.000
  22186354.635   -17618682.53649 -13716444.62546  22186352.778    22186369.306
       229.000         182.000
  20575335.373   -11614244.63849  -8777096.26647  20575334.542    20575346.428
       242.000         211.000
  24506527.314    21120832.88649  16454164.44045  24506527.104    24506554.489
       207.000         140.000
  20331816.932   -12079016.13449  -9401297.94148  20331816.606    20331828.073
       244.000         214.000
  21992569.677   -15572736.82749 -12114591.73546  21992568.162    21992583.550
       234.000         187.000
  22455022.463   -14647505.55549 -11386884.35346  22455021.562    22455039.008
       226.000         175.000
  23237074.006    11914085.71249   9288331.97746  23237072.849    23237090.863
       217.000         163.000
  21558854.156   -13875405.66749 -10375752.84147  21558853.226    21558866.743
       237.000         199.000
 02  3 20 22 57 30.0000000  0 10G30G22G15G23G 5G 6G18G26G10G17
  22475809.019    10649967.50049   8312310.35246  22475809.441    22475828.159
       229.000         179.000
  24401133.686    -3841287.70649  -1949667.91845  24401132.278    24401152.948
       206.000         139.000
  22177339.304   -17666058.02449 -13753360.46346  22177338.168    22177354.207
       230.000         182.000
  20578916.735   -11595424.22849  -8762430.99147  20578915.863    20578928.013
       242.000         211.000
  24526016.620    21223248.90049  16533968.71645  24526014.933    24526041.880
       204.000         135.000
  20329826.519   -12089475.85549  -9409448.35848  20329825.924    20329837.622
       244.000         214.000
  21976968.898   -15654718.30549 -12178473.18046  21976967.292    21976982.628
       234.000         187.000
  22444683.386   -14701837.04749 -11429220.36046  22444682.020    22444700.386
       226.000         174.000
  23255942.393    12013239.06349   9365594.17945  23255941.127    23255958.264
       217.000         162.000
  21553607.282   -13902977.81149 -10397237.55947  21553606.169    21553619.886
       238.000         199.000
 02  3 20 22 58  0.0000000  0 10G30G22G15G23G 5G 6G18G26G10G17
  22493833.289    10744684.59749   8386115.63246  22493834.193    22493852.123
       229.000         179.000
  24389770.551    -3901001.02149  -1996197.64845  24389769.034    24389791.404
       201.000         142.000
  22168352.330   -17713284.36449 -13790160.08346  22168350.720    22168367.300
       230.000         183.000
  20582589.920   -11576121.57049  -8747389.93447  20582589.010    20582601.163
       242.000         211.000
  24545493.066    21325596.46249  16613719.62845  24545493.798    24545521.968
       207.000         138.000
  20327912.688   -12099533.00349  -9417285.08348  20327912.169    20327923.779
       244.000         214.000
  21961434.861   -15736349.25049 -12242081.48347  21961433.576    21961448.285
       234.000         188.000
  22434424.453   -14755746.60449 -11471227.56346  22434423.242    22434440.564
       225.000         174.000
  23274842.392    12112558.62949   9442985.90146  23274841.303    23274858.896
       217.000         163.000
  21548384.808   -13930422.06749 -10418622.62347  21548383.964    21548397.690
       237.000         199.000
 02  3 20 22 58 30.0000000  0 10G30G22G15G23G 5G 6G18G26G10G17
  22511890.551    10839575.25049   8460056.14746  22511891.592    22511908.920
       230.000         178.000
  24378490.533    -3960277.75149  -2042387.15045  24378489.883    24378510.267
       209.000         143.000
  22159393.612   -17760361.89349 -13826843.74446  22159392.292    22159408.911
       230.000         182.000
  20586354.639   -11556337.74249  -8731973.94747  20586353.864    20586365.753
       242.000         211.000
  24564956.233    21427873.53249  16693415.60545  24564957.194    24564985.439
       205.000         141.000
  20326075.833   -12109185.76949  -9424806.71148  20326075.191    20326086.972
       244.000         214.000
  21945967.848   -15817627.95049 -12305415.31447  21945966.653    21945981.160
       234.000         188.000
  22424246.531   -14809230.82749 -11512903.36246  22424245.828    22424263.227
       225.000         175.000
  23293773.515    12212041.98549   9520505.24245  23293772.177    23293790.551
       217.000         162.000
  21543186.547   -13957738.82049 -10439908.33647  21543185.773    21543199.547
       236.000         199.000
 02  3 20 22 59  0.0000000  0 11G30G22G15G23G 5G 6G18G26G21G10G17
  22529979.772    10934633.73749   8534127.44146  22529980.199    22529998.682
       229.000         178.000
  24367293.390    -4019118.90249  -2088237.25945  24367291.345    24367312.497
       204.000         141.000
  22150462.624   -17807294.04249 -13863414.12646  22150460.995    22150477.436
       229.000         182.000
  20590210.119   -11536077.02549  -8716186.35147  20590209.165    20590221.244
       242.000         211.000
  24584404.657    21530074.86149  16773052.52745  24584403.951    24584434.130
       201.000         136.000
  20324315.666   -12118435.33649  -9432014.14948  20324315.049    20324326.856
       244.000         214.000
  21930567.691   -15898555.33149 -12368475.39347  21930566.405    21930581.126
       234.000         189.000
  22414149.637   -14862289.60849 -11554247.63646  22414148.458    22414166.572
       225.000         175.000
                  -2391799.41849  -1173363.57343
       205.000          74.000
  23312734.833    12311683.71349   9598147.99945  23312735.159    23312751.237
       220.000         162.000
  21538011.901   -13984931.40249 -10461097.28747  21538010.935    21538024.901
       237.000         200.000
 02  3 20 22 59 30.0000000  0 11G30G22G15G23G 5G 6G18G26G21G10G17
  22548100.712    11029858.89049   8608328.60946  22548101.904    22548119.071
       229.000         177.000
  24356179.638    -4077520.95849  -2133745.20845  24356178.159    24356199.698
       209.000         142.000
  22141559.669   -17854079.11249 -13899869.89446  22141558.058    22141574.652
       230.000         183.000
  20594156.426   -11515338.91549  -8700026.76447  20594155.693    20594167.716
       242.000         211.000
  24603838.784    21632199.90049  16852630.07445  24603839.706    24603865.773
       206.000         136.000
  20322632.867   -12127278.31249  -9438904.76748  20322632.374    20322644.051
       244.000         214.000
  21915235.109   -15979127.81149 -12431258.92847  21915233.520    21915248.792
       235.000         189.000
  22404134.626   -14914917.98649 -11595256.53646  22404133.891    22404150.403
       225.000         175.000
                  -2485417.264 9   1243875.836 1
       208.000
  23331726.064    12411483.06849   9675913.55346  23331725.543    23331744.201
       219.000         164.000
  21532861.205   -14011998.34149 -10482188.34147  21532860.261    21532874.013
       238.000         200.000
 02  3 20 23  0  0.0000000  0 11G30G22G15G23G 5G 6G18G26G21G10G17
  22566253.088    11125249.34949   8682658.57846  22566254.127    22566271.769
       227.000         177.000
  24345150.233    -4135480.70849  -2178908.48145  24345149.514    24345170.008
       206.000         144.000
  22132684.812   -17900716.05449 -13936210.26446  22132684.232    22132699.601
       231.000         183.000
  20598193.611   -11494123.28349  -8683495.08147  20598192.638    20598204.772
       242.000         211.000
  24623258.333    21734248.06149  16932147.71045  24623259.332    24623288.170
       206.000         140.000
  20321028.076   -12135711.66649  -9445476.20848  20321027.615    20321039.292
       244.000         214.000
  21899970.655   -16059342.11849 -12493763.37347  21899969.467    21899984.090
       235.000         190.000
  22394202.293   -14967111.40049 -11635926.50646  22394201.887    22394218.673
       226.000         175.000
                  -2578883.85849  -1094781.88043
       207.000          74.000
  23350747.146    12511438.98149   9753801.13345  23350746.924    23350764.113
       217.000         161.000
  21527734.589   -14038938.74549 -10503180.79247  21527733.510    21527747.623
       237.000         200.000
 02  3 20 23  0 30.0000000  0 11G30G22G15G23G 5G 6G18G26G21G10G17
  22584436.625    11220803.37749   8757116.00646  22584437.080    22584454.634
       227.000         177.000
  24334205.417    -4192995.56749  -2223725.14445  24334203.491    24334225.005
       205.000         141.000
  22123838.324   -17947204.18249 -13972434.66946  22123837.116    22123852.917
       230.000         183.000
  20602321.595   -11472430.44449  -8666591.55147  20602320.840    20602332.603
       242.000         211.000
  24642662.868    21836218.23449  17011604.47145  24642662.949    24642691.695
       205.000         139.000
  20319501.671   -12143732.88549  -9451726.50048  20319501.132    20319512.972
       244.000         214.000
  21884774.935   -16139195.35249 -12555986.46747  21884773.766    21884788.414
       236.000         190.000
  22384353.618   -15018865.72449 -11676254.34246  22384352.685    22384369.610
       225.000         175.000
                  -2672196.77049  -1167497.27743
       204.000          74.000
  23369797.760    12611549.91249   9831809.46645  23369796.247    23369814.243
       215.000         161.000
  21522632.119   -14065751.92949 -10524074.12347  21522631.252    21522645.073
       237.000         200.000
 02  3 20 23  1  0.0000000  0 11G30G22G15G23G 5G 6G18G26G10G21G17
  22602650.712    11316518.36049   8831698.84746  22602651.630    22602669.053
       228.000         176.000
  24323345.780    -4250063.07149  -2268193.18745  24323345.278    24323365.068
       208.000         147.000
  22115020.155   -17993543.55949 -14008543.16146  22115018.931    22115034.751
       230.000         183.000
  20606540.174   -11450261.59249  -8649317.10147  20606539.370    20606551.345
       242.000         211.000
  24662052.204    21938108.21449  17090998.79745  24662052.626    24662079.929
       207.000         135.000
  20318054.089   -12151340.02149  -9457654.13348  20318053.494    20318065.317
       244.000         214.000
  21869648.329   -16218685.58049 -12617926.69847  21869647.498    21869661.957
       236.000         191.000
  22374589.083   -15070177.55849 -11716237.36546  22374587.695    22374605.024
       225.000         175.000
  23388877.446    12711813.66249   9909936.90645  23388876.358    23388894.003
       216.000         161.000
                  -1327460.813 9   1142956.912 1
       212.000
  21517553.824   -14092438.06749 -10544868.46747  21517552.738    21517566.779
       237.000         200.000
 02  3 20 23  1 30.0000000  0 11G30G22G15G23G 5G 6G18G26G10G21G17
  22620894.771    11412390.24849   8906403.95746  22620896.040    22620913.669
       227.000         176.000
  24312571.193    -4306683.06949  -2312312.49045  24312569.778    24312591.132
       213.000         147.000
  22106230.010   -18039735.47849 -14044536.74946  22106228.806    22106244.552
       230.000         183.000
  20610848.835   -11427619.38149  -8631673.80147  20610848.047    20610859.860
       241.000         211.000
  24681425.802    22039914.54649  17170328.03745  24681426.324    24681454.787
       206.000         137.000
  20316685.370   -12158532.48349  -9463258.63848  20316684.702    20316696.491
       244.000         214.000
  21854590.907   -16297812.08049 -12679583.51247  21854589.642    21854604.475
       236.000         191.000
  22364909.175   -15121045.15449 -11755874.23346  22364908.776    22364924.874
       225.000         175.000
  23407985.574    12812226.59349   9988180.61045  23407985.309    23408002.799
       217.000         160.000
                  -1420461.80649  -1089148.15443
       206.000          74.000
  21512499.507   -14118998.69149 -10565565.00647  21512498.447    21512512.461
       238.000         200.000
 02  3 20 23  2  0.0000000  0 11G30G22G15G23G 5G 6G18G26G10G21G17
  22639167.379    11508412.57549   8981226.28246  22639168.630    22639186.589
       226.000         175.000
  24301881.463    -4362857.41649  -2356084.64045  24301879.719    24301901.023
       209.000         146.000
  22097467.240   -18085783.78849 -14080418.43746  22097466.172    22097481.549
       231.000         183.000
  20615246.620   -11404508.77449  -8613665.52047  20615245.762    20615257.836
       242.000         211.000
  24700782.157    22141631.65549  17249587.66145  24700781.585    24700812.195
       201.000         135.000
  20315395.226   -12165312.37149  -9468541.66448  20315394.755    20315406.442
       245.000         214.000
  21839602.385   -16376576.58949 -12740958.25847  21839601.309    21839615.472
       237.000         192.000
  22355313.665   -15171469.01849 -11795165.34146  22355312.239    22355330.621
       225.000         175.000
  23427120.816    12912782.59749  10066535.76545  23427119.413    23427137.309
       214.000         159.000
                  -1513308.25549  -1161495.52843
       210.000          74.000
  21507468.270   -14145437.75349 -10586166.81147  21507467.090    21507481.107
       237.000         200.000
 02  3 20 23  2 30.0000000  0 11G30G22G15G23G 5G 6G18G26G10G21G17
  22657468.449    11604584.29249   9056165.02346  22657469.190    22657487.707
       227.000         175.000
  24291277.163    -4418582.59449  -2399506.69445  24291275.790    24291297.020
       212.000         148.000
  22088732.028   -18131687.12049 -14116187.14346  22088730.880    22088746.723
       231.000         183.000
  20619733.610   -11380929.41249  -8595291.97747  20619732.726    20619744.660
       242.000         211.000
  24720121.594    22243258.95749  17328777.23045  24720122.275    24720151.976
       206.000         139.000
  20314184.173   -12171676.54949  -9473500.76048  20314183.803    20314195.518
       244.000         214.000
  21824683.398   -16454975.75949 -12802048.32547  21824682.167    21824696.325
       237.000         192.000
  22345803.520   -15221444.41449 -11834107.00246  22345803.212    22345819.498
       227.000         175.000
  23446283.124    13013480.96449  10145001.84545  23446282.476    23446302.672
       216.000         160.000
                  -1605996.53449  -1233719.82344                  24670665.492
       207.000         118.000
  21502460.355   -14171754.12549 -10606673.02747  21502459.207    21502473.134
       237.000         199.000
 02  3 20 23  3  0.0000000  0 11G30G22G15G23G 5G 6G18G26G10G21G17
  22675796.973    11700900.36549   9131216.24646  22675797.752    22675815.858
       227.000         174.000
  24280758.374    -4473859.06349  -2442579.16945  24280757.601    24280778.671
       208.000         147.000
  22080023.952   -18177447.78049 -14151844.69846  22080022.898    22080038.522
       230.000         184.000
  20624309.090   -11356884.82149  -8576555.91747  20624308.129    20624320.197
       241.000         211.000
  24739443.141    22344792.04149  17407893.52845  24739443.989    24739472.044
       205.000         135.000
  20313052.124   -12177625.47449  -9478136.28348  20313051.637    20313063.307
       244.000         214.000
  21809833.802   -16533009.93949 -12862853.98347  21809832.847    21809846.835
       237.000         193.000
  22336378.929   -15270970.33149 -11872698.41346  22336378.187    22336395.007
       226.000         176.000
  23465471.733    13114317.26649  10223575.41445  23465472.941    23465487.927
       218.000         158.000
  24653030.261    -1698526.90349  -1305820.99145  24653028.753    24653057.191
       209.000         139.000
  21497475.313   -14197950.22549 -10627085.52747  21497474.348    21497487.971
       237.000         199.000
 02  3 20 23  3 30.0000000  0 11G30G22G15G23G 5G 6G18G26G10G21G17
  22694152.522    11797358.06649   9206377.81546  22694153.624    22694172.191
       227.000         174.000
  24270325.250    -4528685.23649  -2485300.80045  24270324.314    24270344.651
       211.000         149.000
  22071342.927   -18223066.21549 -14187391.41646  22071341.208    22071357.252
       232.000         184.000
  20628972.876   -11332376.47549  -8557458.49447  20628971.970    20628983.899
       243.000         210.000
  24758746.185    22446228.89949  17486934.86044  24758744.268    24758776.895
       196.000         130.000
  20311999.367   -12183157.67549  -9482447.08748  20311998.826    20312010.564
       245.000         214.000
  21795054.125   -16610677.14349 -12923373.69747  21795052.989    21795066.993
       237.000         193.000
  22327040.292   -15320043.96649 -11910937.41546  22327039.262    22327056.386
       226.000         176.000
  23484686.134    13215288.62049  10302254.20345  23484684.751    23484701.905
       216.000         160.000
  24635452.256    -1790897.76449  -1377797.88945  24635450.602    24635479.080
       205.000         138.000
  21492513.092   -14224026.49049 -10647404.64147  21492511.824    21492525.861
       237.000         199.000
 02  3 20 23  4  0.0000000  0 11G30G22G15G23G 5G 6G18G26G10G21G17
  22712534.823    11893956.45349   9281649.01346  22712536.028    22712553.893
       227.000         174.000
  24259978.380    -4583057.60449  -2527668.68445  24259976.318    24259998.565
       213.000         149.000
  22062689.382   -18268540.58249 -14222825.88146  22062688.059    22062703.616
       231.000         184.000
  20633725.003   -11307403.94849  -8537999.36847  20633724.040    20633736.127
       242.000         210.000
  24778030.797    22547569.20849  17565900.80145  24778031.686    24778061.361
       206.000         137.000
  20311026.614   -12188269.60349  -9486430.40848  20311026.239    20311037.657
       245.000         214.000
  21780344.869   -16687973.98249 -12983604.81547  21780343.432    21780357.921
       236.000         193.000
  22317788.711   -15368660.38549 -11948820.14446  22317788.297    22317805.141
       226.000         176.000
  23503926.175    13316394.81649  10381038.14645  23503924.981    23503944.510
       215.000         159.000
  24617905.457    -1883105.38349  -1449647.62445  24617904.439    24617932.731
       207.000         140.000
  21487573.956   -14249981.45949 -10667629.24047  21487573.313    21487586.600
       237.000         199.000
 02  3 20 23  4 30.0000000  0 10G30G22G15G23G 6G18G26G10G21G17
  22730943.180    11990691.81149   9357026.95046  22730943.645    22730962.663
       226.000         174.000
  24249718.015    -4636975.44249  -2569682.51445  24249716.551    24249737.286
       209.000         144.000
  22054063.021   -18313872.22249 -14258149.13546  22054061.891    22054077.429
       230.000         184.000
  20638564.967   -11281969.61949  -8518180.39847  20638564.129    20638576.164
       241.000         210.000
  20310133.956   -12192960.54949  -9490085.69048  20310133.577    20310145.177
       244.000         214.000
  21765706.201   -16764899.79049 -13043546.81147  21765704.626    21765719.592
       236.000         193.000
  22308624.511   -15416817.49849 -11986344.97546  22308622.952    22308640.392
       226.000         177.000
  23523191.107    13417632.45449  10459924.41145  23523190.814    23523206.657
       216.000         158.000
  24600389.997    -1975148.70749  -1521369.26145  24600388.555    24600416.475
       206.000         141.000
  21482657.728   -14275816.37549 -10687760.29247  21482656.686    21482670.763
       237.000         200.000
 02  3 20 23  5  0.0000000  0 10G30G22G15G23G 6G18G26G10G21G17
  22749378.121    12087567.10649   9432513.91546  22749378.243    22749397.800
       225.000         174.000
  24239545.665    -4690431.04649  -2611336.10645  24239543.813    24239565.418
       204.000         148.000
  22045464.843   -18359055.50549 -14293356.78646  22045463.453    22045479.639
       231.000         184.000
  20643493.650   -11256068.95849  -8497998.05647  20643492.687    20643504.903
       242.000         210.000
  20309322.863   -12197223.03249  -9493407.10748  20309322.489    20309333.970
       245.000         214.000
  21751139.671   -16841446.60349 -13103193.49247  21751138.340    21751153.024
       237.000         193.000
  22299549.422   -15464506.41449 -12023504.98246  22299548.684    22299565.419
       226.000         177.000
  23542481.770    13519004.82249  10538915.69245  23542481.169    23542498.444
       215.000         158.000
  24582907.202    -2067020.54849  -1592957.30645  24582905.469    24582932.690
       205.000         140.000
  21477765.402   -14301525.57749 -10707793.39047  21477764.583    21477778.354
       237.000         200.000
 02  3 20 23  5 30.0000000  0 10G30G22G15G23G 6G18G26G10G21G17
  22767837.825    12184572.70249   9508102.42046  22767838.593    22767858.513
       225.000         173.000
  24229460.285    -4743429.85449  -2652633.72745  24229459.664    24229479.684
       208.000         147.000
  22036893.557   -18404097.35349 -14328454.23146  22036892.177    22036907.967
       229.000         184.000
  20648509.524   -11229710.36749  -8477458.89147  20648508.725    20648520.649
       242.000         210.000
  20308592.224   -12201062.67249  -9496399.03748  20308591.864    20308603.350
       245.000         214.000
  21736644.287   -16917619.67949 -13162548.95547  21736643.315    21736657.276
       236.000         194.000
  22290562.751   -15511731.07449 -12060303.23446  22290561.955    22290578.995
       228.000         178.000
  23561796.339    13620502.75949  10618004.86645  23561796.228    23561812.454
       218.000         156.000
  24565456.008    -2158725.65249  -1664415.40545  24565454.790    24565482.661
       205.000         141.000
  21472895.542   -14327116.52649 -10727734.34047  21472894.784    21472908.404
       237.000         200.000
 02  3 20 23  6  0.0000000  0 10G30G22G15G23G 6G18G26G10G21G17
  22786321.870    12281706.00049   9583790.42546  22786322.117    22786341.248
       226.000         173.000
  24219462.051    -4795970.13649  -2693574.13345  24219460.297    24219481.691
       209.000         147.000
  22028349.070   -18448998.03349 -14363441.67446  22028347.522    22028363.539
       230.000         184.000
  20653612.246   -11202895.26349  -8456563.99647  20653611.402    20653623.465
       241.000         210.000
  20307942.353   -12204477.82549  -9499060.19548  20307941.914    20307953.479
       244.000         214.000
  21722220.294   -16993417.24349 -13221611.80847  21722219.101    21722233.101
       237.000         194.000
  22281665.027   -15558488.42549 -12096737.35146  22281664.685    22281681.229
       227.000         178.000
  23581134.364    13722124.20249  10697190.19745  23581133.951    23581151.513
       216.000         157.000
  24548036.766    -2250262.49249  -1735742.37145  24548035.499    24548062.933
       206.000         141.000
  21468048.219   -14352589.24449 -10747583.15247  21468047.680    21468060.940
       237.000         200.000
 02  3 20 23  6 30.0000000  0 10G30G22G15G23G 6G18G26G10G21G17
  22804829.673    12378964.09949   9659575.68046  22804830.614    22804849.068
       225.000         173.000
  24209551.327    -4848050.32249  -2734155.90845  24209550.597    24209571.917
       211.000         149.000
  22019831.499   -18493757.82849 -14398319.34246  22019830.868    22019845.717
       231.000         184.000
  20658801.541   -11175625.21749  -8435314.60547  20658800.750    20658812.616
       241.000         210.000
  20307373.501   -12207467.03849  -9501389.45948  20307373.028    20307384.675
       244.000         214.000
  21707868.089   -17068837.70349 -13280380.81547  21707866.687    21707880.913
       236.000         194.000
  22272856.721   -15604775.57049 -12132805.08646  22272856.242    22272872.969
       227.000         178.000
  23600495.450    13823866.40249  10776469.71545  23600494.518    23600513.124
       216.000         157.000
  24530650.035    -2341629.11749  -1806936.71245  24530648.495    24530675.538
       207.000         141.000
  21463223.321   -14377944.18849 -10767340.20347  21463222.310    21463236.240
       238.000         200.000
 02  3 20 23  7  0.0000000  0 10G30G22G15G23G 6G18G26G10G21G17
  22823360.904    12476345.30349   9735456.84646  22823362.195    22823379.787
       226.000         173.000
  24199728.817    -4899667.85749  -2774377.29745  24199726.968    24199746.941
       203.000         146.000
  22011340.881   -18538375.93249 -14433086.61146  22011339.787    22011355.030
       231.000         184.000
  20664077.347   -11147900.79149  -8413711.15547  20664076.707    20664088.582
       242.000         210.000
  20306886.180   -12210027.88049  -9503384.92748  20306885.776    20306897.430
       245.000         214.000
  21693588.151   -17143878.38849 -13338853.89147  21693586.553    21693600.907
       237.000         194.000
  22264138.657   -15650588.65149 -12168503.42146  22264138.008    22264154.721
       228.000         179.000
  23619879.163    13925727.89349  10855842.10345  23619879.278    23619896.457
       217.000         158.000
  24513296.186    -2432822.80849  -1877996.26545  24513294.050    24513321.024
       208.000         141.000
  21458420.959   -14403180.71549 -10787004.97847  21458420.025    21458433.615
       237.000         201.000
 02  3 20 23  7 30.0000000  0 10G30G22G15G23G 6G18G26G10G21G17
  22841915.043    12573846.62149   9811431.60746  22841917.010    22841933.761
       225.000         173.000
  24189994.482    -4950821.40349  -2814237.03245  24189993.606    24190014.891
       212.000         149.000
  22002877.079   -18582852.84549 -14467743.84346  22002875.566    22002891.142
       230.000         184.000
  20669439.247   -11119723.65249  -8391754.94347  20669438.436    20669450.517
       242.000         210.000
  20306480.623   -12212159.06049  -9505045.59248  20306480.186    20306491.857
       244.000         214.000
  21679380.798   -17218537.76749 -13397029.86247  21679379.568    21679393.601
       236.000         194.000
  22255511.361   -15695924.81649 -12203830.13546  22255510.431    22255526.838
       228.000         179.000
  23639285.332    14027706.48249  10935305.77545  23639283.585    23639303.821
       214.000         158.000
  24495975.633    -2523841.70249  -1948919.63245  24495974.889    24496001.519
       208.000         142.000
  21453641.008   -14428299.42249 -10806577.94747  21453639.984    21453653.706
       238.000         201.000
 02  3 20 23  8  0.0000000  0 10G30G22G15G23G 6G18G26G10G21G17
  22860491.045    12671463.21849   9887496.20946  22860490.891    22860511.153
       225.000         172.000
  24180348.489    -5001511.47249  -2853735.69445  24180348.023    24180367.325
       206.000         147.000
  21994439.780   -18627190.92049 -14502292.91046  21994438.627    21994453.927
       230.000         184.000
  20674886.615   -11091097.62549  -8369448.94647  20674885.874    20674897.838
       242.000         210.000
  20306156.714   -12213861.13049  -9506371.88548  20306156.380    20306168.095
       245.000         214.000
  21665245.886   -17292816.41649 -13454909.14547  21665244.773    21665258.750
       237.000         195.000
  22246974.975   -15740783.39649 -12238784.70146  22246974.380    22246990.438
       229.000         179.000
  23658712.754    14129797.65949  11014857.18645  23658712.714    23658730.426
       216.000         156.000
  24478688.182    -2614686.09149  -2019706.97845  24478685.798    24478713.176
       206.000         142.000
  21448883.036   -14453302.57649 -10826060.86847  21448881.738    21448895.788
       238.000         200.000
 02  3 20 23  8 30.0000000  0 10G30G22G15G23G 6G18G26G10G21G17
  22879088.847    12769194.19949   9963649.93246  22879089.116    22879109.275
       224.000         172.000
  24170791.108    -5051734.63349  -2892870.49745  24170789.680    24170810.634
       208.000         146.000
  21986029.188   -18671388.26949 -14536732.31046  21986028.159    21986043.481
       230.000         184.000
  20680419.478   -11062022.09449  -8346792.68847  20680418.394    20680430.636
       241.000         210.000
  20305915.139   -12215130.71749  -9507361.17748  20305914.688    20305926.363
       244.000         214.000
  21651184.228   -17366710.52549 -13512488.79547  21651183.068    21651197.107
       238.000         196.000
  22238530.374   -15785159.50849 -12273363.32846  22238529.676    22238545.945
       229.000         179.000
  23678161.405    14232000.79449  11094495.76545  23678161.090    23678178.401
       216.000         157.000
  24461434.538    -2705352.66449  -2090355.78645  24461432.952    24461459.401
       205.000         142.000
  21444147.300   -14478188.64049 -10845452.56047  21444146.276    21444159.934
       238.000         201.000
 02  3 20 23  9  0.0000000  0 10G30G22G15G23G 6G18G26G10G21G17
  22897707.598    12867035.39849  10039889.53846  22897708.266    22897727.566
       224.000         171.000
  24161322.700    -5101490.69349  -2931641.33545  24161321.785    24161342.894
       205.000         144.000
  21977645.025   -18715446.84549 -14571063.57846  21977644.493    21977659.469
       231.000         184.000
  20686037.310   -11032500.13649  -8323788.56847  20686036.685    20686048.440
       241.000         210.000
  20305755.842   -12215967.74049  -9508013.41048  20305755.438    20305767.028
       244.000         214.000
  21637195.738   -17440219.85749 -13569768.62247  21637194.782    21637208.476
       238.000         196.000
  22230177.845   -15829051.60249 -12307564.79246  22230177.039    22230193.194
       227.000         178.000
  23697630.814    14334312.51249  11174219.06045  23697630.632    23697648.123
       215.000         154.000
  24444214.980    -2795840.55649  -2160865.34645  24444211.974    24444239.052
       207.000         142.000
  21439433.585   -14502959.29149 -10864754.31547  21439432.640    21439446.447
       237.000         201.000
 02  3 20 23  9 30.0000000  0 10G30G22G15G23G 6G18G26G10G21G17
  22916347.043    12964985.29849  10116213.83846  22916347.862    22916367.535
       224.000         171.000
  24151943.677    -5150777.26649  -2970046.31545  24151942.358    24151964.005
       212.000         146.000
  21969287.486   -18759365.59449 -14605285.88046  21969286.400    21969301.319
       231.000         185.000
  20691740.044   -11002532.13349  -8300436.88047  20691739.307    20691751.333
       242.000         210.000
  20305679.367   -12216369.71149  -9508326.64448  20305678.961    20305690.594
       244.000         214.000
  21623281.001   -17513341.61849 -13626746.44247  21623280.155    21623293.970
       238.000         196.000
  22221918.065   -15872455.97149 -12341386.21446  22221917.996    22221933.155
       228.000         178.000
  23717120.629    14436731.35949  11254025.71945  23717119.930    23717138.374
       214.000         157.000
  24427029.919    -2886147.30449  -2231233.75445  24427028.890    24427054.554
       206.000         143.000
  21434741.958   -14527613.66949 -10883965.47147  21434741.038    21434754.656
       237.000         201.000
 02  3 20 23 10  0.0000000  0 10G30G22G15G23G 6G18G26G10G21G17
  22935006.323    13063039.68549  10192619.55746  22935006.525    22935026.075
       222.000         171.000
  24142654.127    -5199593.98049  -3008085.18345  24142651.580    24142671.516
       205.000         144.000
  21960956.365   -18803145.90649 -14639400.31346  21960955.227    21960970.851
       231.000         185.000
  20697527.104   -10972120.96749  -8276739.87047  20697526.411    20697538.377
       242.000         210.000
  20305685.722   -12216336.45849  -9508300.74848  20305685.287    20305696.925
       244.000         214.000
  21609440.034   -17586075.75149 -13683422.22047  21609438.827    21609452.790
       238.000         197.000
  22213751.527   -15915371.04749 -12374826.38446  22213751.350    22213766.992
       227.000         179.000
  23736630.182    14539253.70749  11333913.14545  23736629.224    23736648.980
       217.000         156.000
  24409879.234    -2976272.61349  -2301460.77545  24409877.973    24409904.543
       212.000         144.000
  21430072.148   -14552153.43149 -10903087.31247  21430071.021    21430085.174
       238.000         201.000
 02  3 20 23 10 30.0000000  0 10G30G22G15G23G 6G18G26G10G21G17
  22953684.947    13161195.67949  10269104.45746  22953685.424    22953704.920
       224.000         170.000
  24133454.194    -5247939.69649  -3045757.11845  24133453.888    24133475.356
       206.000         145.000
  21952651.388   -18846788.32549 -14673407.29346  21952650.556    21952666.006
       231.000         185.000
  20703398.200   -10941268.39449  -8252698.90347  20703397.576    20703409.601
       242.000         210.000
  20305775.067   -12215866.81949  -9507934.80048  20305774.565    20305786.296
       244.000         214.000
  21595673.104   -17658420.79749 -13739794.80947  21595672.057    21595685.659
       239.000         197.000
  22205678.595   -15957794.18249 -12407883.20646  22205678.479    22205694.054
       229.000         179.000
  23756158.799    14641876.94949  11413879.06845  23756159.533    23756177.475
       218.000         156.000
  24392763.456    -3066214.91249  -2371545.21745  24392761.263    24392787.576
       206.000         144.000
  21425424.087   -14576579.03149 -10922120.19447  21425423.098    21425436.781
       237.000         201.000
 02  3 20 23 11  0.0000000  0 10G30G22G15G23G 6G18G26G10G21G17
  22972382.520    13259450.86449  10345666.64746  22972383.240    22972403.163
       223.000         170.000
  24124344.240    -5295812.69349  -3083060.59045  24124342.535    24124363.315
       206.000         144.000
  21944372.734   -18890292.73349 -14707306.72946  21944371.488    21944386.754
       232.000         186.000
  20709353.031   -10909975.63849  -8228314.93747  20709351.994    20709364.365
       242.000         210.000
  20305947.817   -12214958.82449  -9507227.27948  20305947.245    20305959.131
       243.000         214.000
  21581980.602   -17730374.74249 -13795862.65447  21581979.516    21581992.897
       238.000         197.000
  22197699.826   -15999722.25849 -12440554.28946  22197698.783    22197715.189
       227.000         179.000
  23775706.437    14744599.12449  11493922.18545  23775706.421    23775722.872
       217.000         155.000
  24375682.926    -3155971.64649  -2441485.02045  24375681.757    24375708.050
       213.000         145.000
  21420797.717   -14600890.38749 -10941064.05647  21420796.851    21420810.329
       237.000         201.000
